[[{"header":{"parameterUnit":"m.s-1","parameterCategory":1,"la1":31.0,"la2":29.5877,"lo1":-88.7671,"lo2":-86.6584,"dy":0.0162,"dx":0.0185,"nx":115,"ny":88,"refTime":"2024-07-22T12:00:00:Z","depth":0,"parameterNumber":2,"parameterNumberName":"U-component_of_WINDS"},"data":[0.0,0.0,0.0,0.0,0.0,0.0,0.0,0.0,0.0,0.0,0.0,0.0,0.0,0.0,0.0,0.0,0.0,0.0,0.0,0.0,0.0,0.0,0.0,0.0,0.0,0.0,0.0,0.0,0.0,0.0,0.0,0.0,0.0,0.0,0.0,0.0,0.0,0.0,0.0,0.0,0.0,0.0,0.0,0.0,0.0,0.0,0.0,0.0,0.0,0.0,0.0,0.0,0.0,0.0,0.0,0.0,0.0,0.0,0.0,0.0,0.0,0.0,0.0,0.0,0.0,0.0,0.0,0.0,0.0,0.0,0.0,0.0,0.0,0.0,0.0,0.0,0.0,0.0,0.0,0.0,0.0,0.0,0.0,0.0,0.0,0.0,0.0,0.0,0.0,0.0,0.0,0.0,0.0,0.0,0.0,0.0,0.0,0.0,0.0,0.0,0.0,0.0,0.0,0.0,0.0,0.0,0.0,0.0,0.0,0.0,0.0,0.0,0.0,0.0,0.0,0.0,0.0,0.0,0.0,0.0,0.0,0.0,0.0,0.0,0.0,0.0,0.0,0.0,0.0,0.0,0.0,0.0,0.0,0.0,0.0,0.0,0.0,0.0,0.0,0.0,0.0,0.0,0.0,0.0,0.0,0.0,0.0,0.0,0.0,0.0,0.0,0.0,0.0,0.0,0.0,0.0,0.0,0.0,0.0,0.0,0.0,0.0,0.0,0.0,0.0,0.0,0.0,0.0,0.0,0.0,0.0,0.0,0.0,0.0,0.0,0.0,0.0,0.0,0.0,0.0,0.0,0.0,0.0,0.0,0.0,0.0,0.0,0.0,0.0,0.0,0.0,0.0,0.0,0.0,0.0,0.0,0.0,0.0,0.0,0.0,0.0,0.0,0.0,0.0,0.0,0.0,0.0,0.0,0.0,0.0,0.0,0.0,0.0,0.0,0.0,0.0,0.0,0.0,0.0,0.0,0.0,0.0,0.0,0.0,0.0,0.0,0.0,0.0,0.0,0.0,0.0,0.0,0.0,0.0,0.0,0.0,0.0,0.0,0.0,0.0,0.0,0.0,0.0,0.0,0.0,0.0,0.0,0.0,0.0,0.0,0.0,0.0,0.0,0.0,0.0,0.0,0.0,0.0,0.0,0.0,0.0,0.0,0.0,0.0,0.0,0.0,0.0,0.0,0.0,0.0,0.0,0.0,0.0,0.0,0.0,0.0,0.0,0.0,0.0,0.0,0.0,0.0,0.0,0.0,0.0,0.0,0.0,0.0,0.0,0.0,0.0,0.0,0.0,0.0,0.0,0.0,0.0,0.0,0.0,0.0,0.0,0.0,0.0,0.0,0.0,0.0,0.0,0.0,0.0,0.0,0.0,0.0,0.0,0.0,0.0,0.0,0.0,0.0,0.0,0.0,0.0,0.0,0.0,0.0,0.0,0.0,0.0,0.0,0.0,0.0,0.0,0.0,0.0,0.0,0.0,0.0,0.0,0.0,0.0,0.0,0.0,0.0,0.0,0.0,0.0,0.0,0.0,0.0,0.0,0.0,0.0,0.0,0.0,0.0,0.0,0.0,0.0,0.0,0.0,0.0,0.0,0.0,0.0,0.0,0.0,0.0,0.0,0.0,0.0,0.0,0.0,0.0,0.0,0.0,0.0,0.0,0.0,0.0,0.0,0.0,0.0,0.0,0.0,0.0,0.0,0.0,0.0,0.0,0.0,0.0,0.0,0.0,0.0,0.0,0.0,0.0,0.0,0.0,0.0,0.0,0.0,0.0,0.0,0.0,0.0,0.0,0.0,0.0,0.0,0.0,0.0,0.0,0.0,0.0,0.0,0.0,0.0,0.0,0.0,0.0,0.0,0.0,0.0,0.0,0.0,0.0,0.0,0.0,0.0,0.0,0.0,0.0,0.0,0.0,0.0,0.0,0.0,0.0,0.0,0.0,0.0,0.0,0.0,0.0,0.0,0.0,0.0,0.0,0.0,0.0,0.0,0.0,0.0,0.0,0.0,0.0,0.0,0.0,0.0,0.0,0.0,0.0,0.0,0.0,0.0,0.0,0.0,0.0,0.0,0.0,0.0,0.0,0.0,0.0,0.0,0.0,0.0,0.0,0.0,0.0,0.0,0.0,0.0,0.0,0.0,0.0,0.0,0.0,0.0,0.0,0.0,0.0,0.0,0.0,0.0,0.0,0.0,0.0,0.0,0.0,0.0,0.0,0.0,0.0,0.0,0.0,0.0,0.0,0.0,0.0,0.0,0.0,0.0,0.0,0.0,0.0,0.0,0.0,0.0,0.0,0.0,0.0,0.0,0.0,0.0,0.0,0.0,0.0,0.0,0.0,0.0,0.0,0.0,0.0,0.0,0.0,0.0,0.0,0.0,0.0,0.0,0.0,0.0,0.0,0.0,0.0,0.0,0.0,0.0,0.0,0.0,0.0,0.0,0.0,0.0,0.0,0.0,0.0,0.0,0.0,0.0,0.0,0.0,0.0,0.0,0.0,0.0,0.0,0.0,0.0,0.0,0.0,0.0,0.0,0.0,0.0,0.0,0.0,0.0,0.0,0.0,0.0,0.0,0.0,0.0,0.0,0.0,0.0,0.0,0.0,0.0,0.0,0.0,0.0,0.0,0.0,0.0,0.0,0.0,0.0,0.0,0.0,0.0,0.0,0.0,0.0,0.0,0.0,0.0,0.0,0.0,0.0,0.0,0.0,0.0,0.0,0.0,0.0,0.0,0.0,0.0,0.0,0.0,0.0,0.0,0.0,0.0,0.0,0.0,0.0,0.0,0.0,0.0,0.0,0.0,0.0,0.0,0.0,0.0,0.0,0.0,0.0,0.0,0.0,0.0,0.0,0.0,0.0,0.0,0.0,0.0,0.0,0.0,0.0,0.0,0.0,0.0,0.0,0.0,0.0,0.0,0.0,0.0,0.0,0.0,0.0,0.0,0.0,0.0,0.0,0.0,0.0,0.0,0.0,0.0,0.0,0.0,0.0,0.0,0.0,0.0,0.0,0.0,0.0,0.0,0.0,0.0,0.0,0.0,0.0,0.0,0.0,0.0,0.0,0.0,0.0,0.0,0.0,0.0,0.0,0.0,0.0,0.0,0.0,0.0,0.0,0.0,0.0,0.0,0.0,0.0,0.0,0.0,0.0,0.0,0.0,0.0,0.0,0.0,0.0,0.0,0.0,0.0,0.0,0.0,0.0,0.0,0.0,0.0,0.0,0.0,0.0,0.0,0.0,0.0,0.0,0.0,0.0,0.0,0.0,0.0,0.0,0.0,0.0,0.0,0.0,0.0,0.0,0.0,0.0,0.0,0.0,0.0,0.0,0.0,0.0,0.0,0.0,0.0,0.0,0.0,0.0,0.0,0.0,0.0,0.0,0.0,0.0,0.0,0.0,0.0,0.0,0.0,0.0,0.0,0.0,0.0,0.0,0.0,0.0,0.0,0.0,0.0,0.0,0.0,0.0,0.0,0.0,0.0,0.0,0.0,0.0,0.0,0.0,0.0,0.0,0.0,0.0,0.0,0.0,0.0,0.0,0.0,0.0,0.0,0.0,0.0,0.0,0.0,0.0,0.0,0.0,0.0,0.0,0.0,0.0,0.0,0.0,0.0,0.0,0.0,0.0,0.0,0.0,0.0,0.0,0.0,0.0,0.0,0.0,0.0,0.0,0.0,0.0,0.0,0.0,0.0,0.0,0.0,0.0,0.0,0.0,0.0,0.0,0.0,0.0,0.0,0.0,0.0,0.0,0.0,0.0,0.0,0.0,0.0,0.0,0.0,0.0,0.0,0.0,0.0,0.0,0.0,0.0,0.0,0.0,0.0,0.0,0.0,0.0,0.0,0.0,0.0,0.0,0.0,0.0,0.0,0.0,0.0,0.0,0.0,0.0,0.0,0.0,0.0,0.0,0.0,0.0,0.0,0.0,0.0,0.0,0.0,0.0,0.0,0.0,0.0,0.0,0.0,0.0,0.0,0.0,0.0,0.0,0.0,0.0,0.0,0.0,0.0,0.0,0.0,0.0,0.0,0.0,0.0,0.0,0.0,0.0,0.0,0.0,0.0,0.0,0.0,0.0,0.0,0.0,0.0,0.0,0.0,0.0,0.0,0.0,0.0,0.0,0.0,0.0,0.0,0.0,0.0,0.0,0.0,0.0,0.0,0.0,0.0,0.0,0.0,0.0,0.0,0.0,0.0,0.0,0.0,0.0,0.0,0.0,0.0,0.0,0.0,0.0,0.0,0.0,0.0,0.0,0.0,0.0,0.201,0.0,0.0,0.0,0.0,0.0,0.0,0.0,0.0,0.0,0.0,0.0,0.0,0.0,0.0,0.0,0.0,0.0,0.0,0.0,0.0,0.0,0.0,0.0,0.0,0.0,0.0,0.0,0.0,0.0,0.0,0.0,0.0,0.0,0.0,0.0,0.0,0.0,0.0,0.0,0.0,0.0,0.0,0.0,0.0,0.0,0.0,0.0,0.0,0.0,0.0,0.0,0.0,0.0,0.0,0.0,0.0,0.0,0.0,0.0,0.0,0.0,0.0,0.0,0.0,0.0,0.0,0.0,0.0,0.0,0.0,0.0,0.0,0.0,0.0,0.0,0.0,0.0,0.0,0.0,0.0,0.0,0.0,0.0,0.0,0.0,0.0,0.0,0.0,0.0,0.0,0.0,0.0,0.0,0.0,0.0,0.0,0.0,0.0,0.0,0.0,0.0,0.0,0.0,0.0,0.0,0.0,0.0,0.0,0.0,0.0,0.2149,0.221,0.2342,0.2332,0.2122,0.0,0.0,0.0,0.0,0.0,0.0,0.0,0.0,0.0,0.0,0.0,0.0,0.0,0.0,0.0,0.0,0.0,0.0,0.0,0.0,0.0,0.0,0.0,0.0,0.0,0.0,0.0,0.0,0.0,0.0,0.0,0.0,0.0,0.0,0.0,0.0,0.0,0.0,0.0,0.0,0.0,0.0,0.0,0.0,0.0,0.0,0.0,0.0,0.0,0.0,0.0,0.0,0.0,0.0,0.0,0.0,0.0,0.0,0.0,0.0,0.0,0.0,0.0,0.0,0.0,0.0,0.0,0.0,0.0,0.0,0.0,0.0,0.0,0.0,0.0,0.0,0.0,0.0,0.0,0.0,0.0,0.0,0.0,0.0,0.0,0.0,0.0,0.0,0.0,0.0,0.0,0.0,0.0,0.0,0.0,0.0,0.0,0.0,0.0,0.0,0.0,0.0,0.0,0.0,0.0,0.0,0.0,0.0,0.0,0.0,0.0,0.0,0.2729,0.2729,0.2517,0.0,0.0,0.0,0.0,0.0,0.0,0.0,0.0,0.0,0.0,0.0,0.0,0.0,0.0,0.0,0.0,0.0,0.0,0.0,0.0,0.0,0.0,0.0,0.0,0.0,0.0,0.0,0.0,0.0,0.0,0.0,0.0,0.0,0.0,0.0,0.0,0.0,0.0,0.0,0.0,0.0,0.0,0.0,0.0,0.0,0.0,0.0,0.0,0.0,0.0,0.0,0.0,0.0,0.0,0.0,0.0,0.0,0.0,0.0,0.0,0.0,0.0,0.0,0.0,0.0,0.0,0.0,0.0,0.0,0.0,0.0,0.0,0.0,0.0,0.0,0.0,0.0,0.0,0.0,0.0,0.0,0.0,0.0,0.0,0.0,0.0,0.0,0.0,0.0,0.0,0.0,0.0,0.0,0.0,0.0,0.0,0.0,0.0,0.0,0.0,0.0,0.0,0.0,0.0,0.0,0.0,0.0,0.0,0.0,0.0,0.2383,0.2758,0.3301,0.0,0.3361,0.0,0.0,0.0,0.0,0.0,0.0,0.0,0.0,0.0,0.0,0.0,0.0,0.0,0.0,0.0,0.0,0.0,0.0,0.0,0.0,0.0,0.0,0.0,0.0,0.0,0.0,0.0,0.0,0.0,0.0,0.0,0.0,0.0,0.0,0.0,0.0,0.0,0.0,0.0,0.0,0.0,0.0,0.0,0.0,0.0,0.0,0.0,0.0,0.0,0.0,0.0,0.0,0.0,0.0,0.0,0.0,0.0,0.0,0.0,0.0,0.0,0.0,0.0,0.0,0.0,0.0,0.0,0.0,0.0,0.0,0.0,0.0,0.0,0.0,0.0,0.0,0.0,0.0,0.0,0.0,0.0,0.0,0.0,0.0,0.0,0.0,0.0,0.0,0.0,0.0,0.0,0.0,0.0,0.0,0.0,0.0,0.0,0.0,0.0,0.0,0.0,0.0,0.0,0.0,0.0,0.0,0.0,0.0,0.0,0.0,0.0,0.2906,0.3084,0.3107,0.0,0.0,0.0,0.0,0.0,0.0,0.0,0.0,0.0,0.0,0.0,0.0,0.0,0.0,0.0,0.0,0.0,0.0,0.0,0.0,0.0,0.0,0.0,0.0,0.0,0.0,0.0,0.0,0.0,0.0,0.0,0.0,0.0,0.0,0.0,0.0,0.0,0.0,0.0,0.0,0.0,0.0,0.0,0.0,0.0,0.0,0.0,0.0,0.0,0.0,0.0,0.0,0.0,0.0,0.0,0.0,0.0,0.0,0.0,0.0,0.0,0.0,0.0,0.0,0.0,0.0,0.0,0.0,0.0,0.0,0.0,0.0,0.0,0.0,0.0,0.0,0.0,0.0,0.0,0.0,0.0,0.0,0.0,0.0,0.0,0.0,0.0,0.0,0.0,0.0,0.0,0.0,0.0,0.0,0.0,0.0,0.0,0.0,0.0,0.0,0.0,0.0,0.0,0.0,0.0,0.0,0.0,0.0,0.0,0.0,0.2729,0.0,0.325,0.2857,0.2663,0.2713,0.0,0.0,0.0,0.0,0.0,0.0,0.0,0.0,0.0,0.0,0.0,0.0,0.0,0.0,0.0,0.0,0.0,0.0,0.0,0.0,0.0,0.0,0.0,0.0,0.0,0.0,0.0,0.0,0.0,0.0,0.0,0.0,0.0,0.0,0.0,0.0,0.0,0.0,0.0,0.0,0.0,0.0,0.0,0.0,0.0,0.0,0.0,0.0,0.0,0.0,0.0,0.0,0.0,0.0,0.0,0.0,0.0,0.0,0.0,0.0,0.0,0.0,0.0,0.0,0.0,0.0,0.0,0.0,0.0,0.0,0.0,0.0,0.0,0.0,0.0,0.0,0.0,0.0,0.0,0.0,0.0,0.0,0.0,0.0,0.0,0.0,0.0,0.0,0.0,0.0,0.0,0.0,0.0,0.0,0.0,0.0,0.0,0.0,0.0,0.0,0.0,0.0,0.0,0.0,0.0,0.0,0.0,0.0,0.0,0.3193,0.3328,0.3995,0.2864,0.2459,0.0,0.0,0.0,0.0,0.0,0.0,0.0,0.0,0.0,0.0,0.0,0.0,0.0,0.0,0.0,0.0,0.0,0.0,0.0,0.0,0.0,0.0,0.0,0.0,0.0,0.0,0.0,0.0,0.0,0.0,0.0,0.0,0.0,0.0,0.0,0.0,0.0,0.0,0.0,0.0,0.0,0.0,0.0,0.0,0.0,0.0,0.0,0.0,0.0,0.0,0.0,0.0,0.0,0.0,0.0,0.0,0.0,0.0,0.0,0.0,0.0,0.0,0.0,0.0,0.0,0.0,0.0,0.0,0.0,0.0,0.0,0.0,0.0,0.0,0.0,0.0,0.0,0.0,0.0,0.0,0.0,0.0,0.0,0.0,0.0,0.0,0.0,0.0,0.0,0.0,0.0,0.0,0.0,0.0,0.0,0.0,0.0,0.0,0.0,0.0,0.0,0.0,0.0,0.0,0.0,0.0,0.0,0.0,0.0,0.2729,0.2825,0.3275,0.0,0.3046,0.2553,0.0,0.0,0.0,0.0,0.0,0.0,0.0,0.0,0.0,0.0,0.0,0.0,0.0,0.0,0.0,0.0,0.0,0.0,0.0,0.0,0.0,0.0,0.0,0.0,0.0,0.0,0.0,0.0,0.0,0.0,0.0,0.0,0.0,0.0,0.0,0.0,0.0,0.0,0.0,0.0,0.0,0.0,0.0,0.0,0.0,0.0,0.0,0.0,0.0,0.0,0.0,0.0,0.0,0.0,0.0,0.0,0.0,0.0,0.0,0.0,0.0,0.0,0.0,0.0,0.0,0.0,0.0,0.0,0.0,0.0,0.0,0.0,0.0,0.0,0.0,0.0,0.0,0.0,0.0,0.0,0.0,0.0,0.0,0.0,0.0,0.0,0.0,0.0,0.0,0.0,0.0,0.0,0.0,0.0,0.0,0.0,0.0,0.0,0.0,0.0,0.0,0.0,0.0,0.0,0.0,0.0,0.0,0.0,0.0,0.2741,0.0,0.3462,0.0,0.2989,0.2385,0.0,0.0,0.0,0.0,0.0,0.0,0.0,0.0,0.0,0.0,0.0,0.0,0.0,0.0,0.0,0.0,0.0,0.0,0.0,0.0,0.0,0.0,0.0,0.0,0.0,0.0,0.0,0.0,0.0,0.0,0.0,0.0,0.0,0.0,0.0,0.0,0.0,0.0,0.0,0.0,0.0,0.0,0.0,0.0,0.0,0.0,0.0,0.0,0.0,0.0,0.0,0.0,0.0,0.0,0.0,0.0,0.0,0.0,0.0,0.0,0.0,0.0,0.0,0.0,0.0,0.0,0.0,0.0,0.0,0.0,0.0,0.0,0.0,0.0,0.0,0.0,0.0,0.0,0.0,0.0,0.0,0.0,0.0,0.0,0.0,0.0,0.0,0.0,0.0,0.0,0.0,0.0,0.0,0.0,0.0,0.0,0.0,0.0,0.0,0.0,0.0,0.0,0.0,0.0,0.0,0.0,0.0,0.0,0.3032,0.3844,0.3878,0.3874,0.3875,0.2694,0.1973,0.0,0.0,0.0,0.0,0.0,0.0,0.0,0.0,0.0,0.0,0.0,0.0,0.0,0.0,0.0,0.0,0.0,0.0,0.0,0.0,0.0,0.0,0.0,0.0,0.0,0.0,0.0,0.0,0.0,0.0,0.0,0.0,0.0,0.0,0.0,0.0,0.0,0.0,0.0,0.0,0.0,0.0,0.0,0.0,0.0,0.0,0.0,0.0,0.0,0.0,0.0,0.0,0.0,0.0,0.0,0.0,0.0,0.0,0.0,0.0,0.0,0.0,0.0,0.0,0.0,0.0,0.0,0.0,0.0,0.0,0.0,0.0,0.0,0.0,0.0,0.0,0.0,0.0,0.0,0.0,0.0,0.0,0.0,0.0,0.0,0.0,0.0,0.0,0.0,0.0,0.0,0.0,0.0,0.0,0.0,0.0,0.0,0.0,0.0,0.0,0.0,0.0,0.0,0.0,0.0,0.0,0.0,0.0,0.0,0.3633,0.3807,0.3865,0.3737,0.2893,0.2377,0.0,0.0,0.0,0.0,0.0,0.0,0.0,0.0,0.0,0.0,0.0,0.0,0.0,0.0,0.0,0.0,0.0,0.0,0.0,0.0,0.0,0.0,0.0,0.0,0.0,0.0,0.0,0.0,0.0,0.0,0.0,0.0,0.0,0.0,0.0,0.0,0.0,0.0,0.0,0.0,0.0,0.0,0.0,0.0,0.0,0.0,0.0,0.0,0.0,0.0,0.0,0.0,0.0,0.0,0.0,0.0,0.0,0.0,0.0,0.0,0.0,0.0,0.0,0.0,0.0,0.0,0.0,0.0,0.0,0.0,0.0,0.0,0.0,0.0,0.0,0.0,0.0,0.0,0.0,0.0,0.0,0.0,0.0,0.0,0.0,0.0,0.0,0.0,0.0,0.0,0.0,0.0,0.0,0.0,0.0,0.0,0.0,0.0,0.0,0.0,0.0,0.0,0.0,0.0,0.0,0.0,0.0,0.0,0.0,0.3966,0.4487,0.4575,0.4126,0.3391,0.2801,0.2391,0.0,0.0,0.0,0.0,0.0,0.0,0.0,0.0,0.0,0.0,0.0,0.0,0.0,0.0,0.0,0.0,0.0,0.0,0.0,0.0,0.0,0.0,0.0,0.0,0.0,0.0,0.0,0.0,0.0,0.0,0.0,0.0,0.0,0.0,0.0,0.0,0.0,0.0,0.0,0.0,0.0,0.0,0.0,0.0,0.0,0.0,0.0,0.0,0.0,0.0,0.0,0.0,0.0,0.0,0.0,0.0,0.0,0.0,0.0,0.0,0.0,0.0,0.0,0.0,0.0,0.0,0.0,0.0,0.0,0.0,0.0,0.0,0.0,0.0,0.0,0.0,0.0,0.0,0.0,0.0,0.0,0.0,0.0,0.0,0.0,0.0,0.0,0.0,0.0,0.0,0.0,0.0,0.0,0.0,0.0,0.0,0.0,0.0,0.0,0.0,0.0,0.0,0.0,0.0,0.0,0.0,0.0,0.0,0.466,0.573,0.5775,0.4712,0.4023,0.3137,0.0,0.0,0.0,0.0,0.0,0.0,0.0,0.0,0.0,0.0,0.0,0.0,0.0,0.0,0.0,0.0,0.0,0.0,0.0,0.0,0.0,0.0,0.0,0.0,0.0,0.0,0.0,0.0,0.0,0.0,0.0,0.0,0.0,0.0,0.0,0.0,0.0,0.0,0.0,0.0,0.0,0.0,0.0,0.0,0.0,0.0,0.0,0.0,0.0,0.0,0.0,0.0,0.0,0.0,0.0,0.0,0.0,0.0,0.0,0.0,0.0,0.0,0.0,0.0,0.0,0.0,0.0,0.0,0.0,0.0,0.0,0.0,0.0,0.0,0.0,0.0,0.0,0.0,0.0,0.0,0.0,0.0,0.0,0.0,0.0,0.0,0.0,0.0,0.0,0.0,0.0,0.0,0.0,0.0,0.0,0.0,0.0,0.0,0.0,0.0,0.0,0.0,0.0,0.0,0.0,0.0,0.0,0.0,0.0,0.5313,0.5945,0.548,0.3767,0.349,0.2961,0.0,0.0,0.0,0.0,0.0,0.0,0.0,0.0,0.0,0.0,0.0,0.0,0.0,0.0,0.0,0.0,0.0,0.0,0.0,0.0,0.0,0.0,0.0,0.0,0.0,0.0,0.0,0.0,0.0,0.0,0.0,0.0,0.0,0.0,0.0,0.0,0.0,0.0,0.0,0.0,0.0,0.0,0.0,0.0,0.0,0.0,0.0,0.0,0.0,0.0,0.0,0.0,0.0,0.0,0.0,0.0,0.0,0.0,0.0,0.0,0.0,0.0,0.0,0.0,0.0,0.0,0.0,0.0,0.0,0.0,0.0,0.0,0.0,0.0,0.0,0.0,0.0,0.0,0.0,0.0,0.0,0.0,0.0,0.0,0.0,0.0,0.0,0.0,0.0,0.0,0.0,0.0,0.0,0.0,0.0,0.0,0.0,0.0,0.0,0.0,0.0,0.0,0.0,0.0,0.0,0.0,0.0,0.0,0.5645,0.5201,0.5385,0.4651,0.2874,0.2953,0.2532,0.0,0.0,0.0,0.0,0.0,0.0,0.0,0.0,0.0,0.0,0.0,0.0,0.0,0.0,0.0,0.0,0.0,0.0,0.0,0.0,0.0,0.0,0.0,0.0,0.0,0.0,0.0,0.0,0.0,0.0,0.0,0.0,0.0,0.0,0.0,0.0,0.0,0.0,0.0,0.0,0.0,0.0,0.0,0.0,0.0,0.0,0.0,0.0,0.0,0.0,0.0,0.0,0.0,0.0,0.0,0.0,0.0,0.0,0.0,0.0,0.0,0.0,0.0,0.0,0.0,0.0,0.0,0.0,0.0,0.0,0.0,0.0,0.0,0.0,0.0,0.0,0.0,0.0,0.0,0.0,0.0,0.0,0.0,0.0,0.0,0.0,0.0,0.0,0.0,0.0,0.0,0.0,0.0,0.0,0.0,0.0,0.0,0.0,0.0,0.0,0.0,0.0,0.0,0.0,0.0,0.0,0.0,0.0,0.5209,0.463,0.4403,0.3575,0.2166,0.2361,0.1969,0.0,0.0,0.0,0.0,0.0,0.0,0.0,0.0,0.0,0.0,0.0,0.0,0.0,0.0,0.0,0.0,0.0,0.0,0.0,0.0,0.0,0.0,0.0,0.0,0.0,0.0,0.0,0.0,0.0,0.0,0.0,0.0,0.0,0.0,0.0,0.0,0.0,0.0,0.0,0.0,0.0,0.0,0.0,0.0,0.0,0.0,0.0,0.0,0.0,0.0,0.0,0.0,0.0,0.0,0.0,0.0,0.0,0.0,0.0,0.0,0.0,0.0,0.0,0.0,0.0,0.0,0.0,0.0,0.0,0.0,0.0,0.0,0.0,0.0,0.0,0.0,0.0,0.0,0.0,0.0,0.0,0.0,0.0,0.0,0.0,0.0,0.0,0.0,0.0,0.0,0.0,0.0,0.0,0.0,0.0,0.0,0.0,0.0,0.0,0.0,0.0,0.0,0.0,0.0,0.0,0.0,0.0,0.0,0.4824,0.3507,0.3513,0.2828,0.1395,0.1627,0.141,0.0,0.0,0.0,0.0,0.0,0.0,0.0,0.0,0.0,0.0,0.0,0.0,0.0,0.0,0.0,0.0,0.0,0.0,0.0,0.0,0.0,0.0,0.0,0.0,0.0,0.0,0.0,0.0,0.0,0.0,0.0,0.0,0.0,0.0,0.0,0.0,0.0,0.0,0.0,0.0,0.0,0.0,0.0,0.0,0.0,0.0,0.0,0.0,-0.0993,0.0,0.0,0.0,0.0,0.0,0.0,0.0,0.0,0.0,0.0,0.0,0.0,0.0,0.0,0.0,0.0,0.0,0.0,0.0,0.0,0.0,0.0,0.0,0.0,0.0,0.0,0.0,0.0,0.0,0.0,0.0,0.0,0.0,0.0,0.0,0.0,0.0,0.0,0.0,0.0,0.0,0.0,0.0,0.0,0.0,0.0,0.0,0.0,0.0,0.0,0.0,0.0,0.0,0.0,0.0,0.0,0.0,0.0,0.0,0.3815,0.3336,0.2654,0.1892,0.114,0.094,0.0658,0.0,0.0,0.0,0.0,0.0,0.0,0.0,0.0,0.0,0.0,0.0,0.0,0.0,0.0,0.0,0.0,0.0,0.0,0.0,0.0,0.0,0.0,0.0,0.0,0.0,0.0,0.0,0.0,0.0,0.0,0.0,0.0,0.0,0.0,0.0,0.0,0.0,0.0,0.0,0.0,0.0,0.0,0.0,0.0,0.0,0.0,0.0,0.0,0.0,0.0,0.0,0.0,0.0,0.0,0.0,0.0,0.0,0.0,0.0,0.0,0.0,0.0,0.0,0.0,0.0,0.0,0.0,0.0,0.0,0.0,0.0,0.0,0.0,0.0,0.0,0.0,0.0,0.0,0.0,0.0,0.0,0.0,0.0,0.0,0.0,0.0,0.0,0.0,0.0,0.0,0.0,0.0,0.0,0.0,0.0,0.0,0.0,0.0,0.0,0.0,0.0,0.0,0.0,0.0,0.0,0.0,0.0,0.2691,0.2496,0.2953,0.154,0.0726,0.0586,0.0105,-0.0164,-0.0178,0.0,0.0,0.0,0.0,0.0,0.0,0.0,0.0,0.0,0.0,0.0,0.0,0.0,0.0,0.0,0.0,0.0,0.0,0.0,0.0,0.0,0.0,0.0,0.0,0.0,0.0,0.0,0.0,0.0,0.0,0.0,0.0,0.0,0.0,0.0,0.0,0.0,0.0,-0.1416,-0.1645,0.0,0.0,0.0,0.0,0.0,0.0,0.0,0.0,-0.2122,0.0,0.0,0.0,0.0,0.0,0.0,0.0,0.0,0.0,0.0,0.0,0.0,0.0,0.0,0.0,0.0,0.0,0.0,0.0,0.0,0.0,0.0,0.0,0.0,0.0,0.0,0.0,0.0,0.0,0.0,0.0,0.0,0.0,0.0,0.0,0.0,0.0,0.0,0.0,0.0,0.0,0.0,0.0,0.0,0.0,0.0,0.0,0.0,0.0,0.0,0.0,0.0,0.0,0.0,0.0,0.0,0.2627,0.1869,0.1181,0.0598,-0.0276,-0.1028,-0.1614,-0.1177,-0.0915,-0.0887,0.0,0.0,0.0,0.0,0.0,0.0,0.0,0.0,0.0,0.0,0.0,0.0,0.0,0.0,0.0,0.0,0.0,0.0,0.0,0.0,0.0,0.0,0.0,0.0,0.0,0.0,0.0,0.0,0.0,0.0,0.0,0.0,0.0,0.0,0.0,0.0,0.0,0.0,0.0,-0.1913,-0.1967,0.0,0.0,0.0,0.0,0.0,0.0,0.0,0.0,-0.2727,0.0,0.0,0.0,0.0,0.0,0.0,0.0,0.0,0.0,0.0,0.0,0.0,0.0,0.0,0.0,0.0,0.0,0.0,0.0,0.0,0.0,0.0,0.0,0.0,0.0,0.0,0.0,0.0,0.0,0.0,0.0,0.0,0.0,0.0,0.0,0.0,0.0,0.0,0.0,0.0,0.0,0.0,0.0,0.0,0.0,0.0,0.0,0.0,0.0,0.0,0.0,0.0,0.0,0.0,0.0,0.1772,0.0789,0.0,-0.0579,-0.1306,-0.1836,-0.2171,-0.1489,-0.1101,0.0,0.0,0.0,0.0,0.0,0.0,0.0,0.0,0.0,0.0,0.0,0.0,0.0,0.0,0.0,0.0,0.0,0.0,0.0,0.0,0.0,0.0,0.0,0.0,0.0,0.0,0.0,0.0,0.0,0.0,0.0,0.0,0.0,0.0,0.0,0.0,0.0,0.0,0.0,0.0,-0.2235,-0.2321,-0.2754,0.0,0.0,0.0,0.0,0.0,0.0,-0.3019,-0.3216,0.0,0.0,0.0,0.0,0.0,0.0,0.0,0.0,0.0,0.0,0.0,0.0,0.0,0.0,0.0,0.0,0.0,0.0,0.0,0.0,0.0,0.0,0.0,0.0,0.0,0.0,0.0,0.0,0.0,0.0,0.0,0.0,0.0,0.0,0.0,0.0,0.0,0.0,0.0,0.0,0.0,0.0,0.0,0.0,0.0,0.0,0.0,0.0,0.0,0.0,0.0,0.0,0.0,0.0,0.0,0.0863,-0.031,-0.1124,-0.1545,-0.2282,-0.2649,-0.2643,-0.1802,-0.1313,0.0,0.0,0.0,0.0,0.0,0.0,0.0,0.0,0.0,0.0,0.0,0.0,0.0,0.0,0.0,0.0,0.0,0.0,0.0,0.0,0.0,0.0,0.0,0.0,0.0,0.0,0.0,0.0,0.0,0.0,0.0,0.0,0.0,0.0,0.0,0.0,0.0,0.0,0.0,0.0,0.0,-0.2627,-0.2974,-0.2757,0.0,0.0,0.0,0.0,-0.3517,-0.4108,0.0,0.0,0.0,0.0,0.0,0.0,0.0,0.0,0.0,0.0,0.0,0.0,0.0,0.0,0.0,0.0,0.0,0.0,0.0,0.0,0.0,0.0,0.0,0.0,0.0,0.0,0.0,0.0,0.0,0.0,0.0,0.0,0.0,0.0,0.0,0.0,0.0,0.0,0.0,0.0,0.0,0.0,0.0,0.0,0.0,0.0,0.0,0.0,0.0,0.0,0.0,0.0,0.0,0.0,0.0,0.0,-0.0446,-0.1244,-0.21,-0.3016,-0.3818,-0.4239,-0.4229,-0.283,-0.207,0.0,0.0,0.0,0.0,0.0,0.0,0.0,0.0,0.0,0.0,0.0,0.0,0.0,0.0,0.0,0.0,0.0,0.0,0.0,0.0,0.0,0.0,0.0,0.0,0.0,0.0,0.0,0.0,0.0,0.0,0.0,0.0,0.0,0.0,0.0,0.0,0.0,0.0,0.0,0.0,0.0,-0.2567,-0.272,-0.2723,-0.2546,0.0,0.0,-0.4562,-0.5856,-0.6142,0.0,0.0,0.0,0.0,0.0,0.0,0.0,0.0,0.0,0.0,0.0,0.0,0.0,0.0,0.0,0.0,0.0,0.0,0.0,0.0,0.0,0.0,0.0,0.0,0.0,0.0,0.0,0.0,0.0,0.0,0.0,0.0,0.0,0.0,0.0,0.0,0.0,0.0,0.0,0.0,0.0,0.0,0.0,0.0,0.0,0.0,0.0,0.0,0.0,0.0,0.0,0.0,0.0,0.0,0.0,-0.0033,-0.1288,-0.1788,-0.2662,-0.3923,-0.3904,-0.3846,-0.3815,-0.2354,-0.159,0.0,0.0,0.0,0.0,0.0,0.0,0.0,0.0,0.0,0.0,0.0,0.0,0.0,0.0,0.0,0.0,0.0,0.0,0.0,0.0,0.0,0.0,0.0,0.0,0.0,0.0,0.0,0.0,0.0,0.0,0.0,0.0,0.0,0.0,0.0,0.0,0.0,0.0,0.0,0.0,0.0,0.0,-0.2867,-0.3008,0.0,0.0,0.0,-0.4453,-0.5001,0.0,0.0,0.0,0.0,0.0,0.0,0.0,0.0,0.0,0.0,0.0,0.0,0.0,0.0,0.0,0.0,0.0,0.0,0.0,0.0,0.0,0.0,0.0,0.0,0.0,0.0,0.0,0.0,0.0,0.0,0.0,0.0,0.0,0.0,0.0,0.0,0.0,0.0,0.0,0.0,0.0,0.0,0.0,0.0,0.0,0.0,0.0,0.0,0.0,0.0,0.0,0.0,0.0,0.0,0.0,0.0,0.0,-0.1876,-0.2301,-0.3148,-0.4432,-0.3959,-0.3649,-0.3586,-0.2331,0.0,0.0,0.0,0.0,0.0,0.0,0.0,0.0,0.0,0.0,0.0,0.0,0.0,0.0,0.0,0.0,0.0,0.0,0.0,0.0,0.0,0.0,0.0,0.0,0.0,0.0,0.0,-0.0007,0.0,0.0,0.0,0.0,0.0,0.0,0.0,0.0,0.0,0.0,0.0,0.0,0.0,0.0,-0.33,-0.3044,-0.3451,-0.3853,0.0,0.0,-0.4809,-0.4828,-0.7184,-0.801,0.0,0.0,0.0,0.0,0.0,0.0,0.0,0.0,0.0,0.0,0.0,0.0,0.0,0.0,0.0,0.0,0.0,0.0,0.0,0.0,0.0,0.0,0.0,0.0,0.0,0.0,0.0,0.0,0.0,0.0,0.0,0.0,0.0,0.0,0.0,0.0,0.0,0.0,0.0,0.0,0.0,0.0,0.0,0.0,0.0,0.0,0.0,0.0,0.0,0.0,0.0,0.0,0.0,0.0,0.0,-0.216,-0.2928,-0.3707,-0.446,-0.446,-0.4432,-0.4398,-0.3602,-0.2827,0.0,0.0,0.0,0.0,0.0,0.0,0.0,0.0,0.0,0.0,0.0,0.0,0.0,0.0,0.0,0.0,0.0,0.0,0.0,0.0,0.0,0.0,0.0,0.0,0.0,0.0,0.0,0.0,0.0,0.0,0.0,0.0,0.0,0.0,0.0,0.0,0.0,0.0,0.0,0.0,0.0,-0.3876,-0.3187,-0.4055,-0.4979,0.0,0.0,-0.6162,-0.6936,-0.8552,-0.8774,-0.6028,0.0,0.0,0.0,0.0,0.0,0.0,0.0,0.0,0.0,0.0,0.0,0.0,0.0,0.0,0.0,0.0,0.0,0.0,0.0,0.0,0.0,0.0,0.0,0.0,0.0,0.0,0.0,0.0,0.0,0.0,0.0,0.0,0.0,0.0,0.0,0.0,0.0,0.0,0.0,0.0,0.0,0.0,0.0,0.0,0.0,0.0,0.0,0.0,0.0,0.0,0.0,0.0,0.0,-0.1828,-0.3171,-0.3738,-0.4385,-0.5054,-0.469,-0.4223,-0.3763,-0.3027,-0.2386,0.0,0.0,0.0,0.0,0.0,0.0,0.0,0.0,0.0,0.0,0.0,0.0,0.0,0.0,0.0,0.0,0.0,0.0,0.0,0.0,0.0,0.0,0.0,0.0,0.0,0.0,0.0,0.0,-0.0086,-0.0029,-0.0111,0.0,0.0,0.0,0.0,0.0,0.0,0.0,0.0,0.0,0.0,-0.4213,-0.464,-0.4893,0.0,0.0,-0.6274,-0.6783,-0.7536,-0.8112,-0.8093,-0.7037,-0.6742,0.0,0.0,0.0,0.0,0.0,0.0,0.0,0.0,0.0,0.0,0.0,0.0,0.0,0.0,0.0,0.0,0.0,0.0,0.0,0.0,0.0,0.0,0.0,0.0,0.0,0.0,0.0,0.0,0.0,0.0,0.0,0.0,0.0,0.0,0.0,0.0,0.0,0.0,0.0,0.0,0.0,0.0,0.0,0.0,0.0,0.0,0.0,0.0,0.0,0.0,0.0,0.0,-0.2672,-0.391,-0.4665,-0.5307,-0.5814,-0.5121,-0.4488,-0.3972,-0.3247,-0.2631,0.0,0.0,0.0,0.0,0.0,0.0,0.0,0.0,0.0,0.0,0.0,0.0,0.0,0.0,0.0,0.0,0.0,0.0,0.0,0.0,0.0,0.0,0.0,0.0,0.0,0.0,0.0,0.0,-0.0143,-0.019,-0.0388,0.0,0.0,0.0,0.0,0.0,0.0,0.0,0.0,0.0,0.0,-0.4824,-0.5384,-0.5589,-0.5946,-0.6605,-0.6731,-0.7067,-0.7983,-0.8203,-0.8179,-0.8013,0.0,0.0,0.0,0.0,0.0,0.0,0.0,0.0,0.0,0.0,0.0,0.0,0.0,0.0,0.0,0.0,0.0,0.0,0.0,0.0,0.0,0.0,0.0,0.0,0.0,0.0,0.0,0.0,0.0,0.0,0.2155,0.0,0.0,0.0,0.0,0.0,0.0,0.0,0.0,0.0,0.0,0.0,0.0,0.0,0.0,0.0,0.0,0.0,0.0,0.0,0.0,0.0,0.0,0.0,-0.4209,-0.5736,-0.6556,-0.6556,-0.5846,-0.5456,-0.5401,-0.4776,-0.4056,-0.3266,0.0,0.0,0.0,0.0,0.0,0.0,0.0,0.0,0.0,0.0,0.0,0.0,0.0,0.0,0.0,0.0,0.0,0.0,0.0,0.0,0.0,0.0,0.0,0.0,0.0,0.0,-0.0309,-0.0322,-0.0521,0.0,0.0,0.0,0.0,0.0,0.0,0.0,0.0,0.0,0.0,-0.5384,-0.5719,-0.5096,-0.616,-0.7212,-0.7806,-0.7173,-0.7119,-0.8526,-0.9228,-0.9462,0.0,0.0,0.0,0.0,0.0,0.0,0.0,0.0,0.0,0.0,0.0,0.0,0.0,0.0,0.0,0.0,0.0,0.0,0.0,0.0,0.0,0.0,0.0,0.0,0.0,0.0,0.0,0.275,0.2644,0.0,0.0,0.0,0.0,0.0,0.0,0.0,0.0,0.0,0.0,0.0,-0.3238,-0.3574,0.0,0.0,0.0,0.0,0.0,0.0,0.0,0.0,0.0,0.0,0.0,0.0,-0.4526,-0.5218,-0.6588,-0.7343,-0.7316,-0.6605,-0.6009,-0.5511,-0.4842,-0.4121,-0.3334,0.0,0.0,0.0,0.0,0.0,0.0,0.0,0.0,0.0,0.0,0.0,0.0,0.0,0.0,0.0,0.0,0.0,0.0,0.0,0.0,0.0,0.0,0.0,0.0,0.0,-0.1014,0.0,0.0,0.0,0.0,0.0,0.0,0.0,0.0,0.0,0.0,0.0,-0.4227,-0.5083,-0.5672,-0.6361,-0.7364,-0.7325,-0.7741,0.0,0.0,0.0,0.0,0.0,0.0,0.0,0.0,0.0,0.0,0.0,0.0,0.0,0.0,-1.2678,-0.7633,-0.8846,-1.0873,-1.1468,0.0,0.0,0.0,0.0,0.0,0.0,0.0,0.0,0.0,0.0,0.0,0.0,0.0,0.0,0.2469,0.0,0.2047,0.0,0.0,0.0,0.0,0.0,0.0,0.0,0.0,-0.4182,-0.4843,-0.5389,-0.5871,-0.6066,0.0,-0.6135,-0.5468,0.0,0.0,0.0,0.0,0.0,0.0,0.0,0.0,-0.5238,-0.6015,-0.7362,-0.8076,-0.8049,-0.7101,-0.6367,-0.5869,-0.4979,-0.4271,-0.3736,-0.3221,-0.2616,0.0,0.0,0.0,0.0,0.0,0.0,0.0,0.0,0.0,0.0,0.0,0.0,0.0,0.0,0.0,0.0,0.0,0.0,0.0,0.0,0.0,0.0,0.0,-0.1661,0.0,0.0,0.0,0.0,0.0,0.0,0.0,0.0,0.0,-0.4045,-0.4619,-0.5329,-0.6035,-0.6401,-0.7193,-0.8853,0.0,0.0,0.0,0.0,0.0,0.0,0.0,-1.0719,-1.2391,-1.1968,-1.1605,-1.2103,-1.1078,-1.1519,-1.5497,0.0,0.0,-1.1596,-1.175,-1.3341,-1.5445,-1.4773,-1.3959,-1.4296,-1.4323,-1.3818,0.0,0.0,0.0,0.0,0.0,0.0,0.0,0.0,0.1715,0.1688,0.0,0.1296,0.0,0.0,0.0,0.0,0.0,-0.3737,0.0,0.0,-0.6982,-0.7518,-0.7426,-0.8673,-0.9184,-0.8967,-0.892,-0.8691,-0.8144,-0.6258,0.0,0.0,0.0,0.0,0.0,0.0,-0.6028,-0.6653,-0.8039,-0.8778,-0.8725,-0.7369,-0.6615,-0.6561,-0.5277,-0.4567,-0.4494,-0.3861,-0.3413,-0.3262,-0.225,0.0,0.0,0.0,0.0,0.0,0.0,0.0,0.0,0.0,0.0,0.0,0.0,0.0,0.0,0.0,0.0,0.0,0.0,0.0,0.0,-0.2998,0.0,0.0,0.0,0.0,0.0,0.0,0.0,0.0,0.0,0.0,-0.5883,-0.5998,-0.6423,-0.7199,0.0,0.0,0.0,0.0,-0.9778,-1.0822,-1.0415,-1.0431,-1.1618,-1.1784,-1.2358,-1.3902,0.0,0.0,-1.2786,-1.3911,-1.5099,-1.5734,-1.8013,-1.9078,-1.6916,-1.4507,-1.4442,-1.8597,-1.7646,-1.6014,-1.5702,-1.614,-1.639,0.2597,0.0,0.0,0.0,0.0,0.0814,0.05,0.0022,0.0022,-0.0022,-0.0171,-0.0784,0.0,0.0,0.0,0.0,0.0,0.0,-0.6599,-0.8056,-0.8569,-0.9152,-0.9776,-1.0192,-1.0342,-1.027,-1.0253,-1.0173,-1.0037,-0.9485,-0.7734,-0.4949,0.0,0.0,0.0,0.0,-0.6831,-0.7276,-0.827,-0.8778,-0.8778,-0.7889,-0.7128,-0.6588,-0.6209,-0.5737,-0.5242,-0.5022,-0.4422,-0.342,-0.3049,0.0,0.0,0.0,0.0,0.0,0.0,0.0,0.0,0.0,0.0,0.0,0.0,0.0,0.0,0.0,0.0,0.0,0.0,0.0,-0.3685,-0.3876,-0.395,0.0,0.0,0.0,0.0,0.0,0.0,0.0,0.0,0.0,-0.893,-0.861,-0.828,0.0,0.0,-0.9104,-0.8668,-0.948,-1.0616,-1.1982,0.0,0.0,0.0,-1.3696,-1.4325,-1.5541,-1.6421,-1.6714,-1.6008,-1.6618,-1.7347,-1.7874,-1.9416,-2.0208,-1.9045,-1.8209,-1.8355,-2.0089,-1.9842,-1.939,-1.9728,-1.9913,-2.0098,0.1209,0.1041,0.1408,0.0824,-0.0358,-0.0773,-0.1422,-0.2148,-0.215,-0.2223,-0.2323,-0.275,-0.3409,-0.4223,-0.5267,0.0,0.0,0.0,-0.8396,-0.9785,-1.0139,-1.0762,-1.1589,-1.1846,-1.1994,-1.1969,-1.1722,-1.1607,-1.1609,-1.0955,-0.9578,-0.7467,0.0,0.0,-0.6366,-0.7434,-0.8005,-0.8083,-0.8798,-0.9054,-0.8811,-0.8076,-0.7343,-0.6615,-0.6588,-0.6394,-0.595,-0.5923,-0.5553,-0.4715,-0.4501,-0.3784,0.0,0.0,0.0,0.0,0.0,0.0,0.0,0.0,0.0,0.0,0.0,-0.2752,0.0,0.0,0.0,0.0,-0.3945,-0.5479,-0.5053,-0.5216,0.0,0.0,0.0,0.0,0.0,0.0,0.0,-0.7082,-0.9149,-1.0704,-1.0982,-1.1274,-1.0917,-0.9487,-0.985,-1.0075,-0.9576,0.0,-1.1814,-1.3083,-1.3419,-1.3818,-1.4457,-1.5038,-1.5806,-1.6899,-1.7826,-1.819,-1.7747,-1.821,-1.8836,-1.9244,-1.9914,-2.0447,-2.0258,-2.0224,-2.0362,-2.0894,-2.115,-2.137,-2.1598,-2.1597,-2.1749,-0.08,-0.1352,-0.0187,-0.0491,-0.1757,-0.2383,-0.339,-0.4555,-0.4606,-0.466,-0.466,-0.4768,-0.5444,-0.6534,-0.7629,0.0,-0.9583,-0.9629,-1.0184,-1.1132,-1.1756,-1.237,-1.2956,-1.3558,-1.3886,-1.3839,-1.3239,-1.2948,-1.289,-1.1414,-1.0683,-1.0674,-1.0071,-0.9414,-0.873,-0.9264,-0.9401,-0.9073,-0.9532,-0.9465,-0.8804,-0.8156,-0.7477,-0.6831,-0.6777,-0.675,-0.6696,-0.6696,-0.6669,-0.66,-0.6234,-0.5613,-0.4714,0.0,0.0,0.0,0.0,0.0,0.0,0.0,0.0,0.0,0.0,0.0,0.0,0.0,0.0,0.0,-0.5017,0.0,-0.7195,-0.6912,0.0,0.0,0.0,-0.7819,-0.9155,-0.9366,-0.9343,-0.9232,0.0,0.0,-1.2459,0.0,-1.382,-1.1424,-1.1107,-1.1182,-1.14,-1.2318,-1.3362,-1.4378,-1.4698,-1.5017,-1.5389,-1.6139,-1.7049,-1.7946,-1.8612,-1.876,-1.8341,-1.8949,-1.9603,-1.9672,-1.9762,-1.9997,-2.078,-2.0861,-2.1039,-2.1118,-2.1736,-2.2135,-2.1794,-2.1703,-2.1823,-0.3748,-0.4382,-0.4641,-0.4334,-0.3776,-0.4472,-0.5273,-0.6095,-0.6608,-0.6833,-0.6913,-0.7973,-0.8892,-0.9717,-1.0454,-1.122,-1.1978,-1.2445,-1.3067,-1.3773,-1.3924,-1.4109,-1.4249,-1.4411,-1.4491,-1.4491,-1.4318,-1.4016,-1.3589,-1.3182,-1.2772,-1.2328,-1.2177,-1.1135,-0.9371,-0.9869,-1.0226,-1.0334,-0.998,-0.9484,-0.8831,-0.8619,-0.8454,-0.8262,-0.8268,-0.8023,-0.745,-0.745,-0.7182,-0.6637,-0.6517,-0.6349,-0.6099,-0.4917,0.0,0.0,0.0,0.0,0.0,0.0,0.0,0.0,0.0,-0.3886,-0.2658,0.0,-0.4794,0.0,-0.5621,-0.8199,-0.8841,-0.8839,0.0,0.0,-0.8901,-0.9493,-1.0914,-1.1583,-1.1686,-1.1046,-1.2833,-1.4462,-1.536,-1.5014,-1.448,-1.3844,-1.3773,-1.309,-1.1374,-1.3253,-1.5414,-1.6743,-1.6785,-1.6515,-1.6386,-1.7746,-1.8807,-1.8708,-1.9151,-1.9317,-1.8803,-1.9244,-1.9723,-1.9762,-2.026,-2.0465,-2.0139,-2.0515,-2.1229,-2.1827,-2.2166,-2.2282,-2.2135,-2.2137,-2.2166,-0.6238,-0.6955,-0.795,-0.7904,-0.7209,-0.731,-0.7793,-0.8495,-0.8874,-0.9023,-0.9127,-1.0487,-1.1455,-1.2137,-1.2768,-1.3257,-1.3656,-1.3984,-1.4354,-1.4698,-1.4709,-1.4835,-1.5096,-1.5107,-1.5107,-1.5096,-1.5096,-1.4789,-1.4213,-1.419,-1.4014,-1.3705,-1.3705,-1.2929,-1.1487,-1.148,-1.1421,-1.1258,-1.0585,-1.0064,-0.9718,-0.9684,-0.9424,-0.8887,-0.9228,-0.8773,-0.7437,-0.7763,-0.7535,-0.6657,-0.6593,-0.6896,-0.7488,-0.5993,-0.4736,0.0,0.0,0.0,0.0,0.0,0.0,0.0,0.0,0.0,0.0,0.0,-0.6601,-0.5027,-0.8182,-1.0031,-0.9361,-0.9876,-1.0324,-1.0495,-1.1135,-1.2042,-1.3292,-1.378,-1.3952,-1.3804,-1.4967,-1.6173,-1.7063,-1.6625,-1.6216,-1.6203,-1.6216,-1.5316,-1.3273,-1.4529,-1.6583,-1.843,-1.7985,-1.7423,-1.7401,-1.8703,-1.9603,-1.935,-1.9512,-1.9584,-1.9299,-1.9497,-1.9797,-2.0083,-2.0598,-2.0894,-2.0549,-2.0715,-2.1276,-2.202,-2.2313,-2.2313,-2.2313,-2.2313,-2.2313,-0.8547,-0.9328,-1.0581,-1.1129,-1.1187,-1.0589,-1.0596,-1.1048,-1.1149,-1.1224,-1.1374,-1.2522,-1.3338,-1.3869,-1.4515,-1.4812,-1.4835,-1.488,-1.4926,-1.4926,-1.4937,-1.5208,-1.5698,-1.572,-1.5698,-1.5698,-1.5698,-1.5387,-1.4823,-1.4812,-1.4778,-1.4709,-1.4709,-1.4445,-1.3909,-1.3372,-1.2696,-1.1814,-1.1208,-1.0889,-1.0813,-1.0747,-1.018,-0.9166,-0.9699,-0.9182,-0.7355,-0.7983,-0.7924,-0.6982,-0.6894,-0.7464,-0.8627,-0.7102,-0.6157,0.0,-0.5767,0.0,0.0,0.0,0.0,0.0,0.0,0.0,0.0,-0.7553,-0.7975,-0.8442,-1.1306,-1.219,-0.9923,-1.0868,-1.1952,-1.2644,-1.3718,-1.4776,-1.568,-1.5814,-1.6053,-1.6646,-1.7066,-1.7538,-1.819,-1.819,-1.8072,-1.7953,-1.7913,-1.7225,-1.5738,-1.613,-1.7498,-1.946,-1.8669,-1.8171,-1.8612,-1.9262,-1.969,-1.969,-1.9705,-1.9723,-1.969,-1.969,-1.9856,-2.0429,-2.0894,-2.1213,-2.1384,-2.1244,-2.1431,-2.2166,-2.2313,-2.2313,-2.231,-2.2349,-2.2349,-1.1363,-1.2085,-1.2801,-1.3439,-1.3939,-1.3822,-1.3192,-1.2387,-1.2907,-1.3446,-1.3971,-1.4215,-1.4411,-1.4572,-1.5163,-1.5454,-1.5454,-1.5942,-1.6173,-1.6151,-1.6151,-1.6216,-1.6337,-1.6337,-1.6324,-1.6337,-1.6337,-1.6008,-1.5454,-1.542,-1.5197,-1.4721,-1.4709,-1.4629,-1.4537,0.0,0.0,0.0,-1.1665,-1.1341,-1.0805,-1.0458,-1.0197,-0.9931,-0.9432,0.0,-0.8592,-0.8704,-0.868,-0.8491,-0.8454,0.0,0.0,0.0,0.0,0.0,0.0,0.0,0.0,0.0,0.0,0.0,-0.8048,-0.79,-0.7973,-0.8483,-0.9171,-1.0036,-1.2681,-1.3957,-1.3011,-1.359,-1.4272,-1.4842,-1.5538,-1.6202,-1.6826,-1.7307,-1.7679,-1.7773,-1.788,-1.8308,-1.9151,-1.865,-1.8131,-1.8151,-1.8092,-1.8052,-1.7886,-1.8084,-1.8731,-1.9515,-1.9384,-1.9314,-1.946,-1.9621,-1.9797,-1.9723,-1.9723,-1.9726,-1.9762,-1.9708,-1.9854,-2.0347,-2.1291,-2.1886,-2.1507,-2.1751,-2.2065,-2.2282,-2.2313,-2.2313,-2.2327,-2.2477,-2.2665,-1.3886,0.0,-1.5213,-1.5679,0.0,-1.6303,-1.6033,-1.5363,-1.4818,-1.494,-1.551,-1.5545,-1.5577,-1.5599,-1.592,-1.6051,-1.6051,-1.6358,-1.6513,-1.6513,-1.6513,-1.6513,-1.6513,-1.6513,-1.6513,-1.6513,-1.6513,-1.6358,-1.6051,-1.6064,-1.5886,-1.5611,-1.5589,-1.5444,-1.5141,-1.4824,-1.4063,-1.2817,-1.2506,-1.2187,-1.1832,-1.1652,-1.1211,-1.062,0.0,0.0,0.0,0.0,0.0,0.0,0.0,0.0,0.0,0.0,0.0,-1.0693,-1.0085,-0.9817,-1.0099,-1.0251,-1.0547,-1.1133,-1.1445,-1.1165,-1.0098,-1.0594,-1.1423,-1.248,-1.3892,-1.4583,-1.4306,-1.5039,-1.5652,-1.5944,-1.6726,-1.7362,-1.7632,-1.8137,-1.8458,-1.8419,-1.865,-1.9132,-1.9621,-1.9262,-1.8912,-1.8893,-1.8893,-1.893,-1.908,-1.8987,-1.9095,-1.9603,-1.9723,-1.9723,-1.9744,-2.012,-2.0243,-2.0087,-2.0191,-2.0328,-2.0345,-1.998,-1.9945,-2.0781,-2.1705,-2.218,-2.1959,-2.2106,-2.2313,-2.2313,-2.2313,-2.2363,-2.2463,-2.2612,-2.2708,-1.6009,-1.6625,-1.7339,-1.7629,-1.7677,-1.8284,-1.8595,-1.8563,0.0,0.0,0.0,-1.683,-1.6778,-1.6651,-1.6651,-1.6588,-1.6513,-1.6513,-1.6513,-1.6513,-1.6513,-1.6513,-1.6513,-1.6513,-1.6513,-1.6513,-1.6513,-1.6513,-1.6513,-1.6513,-1.6513,-1.6513,-1.6513,-1.6238,-1.5754,-1.5141,-1.4606,-1.4109,-1.3515,-1.321,-1.3224,-1.3034,-1.2449,-1.1404,-1.1763,-1.1179,-0.951,-1.0173,-1.0144,-0.9241,-0.9281,-0.9263,-0.9124,-1.0157,-1.1383,-1.2635,-1.2186,-1.212,-1.2819,-1.2883,-1.3181,-1.3903,-1.4422,-1.4059,-1.2482,-1.2888,-1.361,-1.464,-1.488,-1.5017,-1.4994,-1.5915,-1.6634,-1.6823,-1.7666,-1.8269,-1.84,-1.876,-1.8987,-1.8893,-1.9314,-1.9723,-1.969,-1.969,-1.9723,-1.969,-1.9617,-1.9747,-1.9732,-1.9391,-1.9299,-1.9818,-1.9833,-1.9747,-2.0067,-2.0482,-2.0813,-2.05,-2.0731,-2.0975,-2.0878,-2.0398,-2.0414,-2.1275,-2.1943,-2.224,-2.2313,-2.2282,-2.2324,-2.2363,-2.2405,-2.2494,-2.2712,-2.2848,-2.291,-1.7096,-1.7266,-1.8384,-1.8832,-1.8891,-1.9556,-2.0091,-2.0411,-1.9159,-1.8364,-1.7972,-1.849,-1.8193,-1.7285,-1.7262,-1.6986,-1.6513,-1.6513,-1.6513,0.0,-1.6513,-1.6513,-1.6513,-1.6513,-1.6513,-1.6513,-1.6513,-1.6513,-1.6513,-1.6513,-1.6513,-1.6513,-1.6513,-1.6445,-1.6337,-1.5776,-1.5432,-1.5343,-1.4744,-1.4456,-1.4433,-1.3551,-1.2983,-1.2782,-1.1704,-1.0984,-1.0687,-1.1338,-1.1599,-1.1454,-1.1931,-1.2513,-1.3174,-1.3001,-1.3376,-1.4272,-1.4261,-1.4261,-1.4395,-1.4383,-1.4439,-1.4549,-1.4652,-1.4562,-1.436,-1.4391,-1.4525,-1.4721,-1.5666,-1.6225,-1.6219,-1.6807,-1.7531,-1.8352,-1.8669,-1.8949,-1.9369,-1.9479,-1.953,-1.9512,-1.9621,-1.9723,-1.9723,-1.9723,-1.9708,-1.9708,-1.9833,-1.9839,-2.0072,-1.9859,-1.9856,-2.0258,-2.003,-2.0156,-2.078,-2.1023,-2.1039,-2.0926,-2.0975,-2.1103,-2.1118,-2.0959,-2.0991,-2.1368,-2.1945,-2.2254,-2.2313,-2.2313,-2.2388,-2.255,-2.2695,-2.2845,-2.3081,-2.3335,-2.3533,-1.9686,-1.9747,-2.0291,-2.0514,-2.0537,-2.085,-2.1093,-2.1329,-2.1134,-2.0512,-1.9741,-1.9953,-1.9629,-1.8853,-1.847,-1.8002,-1.7458,-1.7149,-1.681,-1.6513,-1.6513,-1.6513,-1.6513,-1.6513,-1.6513,-1.6513,-1.6513,-1.6513,-1.6513,-1.6513,-1.6513,-1.6513,-1.6513,-1.6513,-1.6479,-1.6216,-1.6095,-1.6073,-1.5175,-1.4709,-1.4698,-1.4225,-1.3979,-1.3945,-1.329,-1.2955,-1.2955,-1.3249,-1.3433,-1.3422,-1.369,-1.4032,-1.4395,-1.4424,-1.4645,-1.5173,-1.55,-1.5654,-1.563,-1.563,-1.575,-1.6068,-1.5842,-1.5798,-1.6089,-1.5219,-1.5096,-1.6015,-1.6891,-1.736,-1.7341,-1.7834,-1.8361,-1.8836,-1.9151,-1.9424,-1.9654,-1.9723,-1.9723,-1.9723,-1.9723,-1.9723,-1.9723,-1.9723,-1.9818,-1.9982,-2.0225,-2.0465,-2.0633,-2.0532,-2.0482,-2.0715,-2.0598,-2.0632,-2.1118,-2.1522,-2.1553,-2.1385,-2.1522,-2.166,-2.1706,-2.1706,-2.1751,-2.1871,-2.2137,-2.2268,-2.2313,-2.2313,-2.2412,-2.2621,-2.2802,-2.3002,-2.3387,-2.3724,-2.3937,-2.1697,-2.1697,-2.1862,-2.1993,-2.2118,-2.2118,-2.2118,-2.2179,-2.2665,-2.2384,-2.1566,-2.1366,-2.0918,-2.0265,-1.9737,-1.9235,-1.8669,-1.8065,-1.754,-1.7106,-1.6931,-1.6866,-1.6837,-1.6731,-1.6667,-1.6659,-1.6565,-1.6513,-1.6513,-1.6513,-1.6513,-1.6513,-1.6513,-1.6513,-1.6513,-1.6513,-1.6513,-1.6457,-1.5589,-1.5119,-1.5107,-1.4971,-1.4892,-1.4903,-1.4766,-1.4709,-1.4709,-1.4812,-1.4971,-1.5073,-1.5219,-1.5331,-1.5441,-1.5686,-1.5918,-1.6176,-1.6514,-1.6748,-1.6781,-1.6794,-1.6983,-1.7422,-1.7105,-1.7034,-1.7319,-1.6271,-1.6012,-1.7286,-1.8033,-1.8419,-1.8322,-1.8612,-1.893,-1.9076,-1.9457,-1.9672,-1.9708,-1.9723,-1.9723,-1.9708,-1.9782,-1.9854,-1.9839,-1.9927,-2.0139,-2.0465,-2.078,-2.1023,-2.1102,-2.1134,-2.115,-2.1229,-2.115,-2.1118,-2.126,-2.1827,-2.2063,-2.1794,-2.2032,-2.218,-2.224,-2.2268,-2.2299,-2.2268,-2.2282,-2.2313,-2.231,-2.2377,-2.2514,-2.2772,-2.2996,-2.3271,-2.3703,-2.3986,-2.417,-2.172,-2.1805,-2.2369,-2.2942,-2.3363,-2.3384,-2.3384,-2.3384,-2.3471,-2.3478,-2.32,-2.2788,-2.1897,-2.0903,-2.078,-2.0462,-1.9897,-1.9245,-1.8858,-1.8721,-1.8234,-1.7933,-1.7847,-1.7442,-1.7229,-1.718,-1.6774,-1.6586,-1.6565,-1.6522,-1.6513,-1.6513,-1.6513,-1.6513,-1.6513,-1.6513,-1.6513,-1.6513,-1.6392,-1.6349,-1.6315,-1.5798,-1.5521,-1.5521,-1.4983,-1.4709,-1.4766,-1.5231,-1.5752,-1.6241,-1.6723,-1.7244,-1.7639,-1.7511,-1.7511,-1.7794,-1.7632,-1.7626,-1.7894,-1.792,-1.7953,-1.8013,-1.7967,-1.7913,-1.8013,-1.784,-1.78,-1.8171,-1.8983,-1.9244,-1.8893,-1.8893,-1.9099,-1.9512,-1.9654,-1.9723,-1.9723,-1.9723,-1.9723,-1.9723,-1.9982,-2.0246,-2.0263,-2.0629,-2.0925,-2.115,-2.1247,-2.1389,-2.1622,-2.1683,-2.1724,-2.1903,-2.1539,-2.1432,-2.1932,-2.2211,-2.2268,-2.2209,-2.2254,-2.2313,-2.2313,-2.2313,-2.2313,-2.2313,-2.2313,-2.2313,-2.2349,-2.249,-2.2764,-2.3033,-2.3346,-2.3714,-2.4036,-2.4199,-2.4237,-2.2831,-2.2831,-2.312,-2.3377,-2.3595,-2.3595,-2.3595,-2.3595,-2.3595,-2.3595,-2.3573,-2.3319,-2.2937,-2.2468,-2.2126,-2.1672,-2.1104,-2.0069,-1.9398,-1.9058,-1.8388,-1.8092,-1.8086,-1.7874,-1.7767,-1.7767,-1.7544,-1.7291,-1.6972,-1.6659,-1.6513,-1.6513,-1.6513,-1.6513,-1.6513,-1.6513,-1.6513,-1.6513,-1.6513,-1.6513,-1.6479,-1.6259,-1.6117,-1.6095,-1.5888,-1.5744,-1.5788,-1.602,-1.6238,-1.6484,-1.7001,-1.7394,-1.7639,-1.7787,-1.7953,-1.8092,-1.8288,-1.8438,-1.8568,-1.8574,-1.8574,-1.8574,-1.8269,-1.821,-1.8516,-1.8269,-1.8341,-1.8987,-1.9442,-1.9603,-1.9387,-1.9369,-1.946,-1.9672,-1.9723,-1.9708,-1.9723,-1.9723,-1.9782,-2.0,-1.9982,-2.0176,-2.0712,-2.1472,-2.215,-2.2524,-2.2537,-2.2456,-2.2638,-2.2668,-2.2543,-2.231,-2.1959,-2.193,-2.224,-2.2313,-2.2313,-2.2313,-2.2313,-2.2313,-2.2313,-2.2313,-2.2313,-2.2313,-2.2313,-2.2313,-2.2313,-2.2527,-2.2792,-2.3189,-2.3682,-2.4075,-2.4348,-2.441,-2.4428,-2.3759,-2.361,-2.3595,-2.3595,-2.3595,-2.3595,-2.3595,-2.3595,-2.3595,-2.3595,-2.3595,-2.3595,-2.3595,-2.353,-2.3143,-2.2724,-2.2258,-2.1176,-2.0479,-2.0038,-1.9401,-1.9013,-1.8818,-1.8647,-1.8509,-1.8316,-1.8145,-1.7874,-1.7497,-1.6985,-1.6723,-1.671,-1.6573,-1.6513,-1.6513,-1.6513,-1.6513,-1.6513,-1.6513,-1.6513,-1.6513,-1.6513,-1.6573,-1.6689,-1.671,-1.6723,-1.671,-1.6731,-1.6795,-1.6951,-1.7456,-1.7807,-1.7953,-1.8341,-1.8535,-1.8574,-1.8893,-1.9114,-1.9118,-1.9114,-1.9118,-1.908,-1.8727,-1.8688,-1.8949,-1.8746,-1.8893,-1.953,-1.9723,-1.9708,-1.9723,-1.9723,-1.9723,-1.9723,-1.9723,-1.9744,-1.9839,-1.9871,-2.0052,-2.0382,-2.0365,-2.059,-2.1601,-2.2435,-2.3101,-2.3764,-2.3801,-2.3697,-2.3712,-2.368,-2.3479,-2.2987,-2.2922,-2.2719,-2.2431,-2.2313,-2.2313,-2.2313,-2.2313,-2.2313,-2.2313,-2.2313,-2.2313,-2.2313,-2.2313,-2.2391,-2.2494,-2.266,-2.3003,-2.3408,-2.3881,-2.4312,-2.4435,-2.4567,-2.4678,-2.4171,-2.364,-2.3595,-2.3595,-2.3595,-2.3595,-2.3595,-2.3595,-2.3595,-2.3595,-2.3595,-2.3595,-2.3595,-2.3595,-2.3508,-2.3537,-2.3381,-2.2742,-2.2387,-2.2239,-2.1694,-2.1168,-2.0563,-2.0079,-1.9492,-1.8936,-1.8472,-1.8171,-1.8033,-1.7517,-1.725,-1.7229,-1.6731,-1.6513,-1.6513,-1.6513,-1.6513,-1.6513,-1.6513,-1.6522,-1.6543,-1.6543,-1.6816,-1.725,-1.725,-1.7229,-1.725,-1.7271,-1.7463,-1.7993,-1.8477,-1.9001,-1.946,-1.9548,-1.9566,-1.9599,-1.9636,-1.9654,-1.9621,-1.9621,-1.9636,-1.9639,-1.9548,-1.9603,-1.9566,-1.953,-1.9548,-1.9705,-1.9723,-1.9723,-1.978,-1.9744,-1.9726,-1.9762,-1.9711,-1.9877,-2.0229,-2.0296,-2.0483,-2.0894,-2.1215,-2.1935,-2.3363,-2.3498,-2.384,-2.4378,-2.4492,-2.444,-2.4457,-2.4457,-2.4372,-2.4305,-2.4186,-2.3932,-2.2699,-2.2482,-2.2431,-2.2313,-2.2313,-2.2313,-2.2313,-2.2313,-2.2313,-2.2313,-2.2313,-2.2415,-2.2652,-2.3009,-2.3426,-2.3811,-2.4155,-2.4471,-2.4543,-2.4733,-2.4852,-2.4216,-2.361,-2.3595,-2.3595,-2.3595,-2.3595,-2.3595,-2.3595,-2.3595,-2.3595,-2.3595,-2.3595,-2.3595,-2.3595,-2.3595,-2.3595,-2.3535,-2.2987,-2.2703,-2.2628,-2.2029,-2.1575,-2.1301,-2.0704,-2.0302,-2.0003,-1.9426,-1.8949,-1.8516,-1.7727,-1.7312,-1.7209,-1.6752,-1.6513,-1.6513,-1.6513,-1.6513,-1.6513,-1.6513,-1.6659,-1.7013,-1.7353,-1.7801,-1.8243,-1.7646,-1.7463,-1.7807,-1.7827,-1.7927,-1.8092,-1.8626,-1.9001,-1.9188,-1.9515,-1.9723,-1.9723,-1.9723,-1.9723,-1.9723,-1.9723,-1.9723,-1.9723,-1.9723,-1.9723,-1.9723,-1.9723,-1.9723,-1.9723,-1.9723,-1.9836,-2.0102,-1.9942,-1.9818,-2.0035,-2.0089,-2.0261,-2.0616,-2.0748,-2.0878,-2.1341,-2.217,-2.3298,-2.4042,-2.456,-2.5101,-2.5709,-2.549,-2.5236,-2.5203,-2.522,-2.5067,-2.4745,-2.4847,-2.4746,-2.3492,-2.3122,-2.2919,-2.2482,-2.2313,-2.2313,-2.2313,-2.2313,-2.2313,-2.2377,-2.2349,-2.2517,-2.2815,-2.3265,-2.3703,-2.4039,-2.4393,-2.4586,-2.4662,-2.4852,-2.5018,-2.4201,-2.364,-2.3595,-2.3595,-2.3595,-2.3595,-2.3595,-2.3595,-2.3595,-2.3595,-2.3595,-2.3595,-2.3595,-2.3595,-2.3595,-2.3595,-2.3565,-2.3182,-2.3002,-2.2957,-2.2503,-2.2203,-2.1964,-2.1545,-2.1211,-2.0927,-2.0348,-1.9805,-1.9371,-1.8361,-1.7847,-1.7787,-1.7126,-1.6765,-1.6731,-1.6595,-1.6513,-1.6522,-1.668,-1.6964,-1.7333,-1.7841,-1.8361,-1.8722,-1.8171,-1.7987,-1.8341,-1.8347,-1.8361,-1.8438,-1.8874,-1.9169,-1.9207,-1.9497,-1.9723,-1.9723,-1.9723,-1.9723,-1.9723,-1.9723,-1.9723,-1.9723,-1.9723,-1.9723,-1.9723,-1.9723,-1.9723,-1.9744,-2.0,-2.0294,-2.043,-2.0294,-2.0227,-2.0466,-2.0533,-2.0715,-2.1134,-2.1197,-2.1353,-2.1823,-2.302,-2.4206,-2.5049,-2.5389,-2.5879,-2.659,-2.6234,-2.5981,-2.5947,-2.5947,-2.5828,-2.5371,-2.5675,-2.5609,-2.4932,-2.456,-2.3424,-2.2818,-2.2415,-2.2364,-2.2313,-2.2313,-2.2352,-2.2415,-2.2541,-2.2717,-2.3051,-2.35,-2.3888,-2.4238,-2.4486,-2.47,-2.4835,-2.4987,-2.5124,-2.4216,-2.3684,-2.3595,-2.3595,-2.3595,-2.3595,-2.3595,-2.3595,-2.3595,-2.3595,-2.3595,-2.3595,-2.3595,-2.3595,-2.3595,-2.3595,-2.358,-2.352,-2.349,-2.349,-2.3475,-2.3146,-2.2703,-2.2553,-2.2164,-2.159,-2.1002,-2.0673,-2.0459,-1.9416,-1.8846,-1.866,-1.7767,-1.7312,-1.7312,-1.69,-1.6595,-1.671,-1.7097,-1.7333,-1.7394,-1.7927,-1.8438,-1.8893,-1.8874,-1.8855,-1.8926,-1.8912,-1.8912,-1.8949,-1.9369,-1.969,-1.9636,-1.9705,-1.9723,-1.9723,-1.9723,-1.9723,-1.9723,-1.9723,-1.9723,-1.9723,-1.9723,-1.9723,-1.9723,-1.9723,-1.9723,-1.9815,-2.0362,-2.0861,-2.0763,-2.0829,-2.0943,-2.1023,-2.1055,-2.131,-2.1573,-2.1646,-2.1829,-2.2488,-2.3765,-2.51,-2.6065,-2.6116,-2.6065,-2.6488,-2.6623,-2.6556,-2.6505,-2.6522,-2.6623,-2.6573,-2.6454,-2.6218,-2.6167,-2.5981,-2.4423,-2.3134,-2.2733,-2.2496,-2.2347,-2.2313,-2.2377,-2.2467,-2.29,-2.3075,-2.3277,-2.3724,-2.4087,-2.442,-2.4642,-2.4818,-2.4936,-2.5071,-2.5189,-2.4485,-2.4231,-2.3789,-2.3595,-2.3595,-2.3595,-2.3595,-2.3595,-2.3595,-2.3595,-2.3595,-2.3595,-2.3595,-2.3595,-2.3595,-2.3595,-2.3595,-2.3595,-2.3595,-2.3595,-2.3595,-2.349,-2.3266,-2.2897,-2.2343,-2.1769,-2.1515,-2.1156,-2.0672,-1.9972,-1.9402,-1.8846,-1.8224,-1.7874,-1.7847,-1.7686,-1.7605,-1.7626,-1.7767,-1.8013,-1.838,-1.8574,-1.8912,-1.9387,-1.946,-1.946,-1.946,-1.946,-1.9457,-1.9442,-1.9603,-1.9723,-1.9723,-1.9723,-1.9723,-1.9723,-1.9723,-1.9723,-1.9723,-1.9723,-1.9723,-1.9723,-1.9723,-1.9723,-1.9723,-1.9723,-1.9723,-1.9762,-2.0344,-2.0942,-2.157,-2.1539,-2.1479,-2.1399,-2.1854,-2.2321,-2.2725,-2.2998,-2.3325,-2.3887,-2.5101,-2.615,-2.6522,-2.6387,-2.642,-2.6607,-2.6708,-2.6708,-2.6708,-2.6708,-2.6691,-2.6691,-2.6708,-2.6741,-2.6621,-2.6461,-2.5558,-2.4242,-2.3585,-2.2976,-2.2729,-2.2419,-2.247,-2.2751,-2.3165,-2.3444,-2.3631,-2.387,-2.4238,-2.4505,-2.4689,-2.4842,-2.4986,-2.5124,-2.5279,-2.5187,-2.4903,-2.4253,-2.3962,-2.3939,-2.3729,-2.3595,-2.3595,-2.3595,-2.3595,-2.3595,-2.3595,-2.3595,-2.3595,-2.3595,-2.3595,-2.3595,-2.3595,-2.3595,-2.3595,-2.3595,-2.3595,-2.355,-2.3242,-2.2847,-2.2428,-2.2173,-2.1844,-2.1406,-2.0607,-1.9963,-1.9521,-1.8778,-1.84,-1.8361,-1.8171,-1.8092,-1.8112,-1.8288,-1.8554,-1.8874,-1.9095,-1.9369,-1.9654,-1.9723,-1.9723,-1.9723,-1.9723,-1.9723,-1.9723,-1.9723,-1.9723,-1.9723,-1.9723,-1.9723,-1.9723,-1.9723,-1.9723,-1.9723,-1.9723,-1.9723,-1.9723,-1.9723,-1.9723,-1.9723,-1.9723,-1.9723,-1.978,-2.0447,-2.1276,-2.2051,-2.2346,-2.225,-2.2267,-2.2633,-2.3204,-2.3701,-2.4203,-2.4357,-2.4778,-2.5743,-2.6505,-2.6708,-2.6708,-2.6708,-2.6708,-2.6708,-2.6708,-2.6708,-2.6708,-2.6708,-2.6708,-2.6708,-2.6774,-2.6921,-2.6768,-2.6564,-2.5577,-2.4601,-2.3925,-2.3423,-2.288,-2.2686,-2.3242,-2.37,-2.3803,-2.3976,-2.4036,-2.4266,-2.4486,-2.4742,-2.4903,-2.5065,-2.5235,-2.536,-2.6213,-2.5576,-2.4889,-2.456,-2.447,-2.3879,-2.3595,-2.3595,-2.3595,-2.3595,-2.3595,-2.3595,-2.3595,-2.3595,-2.3595,-2.3595,-2.3595,-2.3595,-2.3595,-2.3595,-2.3595,-2.3595,-2.3565,-2.3505,-2.343,-2.3355,-2.2972,-2.2688,-2.2403,-2.1441,-2.0778,-2.0593,-1.9637,-1.9021,-1.8989,-1.8481,-1.8308,-1.8419,-1.8727,-1.8968,-1.902,-1.9406,-1.9672,-1.9723,-1.9723,-1.9723,-1.9723,-1.9723,-1.9723,-1.9723,-1.9723,-1.9723,-1.9723,-1.9723,-1.9723,-1.9723,-1.9723,-1.9723,-1.9723,-1.9723,-1.9723,-1.9723,-1.9723,-1.9723,-1.9723,-1.9764,-1.9836,-1.9907,-2.0764,-2.1679,-2.2387,-2.289,-2.3279,-2.3558,-2.3699,-2.4003,-2.4592,-2.5253,-2.5338,-2.5117,-2.5862,-2.6708,-2.6708,-2.6708,-2.6708,-2.6708,-2.6708,-2.6708,-2.6725,-2.6741,-2.6758,-2.6841,-2.7004,-2.7099,-2.7299,-2.7452,-2.7264,-2.6851,-2.5795,-2.4923,-2.3997,-2.3347,-2.3098,-2.3646,-2.4014,-2.4122,-2.419,-2.4209,-2.4348,-2.4594,-2.4804,-2.4981,-2.5159,-2.5336,-2.5415,-2.6497,-2.6213,-2.5083,-2.4605,-2.4515,-2.3894,-2.3595,-2.3595,-2.3595,-2.3595,-2.3595,-2.3595,-2.3595,-2.3595,-2.3595,-2.3595,-2.3595,-2.3595,-2.3595,-2.3595,-2.3595,-2.3595,-2.3595,-2.3595,-2.3595,-2.355,-2.3385,-2.3152,-2.2703,-2.2283,-2.1859,-2.1425,-2.0648,-2.0182,-2.0133,-1.9564,-1.9295,-1.9281,-1.9369,-1.9475,-1.9493,-1.9584,-1.9708,-1.9723,-1.9723,-1.9723,-1.9723,-1.9723,-1.9723,-1.9723,-1.9723,-1.9723,-1.9723,-1.9723,-1.9723,-1.9723,-1.9723,-1.9723,-1.9723,-1.9723,-1.9723,-1.9723,-1.9723,-1.9723,-1.9708,-1.9982,-2.0191,-2.0447,-2.1134,-2.2062,-2.307,-2.3441,-2.4001,-2.5178,-2.5149,-2.5267,-2.591,-2.6251,-2.6302,-2.6234,-2.6488,-2.669,-2.6725,-2.6725,-2.6708,-2.6708,-2.6708,-2.6741,-2.6825,-2.6971,-2.7067,-2.7439,-2.7634,-2.7648,-2.7765,-2.7988,-2.804,-2.7909,-2.7046,-2.5945,-2.48,-2.3648,-2.3667,-2.3976,-2.4074,-2.417,-2.4247,-2.4294,-2.4503,-2.4685,-2.4835,-2.4999,-2.5235,-2.5409,-2.5471,-2.7016,-2.6911,-2.5585,-2.5023,-2.4874,-2.4029,-2.3595,-2.3595,-2.3595,-2.3595,-2.3595,-2.3595,-2.3595,-2.3595,-2.3595,-2.3595,-2.3595,-2.3595,-2.3595,-2.3595,-2.3595,-2.3595,-2.3595,-2.3595,-2.3595,-2.3595,-2.3595,-2.3415,-2.3092,-2.2838,-2.2478,-2.2054,-2.1455,-2.1006,-2.0624,-2.0363,-1.9959,-1.9765,-1.9723,-1.9723,-1.9723,-1.9723,-1.9723,-1.9723,-1.9723,-1.9723,-1.9723,-1.9723,-1.9723,-1.9723,-1.9723,-1.9723,-1.9723,-1.9723,-1.9723,-1.9723,-1.9723,-1.9723,-1.9723,-1.9723,-1.9723,-1.9723,-1.9723,-1.9723,-1.9764,-2.0054,-2.0414,-2.0942,-2.1613,-2.2587,-2.354,-2.4085,-2.5064,-2.6247,-2.6447,-2.6573,-2.7144,-2.7189,-2.7019,-2.6906,-2.6988,-2.7035,-2.6808,-2.6858,-2.6824,-2.6758,-2.6708,-2.6841,-2.7019,-2.7241,-2.75,-2.788,-2.802,-2.7964,-2.8047,-2.8264,-2.8446,-2.8377,-2.7955,-2.6886,-2.5733,-2.439,-2.4172,-2.4285,-2.4252,-2.4209,-2.4257,-2.4356,-2.4591,-2.4756,-2.4884,-2.5034,-2.5253,-2.5438,-2.5485,-2.7585,-2.748,-2.6168,-2.56,-2.5375,-2.4208,-2.3595,-2.3595,-2.3595,-2.3595,-2.3595,-2.3595,-2.3595,-2.3595,-2.3595,-2.3595,-2.3595,-2.3595,-2.3595,-2.3595,-2.3595,-2.3595,-2.3595,-2.3595,-2.3595,-2.3595,-2.3595,-2.358,-2.34,-2.3011,-2.2838,-2.2607,-2.2113,-2.156,-2.1201,-2.0917,-2.0483,-2.0124,-1.9959,-1.9929,-1.9869,-1.9794,-1.9723,-1.9723,-1.9723,-1.9723,-1.9723,-1.9723,-1.9723,-1.9723,-1.9723,-1.9723,-1.9723,-1.9723,-1.9723,-1.9723,-1.9723,-1.9723,-1.9723,-1.9723,-1.9723,-1.9723,-1.9723,-1.9723,-1.9782,-2.0072,-2.0614,-2.1391,-2.2227,-2.3034,-2.4094,-2.5033,-2.6019,-2.6951,-2.7218,-2.7467,-2.784,-2.7926,-2.7604,-2.6987,-2.7517,-2.7424,-2.7194,-2.7035,-2.7129,-2.6775,-2.6758,-2.6939,-2.7192,-2.7452,-2.7833,-2.8272,-2.8303,-2.8197,-2.8334,-2.8502,-2.867,-2.8736,-2.8413,-2.7629,-2.6683,-2.5633,-2.4975,-2.4684,-2.4488,-2.431,-2.4209,-2.4393,-2.4602,-2.4795,-2.4923,-2.5059,-2.5235,-2.5383,-2.5468,-2.7585,-2.7495,-2.6168,-2.56,-2.539,-2.4193,-2.361,-2.3595,-2.3595,-2.3595,-2.3595,-2.3595,-2.3595,-2.3595,-2.3595,-2.3595,-2.3595,-2.3595,-2.3595,-2.3595,-2.3595,-2.3595,-2.3595,-2.3595,-2.3595,-2.3595,-2.3595,-2.3595,-2.352,-2.3445,-2.3385,-2.3281,-2.2793,-2.2418,-2.2194,-2.1665,-2.144,-2.1186,-2.0752,-2.0498,-2.0363,-1.9974,-1.9753,-1.9723,-1.9723,-1.9723,-1.9723,-1.9723,-1.9723,-1.9723,-1.9723,-1.9723,-1.9723,-1.9723,-1.9723,-1.9723,-1.9723,-1.9723,-1.9723,-1.9723,-1.9723,-1.9723,-1.9723,-1.9723,-1.9744,-2.0087,-2.0801,-2.1713,-2.2442,-2.3532,-2.497,-2.5947,-2.6616,-2.7142,-2.7334,-2.756,-2.8088,-2.8047,-2.7808,-2.7722,-2.7768,-2.7826,-2.7604,-2.7286,-2.7178,-2.6874,-2.6873,-2.7052,-2.7363,-2.7704,-2.8125,-2.859,-2.8633,-2.8558,-2.8596,-2.8725,-2.8797,-2.894,-2.867,-2.8455,-2.7517,-2.6929,-2.6295,-2.5455,-2.4624,-2.4458,-2.432,-2.4252,-2.445,-2.47,-2.4911,-2.5046,-2.5182,-2.5329,-2.5466,-2.7585,-2.748,-2.6497,-2.5884,-2.5442,-2.4537,-2.3894,-2.364,-2.3595,-2.3595,-2.3595,-2.3595,-2.3595,-2.3595,-2.3595,-2.3595,-2.3595,-2.3595,-2.3595,-2.3595,-2.3595,-2.3595,-2.3595,-2.3595,-2.3595,-2.3595,-2.3595,-2.3595,-2.3595,-2.3595,-2.3565,-2.3595,-2.3236,-2.2927,-2.2733,-2.2343,-2.1979,-2.1665,-2.138,-2.1186,-2.1081,-2.0528,-1.9944,-1.9768,-1.9723,-1.9723,-1.9723,-1.9723,-1.9723,-1.9723,-1.9723,-1.9723,-1.9723,-1.9723,-1.9723,-1.9723,-1.9723,-1.9723,-1.9723,-1.9723,-1.9723,-1.9723,-1.9723,-1.9899,-2.0056,-2.0369,-2.0905,-2.1995,-2.3178,-2.4524,-2.5897,-2.637,-2.6872,-2.7194,-2.7319,-2.7574,-2.8002,-2.8112,-2.8084,-2.8071,-2.8071,-2.7762,-2.7512,-2.7348,-2.7317,-2.7067,-2.7099,-2.7272,-2.773,-2.8098,-2.8407,-2.8743,-2.8887,-2.8929,-2.8929,-2.894,-2.8929,-2.8975,-2.8902,-2.8803,-2.8427,-2.8017,-2.7666,-2.67,-2.5739,-2.4688,-2.4482,-2.4418,-2.4336,-2.4421,-2.4648,-2.4892,-2.5091,-2.5178,-2.5341,-2.7585,-2.7525,-2.6791,-2.6108,-2.554,-2.4739,-2.4066,-2.3655,-2.3595,-2.3595,-2.3595,-2.3595,-2.3595,-2.3595,-2.3595,-2.3595,-2.3595,-2.3595,-2.3595,-2.3595,-2.3595,-2.3595,-2.3595,-2.3595,-2.3595,-2.3595,-2.3595,-2.3595,-2.3595,-2.3595,-2.3595,-2.3595,-2.3595,-2.331,-2.2942,-2.2823,-2.2622,-2.2218,-2.1964,-2.1844,-2.1739,-2.1201,-2.0572,-2.0064,-1.9977,-1.9857,-1.9768,-1.9723,-1.9723,-1.9723,-1.9723,-1.9723,-1.9723,-1.9723,-1.9723,-1.9723,-1.9723,-1.9723,-1.9723,-1.9723,-1.9753,-1.9813,-1.9869,-2.0272,-2.077,-2.0921,-2.1385,-2.2674,-2.4082,-2.5644,-2.6573,-2.6674,-2.689,-2.7194,-2.7319,-2.7502,-2.7837,-2.8156,-2.8183,-2.8232,-2.8179,-2.7929,-2.7467,-2.7162,-2.7239,-2.7332,-2.7363,-2.7527,-2.8016,-2.842,-2.8694,-2.8851,-2.8952,-2.8987,-2.8987,-2.8987,-2.8987,-2.8987,-2.8987,-2.8987,-2.8952,-2.8481,-2.8003,-2.7822,-2.6945,-2.5902,-2.4997,-2.4776,-2.4647,-2.4401,-2.4384,-2.4629,-2.484,-2.4992,-2.5183,-2.7585,-2.7495,-2.6273,-2.5704,-2.5435,-2.4313,-2.3759,-2.361,-2.3595,-2.3595,-2.3595,-2.3595,-2.3595,-2.3595,-2.3595,-2.3595,-2.3595,-2.3595,-2.3595,-2.3595,-2.3595,-2.3595,-2.3595,-2.3595,-2.3595,-2.3595,-2.3595,-2.3595,-2.3595,-2.3595,-2.3595,-2.3595,-2.3595,-2.3475,-2.343,-2.343,-2.331,-2.3011,-2.2733,-2.2538,-2.2388,-2.1874,-2.1216,-2.0617,-2.0543,-2.0303,-1.9902,-1.9768,-1.9723,-1.9723,-1.9723,-1.9738,-1.9768,-1.9768,-1.9828,-1.9723,-1.9723,-1.9723,-1.9794,-1.9768,-2.0037,-2.0363,-2.0543,-2.1091,-2.161,-2.1593,-2.2164,-2.379,-2.5262,-2.6505,-2.6657,-2.6708,-2.6906,-2.7178,-2.735,-2.7487,-2.7811,-2.7982,-2.8061,-2.808,-2.8139,-2.8025,-2.7407,-2.7099,-2.7303,-2.7454,-2.7589,-2.7779,-2.8143,-2.8527,-2.8875,-2.8952,-2.8975,-2.8987,-2.8987,-2.8987,-2.8987,-2.8987,-2.8987,-2.8987,-2.8863,-2.8509,-2.8188,-2.7939,-2.7794,-2.7154,-2.6323,-2.5508,-2.4541,-2.3983,-2.4145,-2.4375,-2.4582,-2.4749,-2.4879,-2.7585,-2.7495,-2.6512,-2.5929,-2.5465,-2.4545,-2.3924,-2.3625,-2.3595,-2.3595,-2.3595,-2.3595,-2.3595,-2.3595,-2.3595,-2.3595,-2.3595,-2.3595,-2.3595,-2.3595,-2.3595,-2.3595,-2.3595,-2.3595,-2.3595,-2.3595,-2.3595,-2.3595,-2.3595,-2.3595,-2.3595,-2.3595,-2.3595,-2.3595,-2.3595,-2.3565,-2.3595,-2.3505,-2.331,-2.3152,-2.3101,-2.2538,-2.1889,-2.141,-2.1231,-2.1036,-2.0842,-2.0741,-2.0756,-2.0786,-2.0756,-2.0352,-2.0127,-2.0262,-2.0412,-1.9947,-1.9801,-1.9917,-2.0139,-2.0228,-2.0528,-2.1096,-2.1235,-2.1773,-2.2451,-2.2667,-2.3237,-2.5041,-2.5967,-2.6708,-2.6708,-2.6725,-2.689,-2.7194,-2.7334,-2.7547,-2.7783,-2.7883,-2.7908,-2.7886,-2.7791,-2.7542,-2.7066,-2.6987,-2.7334,-2.7577,-2.7765,-2.8051,-2.8352,-2.8651,-2.8987,-2.8987,-2.8987,-2.8987,-2.8987,-2.8987,-2.8987,-2.8987,-2.8987,-2.8987,-2.8899,-2.8615,-2.8303,-2.8013,-2.788,-2.7636,-2.7119,-2.61,-2.4835,-2.3641,-2.369,-2.3854,-2.4228,-2.4484,-2.4621,-2.7585,-2.754,-2.6881,-2.6273,-2.5749,-2.5083,-2.4515,-2.4073,-2.4059,-2.4073,-2.3984,-2.3894,-2.3849,-2.3774,-2.367,-2.3595,-2.3595,-2.3595,-2.3595,-2.3595,-2.3595,-2.3595,-2.3595,-2.3595,-2.3595,-2.3595,-2.3595,-2.3595,-2.3595,-2.3595,-2.3595,-2.3595,-2.3595,-2.3595,-2.3595,-2.3595,-2.3595,-2.3595,-2.3595,-2.3595,-2.346,-2.3116,-2.2562,-2.1979,-2.1889,-2.1849,-2.156,-2.1515,-2.153,-2.1545,-2.152,-2.1205,-2.0501,-2.113,-2.1295,-2.064,-2.0354,-2.0575,-2.0862,-2.1077,-2.1466,-2.2279,-2.2137,-2.2766,-2.3655,-2.4213,-2.4724,-2.6286,-2.6939,-2.6939,-2.6923,-2.6923,-2.7161,-2.7452,-2.7601,-2.7663,-2.7922,-2.8006,-2.7851,-2.7718,-2.7485,-2.7241,-2.6938,-2.733,-2.7762,-2.7765,-2.795,-2.8334,-2.8614,-2.8767,-2.8987,-2.8987,-2.8987,-2.8987,-2.8987,-2.8987,-2.8987,-2.8987,-2.8987,-2.8987,-2.8929,-2.8785,-2.8451,-2.8088,-2.7589,-2.7328,-2.7018,-2.6506,-2.5031,-2.3939,-2.3428,-2.3403,-2.3886,-2.4155,-2.4301,-2.7585,-2.7555,-2.6881,-2.6542,-2.6363,-2.5734,-2.5435,-2.5315,-2.5255,-2.536,-2.5166,-2.4739,-2.447,-2.4306,-2.3864,-2.3655,-2.3595,-2.3595,-2.3595,-2.3595,-2.3595,-2.3595,-2.3595,-2.3595,-2.3595,-2.3595,-2.3595,-2.3595,-2.3595,-2.3595,-2.3595,-2.3595,-2.3595,-2.3595,-2.3595,-2.3595,-2.3595,-2.3595,-2.3595,-2.3595,-2.358,-2.3475,-2.3122,-2.2763,-2.2553,-2.2373,-2.2009,-2.1949,-2.1924,-2.1844,-2.1769,-2.1635,-2.15,-2.1545,-2.2338,-2.2601,-2.2574,-2.2102,-2.2101,-2.2173,-2.2583,-2.3314,-2.3409,-2.4154,-2.4931,-2.5704,-2.6101,-2.6522,-2.7272,-2.7454,-2.7288,-2.7532,-2.7865,-2.8043,-2.8112,-2.8179,-2.8324,-2.836,-2.817,-2.8034,-2.7936,-2.7515,-2.7131,-2.7704,-2.8197,-2.8143,-2.817,-2.8545,-2.8815,-2.894,-2.8987,-2.8987,-2.8987,-2.8987,-2.8987,-2.8987,-2.8987,-2.8987,-2.8987,-2.8987,-2.894,-2.8827,-2.8522,-2.8125,-2.766,-2.7315,-2.7159,-2.6398,-2.5021,-2.4203,-2.3685,-2.356,-2.3617,-2.3837,-2.4114,-2.7585,-2.7525,-2.6881,-2.6602,-2.6512,-2.5899,-2.56,-2.56,-2.56,-2.56,-2.557,-2.5322,-2.4963,-2.4619,-2.4261,-2.3969,-2.3684,-2.3595,-2.3595,-2.3595,-2.3595,-2.3595,-2.3595,-2.3595,-2.3595,-2.3595,-2.3595,-2.3595,-2.3595,-2.3595,-2.3595,-2.3595,-2.3595,-2.3595,-2.3595,-2.3595,-2.3595,-2.3595,-2.3595,-2.3595,-2.3595,-2.358,-2.3475,-2.3206,-2.3212,-2.2981,-2.2817,-2.2772,-2.2772,-2.2772,-2.2757,-2.2772,-2.2772,-2.2802,-2.3107,-2.3398,-2.359,-2.3209,-2.2744,-2.3101,-2.373,-2.4191,-2.4413,-2.4878,-2.5768,-2.6333,-2.6691,-2.6708,-2.7441,-2.7648,-2.75,-2.7695,-2.8034,-2.829,-2.8476,-2.8596,-2.8658,-2.8707,-2.8676,-2.8533,-2.8373,-2.8034,-2.7704,-2.7918,-2.829,-2.8272,-2.8316,-2.8565,-2.8827,-2.8952,-2.8987,-2.8987,-2.8987,-2.8987,-2.8987,-2.8987,-2.8987,-2.8987,-2.8987,-2.8975,-2.8964,-2.8827,-2.8602,-2.859,-2.8476,-2.8066,-2.7531,-2.6586,-2.5483,-2.4694,-2.3946,-2.4143,-2.4287,-2.4046,-2.4282,-2.7585,-2.7555,-2.7061,-2.6851,-2.6821,-2.6303,-2.6123,-2.6108,-2.6153,-2.6123,-2.6048,-2.5929,-2.5472,-2.4903,-2.4649,-2.4291,-2.3894,-2.3684,-2.361,-2.3595,-2.3595,-2.3595,-2.3595,-2.3595,-2.3595,-2.361,-2.3595,-2.3595,-2.3595,-2.3595,-2.3595,-2.3595,-2.3595,-2.3595,-2.3595,-2.3595,-2.3595,-2.3595,-2.3595,-2.3595,-2.3595,-2.3595,-2.3595,-2.358,-2.3595,-2.3595,-2.3595,-2.3535,-2.3535,-2.3505,-2.346,-2.3415,-2.343,-2.3415,-2.3445,-2.3687,-2.3896,-2.382,-2.3544,-2.3756,-2.4477,-2.4978,-2.5262,-2.5717,-2.5947,-2.647,-2.6791,-2.6873,-2.7454,-2.7707,-2.7736,-2.7978,-2.8321,-2.8545,-2.8608,-2.8773,-2.8905,-2.8905,-2.8887,-2.8803,-2.8725,-2.8827,-2.8545,-2.8334,-2.8355,-2.8389,-2.8509,-2.8682,-2.8809,-2.8975,-2.8987,-2.8987,-2.8987,-2.8987,-2.8987,-2.8987,-2.8987,-2.8987,-2.8987,-2.8987,-2.8964,-2.8964,-2.8875,-2.894,-2.8987,-2.8761,-2.8214,-2.7112,-2.6092,-2.5771,-2.5471,-2.5194,-2.5086,-2.4774,-2.4384,-2.7585,-2.7585,-2.7525,-2.748,-2.7495,-2.748,-2.742,-2.7285,-2.736,-2.733,-2.7195,-2.6782,-2.6168,-2.5546,-2.5038,-2.4694,-2.447,-2.3879,-2.3684,-2.3625,-2.361,-2.3714,-2.3774,-2.3804,-2.3729,-2.3684,-2.3744,-2.3729,-2.3595,-2.3595,-2.3595,-2.3595,-2.3595,-2.3595,-2.3595,-2.3595,-2.3595,-2.3595,-2.3595,-2.3595,-2.3595,-2.3595,-2.3595,-2.3595,-2.3595,-2.3595,-2.3595,-2.3595,-2.3595,-2.3595,-2.3595,-2.3595,-2.3595,-2.3595,-2.3595,-2.3687,-2.3991,-2.3983,-2.3963,-2.4477,-2.5447,-2.6177,-2.6487,-2.6419,-2.6453,-2.659,-2.6841,-2.7192,-2.7736,-2.8061,-2.8303,-2.8651,-2.8767,-2.8803,-2.8797,-2.8863,-2.8952,-2.8964,-2.8964,-2.8975,-2.8987,-2.8987,-2.8987,-2.87,-2.857,-2.8602,-2.8694,-2.8851,-2.8875,-2.8987,-2.8987,-2.8987,-2.8987,-2.8987,-2.8987,-2.8987,-2.8987,-2.8987,-2.8987,-2.8987,-2.8987,-2.8987,-2.8987,-2.8987,-2.8987,-2.897,-2.8863,-2.7967,-2.7348,-2.7223,-2.7007,-2.6614,-2.6074,-2.5642,-2.5004,-2.7585,-2.7585,-2.7585,-2.7585,-2.7585,-2.7585,-2.7585,-2.7585,-2.7585,-2.7585,-2.7585,-2.73,-2.6851,-2.6273,-2.5974,-2.5322,-2.4664,-2.4365,-2.4014,-2.3879,-2.3954,-2.4171,-2.4306,-2.4507,-2.4657,-2.4261,-2.4186,-2.3917,-2.3625,-2.3702,-2.3595,-2.3595,-2.3681,-2.3595,-2.3595,-2.3595,-2.3595,-2.3595,-2.3595,-2.3595,-2.3595,-2.3595,-2.3595,-2.3595,-2.3595,-2.3595,-2.3595,-2.3595,-2.3595,-2.3595,-2.3595,-2.3595,-2.3595,-2.3595,-2.3595,-2.3595,-2.3858,-2.4074,-2.4511,-2.4969,-2.5524,-2.6104,-2.6487,-2.6708,-2.6708,-2.6708,-2.6906,-2.7378,-2.8061,-2.8489,-2.8394,-2.8737,-2.8952,-2.8975,-2.8975,-2.8952,-2.8899,-2.8863,-2.8964,-2.8964,-2.8975,-2.8987,-2.8987,-2.8964,-2.8875,-2.8821,-2.891,-2.8987,-2.8987,-2.8987,-2.8987,-2.8987,-2.8987,-2.8987,-2.8987,-2.8987,-2.8987,-2.8987,-2.8987,-2.8987,-2.8987,-2.8987,-2.8987,-2.8987,-2.8987,-2.8964,-2.8893,-2.8743,-2.8476,-2.8148,-2.8026,-2.7924,-2.7305,-2.6604,-2.6061,-2.7585,-2.7585,-2.7585,-2.7585,-2.7585,-2.7585,-2.7585,-2.7585,-2.7585,-2.7585,-2.7585,-2.757,-2.736,-2.6971,-2.6587,-2.6004,-2.5083,-2.4649,-2.4321,-2.4231,-2.4335,-2.4694,-2.4993,-2.5143,-2.5098,-2.4777,-2.4731,-2.448,-2.3646,-2.3921,-2.4012,-2.3991,-2.397,-2.3991,-2.3595,-2.3595,-2.3595,-2.3595,-2.3595,-2.3595,-2.3595,-2.3595,-2.3595,-2.3595,-2.3595,-2.3595,-2.3595,-2.3595,-2.3595,-2.3595,-2.3595,-2.3595,-2.3595,-2.3595,-2.3595,-2.3595,-2.3702,-2.4074,-2.4736,-2.5489,-2.5781,-2.6314,-2.6521,-2.6674,-2.6708,-2.6708,-2.689,-2.7332,-2.825,-2.8809,-2.8458,-2.8731,-2.8839,-2.8815,-2.8749,-2.8694,-2.8608,-2.8552,-2.8791,-2.8947,-2.8905,-2.8809,-2.9023,-2.9042,-2.9092,-2.899,-2.8952,-2.8987,-2.8987,-2.8987,-2.8987,-2.8987,-2.8987,-2.8987,-2.8987,-2.8987,-2.8987,-2.8987,-2.8987,-2.8987,-2.8987,-2.8987,-2.8987,-2.8987,-2.8987,-2.8987,-2.894,-2.8858,-2.8893,-2.8897,-2.8798,-2.8669,-2.8444,-2.7774,-2.7539,-2.754,-2.7585,-2.757,-2.7555,-2.7585,-2.7585,-2.7585,-2.7585,-2.7585,-2.7585,-2.7585,-2.7585,-2.7585,-2.7375,-2.6931,-2.6303,-2.5659,-2.5038,-2.4694,-2.4694,-2.4896,-2.5098,-2.5442,-2.5689,-2.576,-2.4987,-2.5165,-2.507,-2.3894,-2.4698,-2.4813,-2.4628,-2.4652,-2.4592,-2.3709,-2.3616,-2.3595,-2.3616,-2.3702,-2.3595,-2.3702,-2.3659,-2.3595,-2.3595,-2.3595,-2.3595,-2.3595,-2.3595,-2.3595,-2.3595,-2.3595,-2.3595,-2.3595,-2.3595,-2.3616,-2.3681,-2.3702,-2.397,-2.4496,-2.5855,-2.6419,-2.6487,-2.6573,-2.6708,-2.6708,-2.6741,-2.6891,-2.7334,-2.8084,-2.8558,-2.862,-2.8645,-2.8596,-2.8545,-2.8451,-2.8381,-2.8277,-2.8183,-2.836,-2.89,-2.8729,-2.8552,-2.8864,-2.9115,-2.9225,-2.9177,-2.9042,-2.9005,-2.9042,-2.9005,-2.9005,-2.8987,-2.8987,-2.8987,-2.8987,-2.8987,-2.8987,-2.8987,-2.8987,-2.8987,-2.8987,-2.8987,-2.8987,-2.8987,-2.8987,-2.8987,-2.9005,-2.9005,-2.9181,-2.9345,-2.9332,-2.9228,-2.9101,-2.8959,-2.8655,-2.6551,-2.6956,-2.6941,-2.7195,-2.7555,-2.7585,-2.7585,-2.7585,-2.7585,-2.7585,-2.7585,-2.7585,-2.7585,-2.7495,-2.7345,-2.6866,-2.6273,-2.6138,-2.5824,-2.5345,-2.5615,-2.5989,-2.6303,-2.6561,-2.6663,-2.6627,-2.6676,-2.6217,-2.5475,-2.5762,-2.5431,-2.5174,-2.5182,-2.4989,-2.4652,-2.443,-2.4266,-2.445,-2.4116,-2.373,-2.4048,-2.3794,-2.3595,-2.3595,-2.3595,-2.3595,-2.3595,-2.3595,-2.3595,-2.3595,-2.3595,-2.3616,-2.3616,-2.3638,-2.3773,-2.4048,-2.4256,-2.4708,-2.5354,-2.6262,-2.647,-2.647,-2.6522,-2.6674,-2.6708,-2.6708,-2.6923,-2.7184,-2.7611,-2.7917,-2.7992,-2.8134,-2.8151,-2.8079,-2.8006,-2.7978,-2.7894,-2.7779,-2.7922,-2.873,-2.8951,-2.9232,-2.9539,-2.991,-3.0051,-2.9867,-2.9757,-2.9354,-2.928,-2.9115,-2.9042,-2.9005,-2.8987,-2.8987,-2.9042,-2.9372,-2.9317,-2.9207,-2.9097,-2.8987,-2.8987,-2.8987,-2.8987,-2.8987,-2.8987,-2.8987,-2.9082,-2.9228,-2.957,-2.9741,-2.9715,-2.9644,-2.9482,-2.9519,-2.9562,-2.6004,-2.6587,-2.6602,-2.6986,-2.754,-2.7585,-2.7585,-2.7585,-2.7585,-2.7585,-2.7585,-2.7585,-2.7585,-2.7585,-2.754,-2.7225,-2.6647,-2.6572,-2.6497,-2.6019,-2.6333,-2.6671,-2.7016,-2.736,-2.7306,-2.7527,-2.7371,-2.6935,-2.617,-2.6341,-2.6153,-2.5846,-2.5707,-2.5652,-2.5335,-2.491,-2.4491,-2.4491,-2.4053,-2.3724,-2.3879,-2.3794,-2.3595,-2.3595,-2.3595,-2.3595,-2.3595,-2.3595,-2.3595,-2.3595,-2.3616,-2.3717,-2.3782,-2.3788,-2.4012,-2.4486,-2.5318,-2.5618,-2.6023,-2.6769,-2.6841,-2.6401,-2.6573,-2.6674,-2.6708,-2.6708,-2.6808,-2.6992,-2.7233,-2.7459,-2.7739,-2.7874,-2.81,-2.8074,-2.7759,-2.7729,-2.7613,-2.7525,-2.8248,-2.9016,-2.9751,-3.0023,-3.035,-3.0729,-3.1054,-3.0797,-3.0522,-3.0136,-2.9776,-2.9666,-2.9592,-2.9574,-2.9464,-2.9464,-2.9751,-3.0136,-2.9953,-2.9482,-2.9409,-2.939,-2.8987,-2.8987,-2.8987,-2.8987,-2.9005,-2.9055,-2.922,-2.9446,-2.9782,-3.0,-3.0059,-2.9966,-2.9837,-2.9916,-3.0061,-2.5929,-2.6497,-2.6557,-2.6926,-2.7495,-2.7555,-2.7585,-2.7585,-2.7585,-2.7585,-2.7585,-2.7585,-2.7585,-2.7585,-2.7585,-2.7285,-2.6851,-2.6761,-2.6692,-2.6647,-2.6776,-2.7106,-2.7395,-2.7635,-2.7852,-2.7688,-2.7569,-2.7515,-2.6577,-2.6528,-2.6571,-2.6573,-2.6436,-2.621,-2.5707,-2.5105,-2.4657,-2.4532,-2.4032,-2.3809,-2.3879,-2.3687,-2.3595,-2.3595,-2.3595,-2.3595,-2.3595,-2.3595,-2.3595,-2.3595,-2.3595,-2.3973,-2.4078,-2.3937,-2.443,-2.5357,-2.6613,-2.6671,-2.672,-2.7532,-2.7518,-2.7162,-2.7012,-2.686,-2.6708,-2.6725,-2.6843,-2.7352,-2.7792,-2.7741,-2.7797,-2.8161,-2.8489,-2.8155,-2.7703,-2.756,-2.7433,-2.7838,-2.8774,-2.9617,-3.0448,-3.0914,-3.1294,-3.1659,-3.2027,-3.1971,-3.1788,-3.1715,-3.1329,-3.0834,-3.0742,-3.0632,-3.0448,-3.0124,-3.043,-3.1017,-3.0852,-3.0467,-3.0246,-3.0136,-2.961,-2.917,-2.917,-2.917,-2.906,-2.9127,-2.9408,-2.9695,-2.9981,-3.0136,-3.0248,-3.0228,-3.0066,-3.0162,-3.0299,-2.456,-2.5202,-2.5666,-2.6273,-2.6926,-2.7405,-2.7585,-2.7585,-2.7585,-2.7585,-2.7585,-2.7585,-2.7585,-2.7585,-2.7585,-2.745,-2.7375,-2.7315,-2.7315,-2.7285,-2.721,-2.7405,-2.7675,-2.7987,-2.8372,-2.8643,-2.8608,-2.8329,-2.8008,-2.7486,-2.6793,-2.6691,-2.681,-2.6485,-2.5906,-2.5297,-2.5044,-2.4675,-2.4055,-2.3964,-2.3979,-2.3902,-2.3809,-2.3774,-2.3789,-2.3804,-2.3789,-2.3803,-2.3809,-2.3728,-2.3661,-2.4037,-2.5076,-2.5013,-2.5429,-2.7651,-2.8298,-2.8337,-2.8237,-2.8464,-2.8502,-2.8265,-2.8197,-2.7571,-2.7131,-2.681,-2.6996,-2.7672,-2.8501,-2.8662,-2.8493,-2.8664,-2.8817,-2.8544,-2.8236,-2.8237,-2.8186,-2.8731,-2.9694,-3.0858,-3.1649,-3.1995,-3.2368,-3.2651,-3.2963,-3.3054,-3.3036,-3.2926,-3.2706,-3.2137,-3.1843,-3.1727,-3.1549,-3.1256,-3.1568,-3.2118,-3.1806,-3.1488,-3.1201,-3.0907,-3.0522,-3.0099,-2.9647,-2.9359,-2.9209,-2.9392,-2.9702,-2.9924,-3.0032,-3.0241,-3.0355,-3.0343,-3.0343,-3.0367,-3.0404,-2.4014,-2.4619,-2.5023,-2.5734,-2.6632,-2.7315,-2.7585,-2.7585,-2.7585,-2.7585,-2.7585,-2.7585,-2.7585,-2.7585,-2.7585,-2.757,-2.757,-2.7525,-2.7525,-2.7525,-2.761,-2.757,-2.7795,-2.8247,-2.8748,-2.915,-2.9347,-2.9122,-2.8982,-2.8332,-2.7588,-2.7182,-2.7131,-2.6513,-2.5844,-2.5294,-2.5096,-2.4772,-2.4432,-2.4288,-2.4284,-2.4406,-2.4425,-2.4328,-2.4343,-2.435,-2.4417,-2.449,-2.4687,-2.4811,-2.4875,-2.5524,-2.6541,-2.6701,-2.7506,-2.9391,-2.9479,-2.9208,-2.8939,-2.9227,-2.923,-2.9111,-2.9044,-2.8519,-2.7774,-2.7249,-2.7621,-2.8163,-2.9093,-2.9704,-2.9433,-2.9196,-2.9113,-2.9011,-2.9068,-2.9159,-2.9454,-2.9816,-3.0885,-3.217,-3.2817,-3.3159,-3.3476,-3.3697,-3.377,-3.3605,-3.3513,-3.3495,-3.3348,-3.3054,-3.2834,-3.2742,-3.2614,-3.2467,-3.2816,-3.2908,-3.2596,-3.2265,-3.2008,-3.1696,-3.1384,-3.087,-3.0301,-2.9779,-2.9351,-2.9547,-2.975,-2.9861,-2.9969,-3.0196,-3.0373,-3.0373,-3.0361,-3.0373,-3.0404,-2.3932,-2.4515,-2.4567,-2.542,-2.6611,-2.724,-2.751,-2.7585,-2.7585,-2.7585,-2.7585,-2.7585,-2.7585,-2.7585,-2.7585,-2.7585,-2.7585,-2.7585,-2.7585,-2.761,-2.7785,-2.781,-2.7968,-2.8367,-2.918,-2.9349,-2.9414,-2.9507,-2.9623,-2.9025,-2.8264,-2.7908,-2.7785,-2.7135,-2.5992,-2.5596,-2.5363,-2.5006,-2.4965,-2.495,-2.4904,-2.5196,-2.56,-2.5533,-2.5535,-2.5604,-2.5765,-2.6114,-2.6551,-2.6738,-2.6984,-2.7417,-2.7758,-2.8751,-2.9856,-3.0306,-3.0378,-3.004,-2.9788,-2.9956,-2.982,-2.9568,-2.9179,-2.9297,-2.8908,-2.796,-2.8163,-2.8941,-2.9871,-3.0226,-3.0057,-3.0023,-2.9991,-2.9873,-2.9827,-3.0123,-3.0542,-3.1068,-3.1962,-3.2969,-3.3281,-3.3628,-3.366,-3.3807,-3.3807,-3.3807,-3.3807,-3.3807,-3.3752,-3.3587,-3.3513,-3.3458,-3.3311,-3.3183,-3.3366,-3.3403,-3.3256,-3.2999,-3.2742,-3.2559,-3.2284,-3.1641,-3.0889,-3.0135,-2.9384,-2.951,-2.9673,-2.9767,-2.9908,-3.0176,-3.0311,-3.0373,-3.0404,-3.0379,-3.0404,-2.3684,-2.3894,-2.438,-2.5367,-2.6527,-2.6776,-2.7151,-2.7585,-2.7585,-2.7585,-2.7585,-2.7585,-2.7585,-2.7585,-2.7585,-2.7585,-2.7585,-2.7585,-2.7585,-2.7735,-2.7944,-2.8091,-2.8463,-2.9088,-2.9745,-2.9978,-2.9939,-2.9751,-2.9597,-2.9247,-2.8975,-2.8685,-2.8414,-2.758,-2.6631,-2.6303,-2.5874,-2.5437,-2.5768,-2.5783,-2.5678,-2.5503,-2.56,-2.5831,-2.5985,-2.6396,-2.6612,-2.6928,-2.7142,-2.7246,-2.7267,-2.7432,-2.7571,-2.9552,-3.0661,-3.1072,-3.097,-3.0683,-3.0598,-3.0649,-3.0581,-3.0649,-3.0548,-3.0635,-3.0228,-2.9111,-2.8907,-2.9803,-3.0362,-3.0581,-3.0753,-3.0784,-3.0784,-3.0649,-3.0552,-3.1041,-3.1546,-3.2293,-3.3064,-3.3391,-3.3689,-3.378,-3.3807,-3.3807,-3.3807,-3.3807,-3.3807,-3.3807,-3.3807,-3.3715,-3.3697,-3.366,-3.3697,-3.3678,-3.3807,-3.377,-3.3568,-3.355,-3.3348,-3.3238,-3.3128,-3.2339,-3.1439,-3.0191,-2.9439,-2.9588,-2.9661,-2.9653,-2.9823,-3.0059,-3.0241,-3.0299,-3.0355,-3.0367,-3.0373,-2.3595,-2.3699,-2.4321,-2.5187,-2.6108,-2.6477,-2.6986,-2.751,-2.7585,-2.7585,-2.7585,-2.7585,-2.7585,-2.7585,-2.7585,-2.7585,-2.7585,-2.7585,-2.7585,-2.7735,-2.7993,-2.8189,-2.8803,-2.954,-2.9892,-3.0186,-3.0509,-3.0378,-2.9924,-2.9974,-2.9973,-2.9512,-2.9018,-2.8421,-2.7563,-2.694,-2.6571,-2.612,-2.6726,-2.6859,-2.6746,-2.6822,-2.6868,-2.7056,-2.7356,-2.7664,-2.7983,-2.8351,-2.8605,-2.8829,-2.9054,-2.9233,-2.9543,-3.0435,-3.1035,-3.1173,-3.1157,-3.119,-3.119,-3.119,-3.119,-3.119,-3.119,-3.097,-3.1007,-3.0059,-3.0006,-3.0751,-3.0801,-3.0987,-3.0987,-3.1021,-3.1038,-3.0937,-3.1019,-3.1308,-3.2034,-3.2856,-3.3356,-3.3607,-3.3793,-3.3793,-3.3807,-3.3807,-3.3807,-3.3807,-3.3807,-3.3807,-3.3807,-3.3807,-3.3807,-3.3807,-3.3807,-3.3807,-3.3807,-3.3807,-3.3752,-3.3788,-3.3807,-3.366,-3.3385,-3.2761,-3.1935,-3.1237,-3.0441,-2.9695,-2.9733,-2.9765,-2.969,-2.9821,-3.0018,-3.0196,-3.026,-3.0317,-3.0361,-2.3595,-2.3699,-2.4216,-2.4918,-2.563,-2.6198,-2.6871,-2.751,-2.7585,-2.7585,-2.7585,-2.7585,-2.7585,-2.7585,-2.7585,-2.7585,-2.7585,-2.7585,-2.7585,-2.766,-2.7919,-2.8247,-2.8756,-2.9368,-3.0043,-3.0539,-3.0858,-3.1016,-3.092,-3.0886,-3.0632,-3.0292,-2.9825,-2.9314,-2.8118,-2.7476,-2.7304,-2.7303,-2.7626,-2.7984,-2.8287,-2.8591,-2.8474,-2.8716,-2.9157,-2.9473,-2.9679,-2.9983,-3.0302,-3.0439,-3.0547,-3.0613,-3.0693,-3.0977,-3.103,-3.119,-3.119,-3.119,-3.119,-3.119,-3.119,-3.119,-3.119,-3.119,-3.1193,-3.1157,-3.1123,-3.1123,-3.1173,-3.119,-3.119,-3.119,-3.119,-3.131,-3.1428,-3.1675,-3.2533,-3.3299,-3.3578,-3.3807,-3.3807,-3.3807,-3.3807,-3.3807,-3.3807,-3.3807,-3.3807,-3.3807,-3.3807,-3.3807,-3.3807,-3.3807,-3.3807,-3.3807,-3.3807,-3.3807,-3.3807,-3.3807,-3.3807,-3.3807,-3.3697,-3.3201,-3.2963,-3.3018,-3.2163,-3.104,-3.0194,-3.0025,-2.9916,-2.9728,-2.9804,-3.0003,-3.0122,-3.0177,-3.0311,-2.3595,-2.361,-2.3744,-2.4477,-2.5525,-2.5788,-2.6467,-2.748,-2.7585,-2.7585,-2.7585,-2.7585,-2.7585,-2.7585,-2.7585,-2.7585,-2.7625,-2.7635,-2.761,-2.7635,-2.8328,-2.8583,-2.8966,-2.9739,-3.0662,-3.1015,-3.1095,-3.1151,-3.119,-3.119,-3.1157,-3.092,-3.0409,-3.0042,-2.9763,-2.9074,-2.8408,-2.8412,-2.8404,-2.87,-2.9044,-2.9248,-2.9225,-2.9473,-2.9805,-3.0021,-3.0293,-3.072,-3.0938,-3.1075,-3.1112,-3.1171,-3.119,-3.119,-3.119,-3.119,-3.119,-3.119,-3.119,-3.119,-3.119,-3.119,-3.119,-3.119,-3.119,-3.119,-3.1157,-3.1157,-3.119,-3.119,-3.119,-3.119,-3.121,-3.1524,-3.1712,-3.2265,-3.2981,-3.3419,-3.3734,-3.3807,-3.3807,-3.3807,-3.3807,-3.3807,-3.3807,-3.3807,-3.3807,-3.3807,-3.3807,-3.3807,-3.3807,-3.3807,-3.3807,-3.3807,-3.3807,-3.3807,-3.3807,-3.3807,-3.3807,-3.3807,-3.3788,-3.377,-3.3642,-3.3532,-3.3256,-3.2377,-3.161,-3.0487,-3.001,-2.981,-2.9738,-2.9799,-2.9924,-3.0075,-3.0209]},{"header":{"parameterUnit":"m.s-1","parameterCategory":1,"la1":31.0,"la2":29.5877,"lo1":-88.7671,"lo2":-86.6584,"dy":0.0162,"dx":0.0185,"nx":115,"ny":88,"refTime":"2024-07-22T12:00:00:Z","depth":0,"parameterNumber":3,"parameterNumberName":"V-component_of_WINDS"},"data":[0.0,0.0,0.0,0.0,0.0,0.0,0.0,0.0,0.0,0.0,0.0,0.0,0.0,0.0,0.0,0.0,0.0,0.0,0.0,0.0,0.0,0.0,0.0,0.0,0.0,0.0,0.0,0.0,0.0,0.0,0.0,0.0,0.0,0.0,0.0,0.0,0.0,0.0,0.0,0.0,0.0,0.0,0.0,0.0,0.0,0.0,0.0,0.0,0.0,0.0,0.0,0.0,0.0,0.0,0.0,0.0,0.0,0.0,0.0,0.0,0.0,0.0,0.0,0.0,0.0,0.0,0.0,0.0,0.0,0.0,0.0,0.0,0.0,0.0,0.0,0.0,0.0,0.0,0.0,0.0,0.0,0.0,0.0,0.0,0.0,0.0,0.0,0.0,0.0,0.0,0.0,0.0,0.0,0.0,0.0,0.0,0.0,0.0,0.0,0.0,0.0,0.0,0.0,0.0,0.0,0.0,0.0,0.0,0.0,0.0,0.0,0.0,0.0,0.0,0.0,0.0,0.0,0.0,0.0,0.0,0.0,0.0,0.0,0.0,0.0,0.0,0.0,0.0,0.0,0.0,0.0,0.0,0.0,0.0,0.0,0.0,0.0,0.0,0.0,0.0,0.0,0.0,0.0,0.0,0.0,0.0,0.0,0.0,0.0,0.0,0.0,0.0,0.0,0.0,0.0,0.0,0.0,0.0,0.0,0.0,0.0,0.0,0.0,0.0,0.0,0.0,0.0,0.0,0.0,0.0,0.0,0.0,0.0,0.0,0.0,0.0,0.0,0.0,0.0,0.0,0.0,0.0,0.0,0.0,0.0,0.0,0.0,0.0,0.0,0.0,0.0,0.0,0.0,0.0,0.0,0.0,0.0,0.0,0.0,0.0,0.0,0.0,0.0,0.0,0.0,0.0,0.0,0.0,0.0,0.0,0.0,0.0,0.0,0.0,0.0,0.0,0.0,0.0,0.0,0.0,0.0,0.0,0.0,0.0,0.0,0.0,0.0,0.0,0.0,0.0,0.0,0.0,0.0,0.0,0.0,0.0,0.0,0.0,0.0,0.0,0.0,0.0,0.0,0.0,0.0,0.0,0.0,0.0,0.0,0.0,0.0,0.0,0.0,0.0,0.0,0.0,0.0,0.0,0.0,0.0,0.0,0.0,0.0,0.0,0.0,0.0,0.0,0.0,0.0,0.0,0.0,0.0,0.0,0.0,0.0,0.0,0.0,0.0,0.0,0.0,0.0,0.0,0.0,0.0,0.0,0.0,0.0,0.0,0.0,0.0,0.0,0.0,0.0,0.0,0.0,0.0,0.0,0.0,0.0,0.0,0.0,0.0,0.0,0.0,0.0,0.0,0.0,0.0,0.0,0.0,0.0,0.0,0.0,0.0,0.0,0.0,0.0,0.0,0.0,0.0,0.0,0.0,0.0,0.0,0.0,0.0,0.0,0.0,0.0,0.0,0.0,0.0,0.0,0.0,0.0,0.0,0.0,0.0,0.0,0.0,0.0,0.0,0.0,0.0,0.0,0.0,0.0,0.0,0.0,0.0,0.0,0.0,0.0,0.0,0.0,0.0,0.0,0.0,0.0,0.0,0.0,0.0,0.0,0.0,0.0,0.0,0.0,0.0,0.0,0.0,0.0,0.0,0.0,0.0,0.0,0.0,0.0,0.0,0.0,0.0,0.0,0.0,0.0,0.0,0.0,0.0,0.0,0.0,0.0,0.0,0.0,0.0,0.0,0.0,0.0,0.0,0.0,0.0,0.0,0.0,0.0,0.0,0.0,0.0,0.0,0.0,0.0,0.0,0.0,0.0,0.0,0.0,0.0,0.0,0.0,0.0,0.0,0.0,0.0,0.0,0.0,0.0,0.0,0.0,0.0,0.0,0.0,0.0,0.0,0.0,0.0,0.0,0.0,0.0,0.0,0.0,0.0,0.0,0.0,0.0,0.0,0.0,0.0,0.0,0.0,0.0,0.0,0.0,0.0,0.0,0.0,0.0,0.0,0.0,0.0,0.0,0.0,0.0,0.0,0.0,0.0,0.0,0.0,0.0,0.0,0.0,0.0,0.0,0.0,0.0,0.0,0.0,0.0,0.0,0.0,0.0,0.0,0.0,0.0,0.0,0.0,0.0,0.0,0.0,0.0,0.0,0.0,0.0,0.0,0.0,0.0,0.0,0.0,0.0,0.0,0.0,0.0,0.0,0.0,0.0,0.0,0.0,0.0,0.0,0.0,0.0,0.0,0.0,0.0,0.0,0.0,0.0,0.0,0.0,0.0,0.0,0.0,0.0,0.0,0.0,0.0,0.0,0.0,0.0,0.0,0.0,0.0,0.0,0.0,0.0,0.0,0.0,0.0,0.0,0.0,0.0,0.0,0.0,0.0,0.0,0.0,0.0,0.0,0.0,0.0,0.0,0.0,0.0,0.0,0.0,0.0,0.0,0.0,0.0,0.0,0.0,0.0,0.0,0.0,0.0,0.0,0.0,0.0,0.0,0.0,0.0,0.0,0.0,0.0,0.0,0.0,0.0,0.0,0.0,0.0,0.0,0.0,0.0,0.0,0.0,0.0,0.0,0.0,0.0,0.0,0.0,0.0,0.0,0.0,0.0,0.0,0.0,0.0,0.0,0.0,0.0,0.0,0.0,0.0,0.0,0.0,0.0,0.0,0.0,0.0,0.0,0.0,0.0,0.0,0.0,0.0,0.0,0.0,0.0,0.0,0.0,0.0,0.0,0.0,0.0,0.0,0.0,0.0,0.0,0.0,0.0,0.0,0.0,0.0,0.0,0.0,0.0,0.0,0.0,0.0,0.0,0.0,0.0,0.0,0.0,0.0,0.0,0.0,0.0,0.0,0.0,0.0,0.0,0.0,0.0,0.0,0.0,0.0,0.0,0.0,0.0,0.0,0.0,0.0,0.0,0.0,0.0,0.0,0.0,0.0,0.0,0.0,0.0,0.0,0.0,0.0,0.0,0.0,0.0,0.0,0.0,0.0,0.0,0.0,0.0,0.0,0.0,0.0,0.0,0.0,0.0,0.0,0.0,0.0,0.0,0.0,0.0,0.0,0.0,0.0,0.0,0.0,0.0,0.0,0.0,0.0,0.0,0.0,0.0,0.0,0.0,0.0,0.0,0.0,0.0,0.0,0.0,0.0,0.0,0.0,0.0,0.0,0.0,0.0,0.0,0.0,0.0,0.0,0.0,0.0,0.0,0.0,0.0,0.0,0.0,0.0,0.0,0.0,0.0,0.0,0.0,0.0,0.0,0.0,0.0,0.0,0.0,0.0,0.0,0.0,0.0,0.0,0.0,0.0,0.0,0.0,0.0,0.0,0.0,0.0,0.0,0.0,0.0,0.0,0.0,0.0,0.0,0.0,0.0,0.0,0.0,0.0,0.0,0.0,0.0,0.0,0.0,0.0,0.0,0.0,0.0,0.0,0.0,0.0,0.0,0.0,0.0,0.0,0.0,0.0,0.0,0.0,0.0,0.0,0.0,0.0,0.0,0.0,0.0,0.0,0.0,0.0,0.0,0.0,0.0,0.0,0.0,0.0,0.0,0.0,0.0,0.0,0.0,0.0,0.0,0.0,0.0,0.0,0.0,0.0,0.0,0.0,0.0,0.0,0.0,0.0,0.0,0.0,0.0,0.0,0.0,0.0,0.0,0.0,0.0,0.0,0.0,0.0,0.0,0.0,0.0,0.0,0.0,0.0,0.0,0.0,0.0,0.0,0.0,0.0,0.0,0.0,0.0,0.0,0.0,0.0,0.0,0.0,0.0,0.0,0.0,0.0,0.0,0.0,0.0,0.0,0.0,0.0,0.0,0.0,0.0,0.0,0.0,0.0,0.0,0.0,0.0,0.0,0.0,0.0,0.0,0.0,0.0,0.0,0.0,0.0,0.0,0.0,0.0,0.0,0.0,0.0,0.0,0.0,0.0,0.0,0.0,0.0,0.0,0.0,0.0,0.0,0.0,0.0,0.0,0.0,0.0,0.0,0.0,0.0,0.0,0.0,0.0,0.0,0.0,0.0,0.0,0.0,0.0,0.0,0.0,0.0,0.0,0.0,0.0,0.0,0.0,0.0,0.0,0.0,0.0,0.0,0.0,0.0,0.0,0.0,0.0,0.0,0.0,0.0,0.0,0.0,0.0,0.0,0.0,0.0,0.0,0.0,0.0,0.0,0.0,0.0,0.0,0.0,0.0,0.0,0.0,0.0,0.0,0.0,0.0,0.0,0.0,0.0,0.0,0.0,0.0,0.0,0.0,0.0,0.0,0.4706,0.0,0.0,0.0,0.0,0.0,0.0,0.0,0.0,0.0,0.0,0.0,0.0,0.0,0.0,0.0,0.0,0.0,0.0,0.0,0.0,0.0,0.0,0.0,0.0,0.0,0.0,0.0,0.0,0.0,0.0,0.0,0.0,0.0,0.0,0.0,0.0,0.0,0.0,0.0,0.0,0.0,0.0,0.0,0.0,0.0,0.0,0.0,0.0,0.0,0.0,0.0,0.0,0.0,0.0,0.0,0.0,0.0,0.0,0.0,0.0,0.0,0.0,0.0,0.0,0.0,0.0,0.0,0.0,0.0,0.0,0.0,0.0,0.0,0.0,0.0,0.0,0.0,0.0,0.0,0.0,0.0,0.0,0.0,0.0,0.0,0.0,0.0,0.0,0.0,0.0,0.0,0.0,0.0,0.0,0.0,0.0,0.0,0.0,0.0,0.0,0.0,0.0,0.0,0.0,0.0,0.0,0.0,0.0,0.0,0.0,0.4622,0.4594,0.4572,0.4577,0.4656,0.0,0.0,0.0,0.0,0.0,0.0,0.0,0.0,0.0,0.0,0.0,0.0,0.0,0.0,0.0,0.0,0.0,0.0,0.0,0.0,0.0,0.0,0.0,0.0,0.0,0.0,0.0,0.0,0.0,0.0,0.0,0.0,0.0,0.0,0.0,0.0,0.0,0.0,0.0,0.0,0.0,0.0,0.0,0.0,0.0,0.0,0.0,0.0,0.0,0.0,0.0,0.0,0.0,0.0,0.0,0.0,0.0,0.0,0.0,0.0,0.0,0.0,0.0,0.0,0.0,0.0,0.0,0.0,0.0,0.0,0.0,0.0,0.0,0.0,0.0,0.0,0.0,0.0,0.0,0.0,0.0,0.0,0.0,0.0,0.0,0.0,0.0,0.0,0.0,0.0,0.0,0.0,0.0,0.0,0.0,0.0,0.0,0.0,0.0,0.0,0.0,0.0,0.0,0.0,0.0,0.0,0.0,0.0,0.0,0.0,0.0,0.0,0.5052,0.5052,0.5161,0.0,0.0,0.0,0.0,0.0,0.0,0.0,0.0,0.0,0.0,0.0,0.0,0.0,0.0,0.0,0.0,0.0,0.0,0.0,0.0,0.0,0.0,0.0,0.0,0.0,0.0,0.0,0.0,0.0,0.0,0.0,0.0,0.0,0.0,0.0,0.0,0.0,0.0,0.0,0.0,0.0,0.0,0.0,0.0,0.0,0.0,0.0,0.0,0.0,0.0,0.0,0.0,0.0,0.0,0.0,0.0,0.0,0.0,0.0,0.0,0.0,0.0,0.0,0.0,0.0,0.0,0.0,0.0,0.0,0.0,0.0,0.0,0.0,0.0,0.0,0.0,0.0,0.0,0.0,0.0,0.0,0.0,0.0,0.0,0.0,0.0,0.0,0.0,0.0,0.0,0.0,0.0,0.0,0.0,0.0,0.0,0.0,0.0,0.0,0.0,0.0,0.0,0.0,0.0,0.0,0.0,0.0,0.0,0.0,0.0,0.5353,0.689,0.6713,0.0,0.6705,0.0,0.0,0.0,0.0,0.0,0.0,0.0,0.0,0.0,0.0,0.0,0.0,0.0,0.0,0.0,0.0,0.0,0.0,0.0,0.0,0.0,0.0,0.0,0.0,0.0,0.0,0.0,0.0,0.0,0.0,0.0,0.0,0.0,0.0,0.0,0.0,0.0,0.0,0.0,0.0,0.0,0.0,0.0,0.0,0.0,0.0,0.0,0.0,0.0,0.0,0.0,0.0,0.0,0.0,0.0,0.0,0.0,0.0,0.0,0.0,0.0,0.0,0.0,0.0,0.0,0.0,0.0,0.0,0.0,0.0,0.0,0.0,0.0,0.0,0.0,0.0,0.0,0.0,0.0,0.0,0.0,0.0,0.0,0.0,0.0,0.0,0.0,0.0,0.0,0.0,0.0,0.0,0.0,0.0,0.0,0.0,0.0,0.0,0.0,0.0,0.0,0.0,0.0,0.0,0.0,0.0,0.0,0.0,0.0,0.0,0.0,0.7125,0.7072,0.7061,0.0,0.0,0.0,0.0,0.0,0.0,0.0,0.0,0.0,0.0,0.0,0.0,0.0,0.0,0.0,0.0,0.0,0.0,0.0,0.0,0.0,0.0,0.0,0.0,0.0,0.0,0.0,0.0,0.0,0.0,0.0,0.0,0.0,0.0,0.0,0.0,0.0,0.0,0.0,0.0,0.0,0.0,0.0,0.0,0.0,0.0,0.0,0.0,0.0,0.0,0.0,0.0,0.0,0.0,0.0,0.0,0.0,0.0,0.0,0.0,0.0,0.0,0.0,0.0,0.0,0.0,0.0,0.0,0.0,0.0,0.0,0.0,0.0,0.0,0.0,0.0,0.0,0.0,0.0,0.0,0.0,0.0,0.0,0.0,0.0,0.0,0.0,0.0,0.0,0.0,0.0,0.0,0.0,0.0,0.0,0.0,0.0,0.0,0.0,0.0,0.0,0.0,0.0,0.0,0.0,0.0,0.0,0.0,0.0,0.0,0.6797,0.0,0.768,0.7418,0.722,0.7138,0.0,0.0,0.0,0.0,0.0,0.0,0.0,0.0,0.0,0.0,0.0,0.0,0.0,0.0,0.0,0.0,0.0,0.0,0.0,0.0,0.0,0.0,0.0,0.0,0.0,0.0,0.0,0.0,0.0,0.0,0.0,0.0,0.0,0.0,0.0,0.0,0.0,0.0,0.0,0.0,0.0,0.0,0.0,0.0,0.0,0.0,0.0,0.0,0.0,0.0,0.0,0.0,0.0,0.0,0.0,0.0,0.0,0.0,0.0,0.0,0.0,0.0,0.0,0.0,0.0,0.0,0.0,0.0,0.0,0.0,0.0,0.0,0.0,0.0,0.0,0.0,0.0,0.0,0.0,0.0,0.0,0.0,0.0,0.0,0.0,0.0,0.0,0.0,0.0,0.0,0.0,0.0,0.0,0.0,0.0,0.0,0.0,0.0,0.0,0.0,0.0,0.0,0.0,0.0,0.0,0.0,0.0,0.0,0.0,0.7852,0.7817,0.9188,0.8061,0.7271,0.0,0.0,0.0,0.0,0.0,0.0,0.0,0.0,0.0,0.0,0.0,0.0,0.0,0.0,0.0,0.0,0.0,0.0,0.0,0.0,0.0,0.0,0.0,0.0,0.0,0.0,0.0,0.0,0.0,0.0,0.0,0.0,0.0,0.0,0.0,0.0,0.0,0.0,0.0,0.0,0.0,0.0,0.0,0.0,0.0,0.0,0.0,0.0,0.0,0.0,0.0,0.0,0.0,0.0,0.0,0.0,0.0,0.0,0.0,0.0,0.0,0.0,0.0,0.0,0.0,0.0,0.0,0.0,0.0,0.0,0.0,0.0,0.0,0.0,0.0,0.0,0.0,0.0,0.0,0.0,0.0,0.0,0.0,0.0,0.0,0.0,0.0,0.0,0.0,0.0,0.0,0.0,0.0,0.0,0.0,0.0,0.0,0.0,0.0,0.0,0.0,0.0,0.0,0.0,0.0,0.0,0.0,0.0,0.0,0.6353,0.6884,0.8156,0.0,0.8369,0.7549,0.0,0.0,0.0,0.0,0.0,0.0,0.0,0.0,0.0,0.0,0.0,0.0,0.0,0.0,0.0,0.0,0.0,0.0,0.0,0.0,0.0,0.0,0.0,0.0,0.0,0.0,0.0,0.0,0.0,0.0,0.0,0.0,0.0,0.0,0.0,0.0,0.0,0.0,0.0,0.0,0.0,0.0,0.0,0.0,0.0,0.0,0.0,0.0,0.0,0.0,0.0,0.0,0.0,0.0,0.0,0.0,0.0,0.0,0.0,0.0,0.0,0.0,0.0,0.0,0.0,0.0,0.0,0.0,0.0,0.0,0.0,0.0,0.0,0.0,0.0,0.0,0.0,0.0,0.0,0.0,0.0,0.0,0.0,0.0,0.0,0.0,0.0,0.0,0.0,0.0,0.0,0.0,0.0,0.0,0.0,0.0,0.0,0.0,0.0,0.0,0.0,0.0,0.0,0.0,0.0,0.0,0.0,0.0,0.0,0.5747,0.0,0.8733,0.0,0.8411,0.748,0.0,0.0,0.0,0.0,0.0,0.0,0.0,0.0,0.0,0.0,0.0,0.0,0.0,0.0,0.0,0.0,0.0,0.0,0.0,0.0,0.0,0.0,0.0,0.0,0.0,0.0,0.0,0.0,0.0,0.0,0.0,0.0,0.0,0.0,0.0,0.0,0.0,0.0,0.0,0.0,0.0,0.0,0.0,0.0,0.0,0.0,0.0,0.0,0.0,0.0,0.0,0.0,0.0,0.0,0.0,0.0,0.0,0.0,0.0,0.0,0.0,0.0,0.0,0.0,0.0,0.0,0.0,0.0,0.0,0.0,0.0,0.0,0.0,0.0,0.0,0.0,0.0,0.0,0.0,0.0,0.0,0.0,0.0,0.0,0.0,0.0,0.0,0.0,0.0,0.0,0.0,0.0,0.0,0.0,0.0,0.0,0.0,0.0,0.0,0.0,0.0,0.0,0.0,0.0,0.0,0.0,0.0,0.0,0.5688,0.7947,0.892,0.941,0.9472,0.814,0.7054,0.0,0.0,0.0,0.0,0.0,0.0,0.0,0.0,0.0,0.0,0.0,0.0,0.0,0.0,0.0,0.0,0.0,0.0,0.0,0.0,0.0,0.0,0.0,0.0,0.0,0.0,0.0,0.0,0.0,0.0,0.0,0.0,0.0,0.0,0.0,0.0,0.0,0.0,0.0,0.0,0.0,0.0,0.0,0.0,0.0,0.0,0.0,0.0,0.0,0.0,0.0,0.0,0.0,0.0,0.0,0.0,0.0,0.0,0.0,0.0,0.0,0.0,0.0,0.0,0.0,0.0,0.0,0.0,0.0,0.0,0.0,0.0,0.0,0.0,0.0,0.0,0.0,0.0,0.0,0.0,0.0,0.0,0.0,0.0,0.0,0.0,0.0,0.0,0.0,0.0,0.0,0.0,0.0,0.0,0.0,0.0,0.0,0.0,0.0,0.0,0.0,0.0,0.0,0.0,0.0,0.0,0.0,0.0,0.0,0.7267,0.8095,0.8862,0.9486,0.8113,0.7483,0.0,0.0,0.0,0.0,0.0,0.0,0.0,0.0,0.0,0.0,0.0,0.0,0.0,0.0,0.0,0.0,0.0,0.0,0.0,0.0,0.0,0.0,0.0,0.0,0.0,0.0,0.0,0.0,0.0,0.0,0.0,0.0,0.0,0.0,0.0,0.0,0.0,0.0,0.0,0.0,0.0,0.0,0.0,0.0,0.0,0.0,0.0,0.0,0.0,0.0,0.0,0.0,0.0,0.0,0.0,0.0,0.0,0.0,0.0,0.0,0.0,0.0,0.0,0.0,0.0,0.0,0.0,0.0,0.0,0.0,0.0,0.0,0.0,0.0,0.0,0.0,0.0,0.0,0.0,0.0,0.0,0.0,0.0,0.0,0.0,0.0,0.0,0.0,0.0,0.0,0.0,0.0,0.0,0.0,0.0,0.0,0.0,0.0,0.0,0.0,0.0,0.0,0.0,0.0,0.0,0.0,0.0,0.0,0.0,0.9286,0.9932,1.0491,1.0927,0.978,0.8988,0.862,0.0,0.0,0.0,0.0,0.0,0.0,0.0,0.0,0.0,0.0,0.0,0.0,0.0,0.0,0.0,0.0,0.0,0.0,0.0,0.0,0.0,0.0,0.0,0.0,0.0,0.0,0.0,0.0,0.0,0.0,0.0,0.0,0.0,0.0,0.0,0.0,0.0,0.0,0.0,0.0,0.0,0.0,0.0,0.0,0.0,0.0,0.0,0.0,0.0,0.0,0.0,0.0,0.0,0.0,0.0,0.0,0.0,0.0,0.0,0.0,0.0,0.0,0.0,0.0,0.0,0.0,0.0,0.0,0.0,0.0,0.0,0.0,0.0,0.0,0.0,0.0,0.0,0.0,0.0,0.0,0.0,0.0,0.0,0.0,0.0,0.0,0.0,0.0,0.0,0.0,0.0,0.0,0.0,0.0,0.0,0.0,0.0,0.0,0.0,0.0,0.0,0.0,0.0,0.0,0.0,0.0,0.0,0.0,1.3392,1.4094,1.4161,1.354,1.276,1.1311,0.0,0.0,0.0,0.0,0.0,0.0,0.0,0.0,0.0,0.0,0.0,0.0,0.0,0.0,0.0,0.0,0.0,0.0,0.0,0.0,0.0,0.0,0.0,0.0,0.0,0.0,0.0,0.0,0.0,0.0,0.0,0.0,0.0,0.0,0.0,0.0,0.0,0.0,0.0,0.0,0.0,0.0,0.0,0.0,0.0,0.0,0.0,0.0,0.0,0.0,0.0,0.0,0.0,0.0,0.0,0.0,0.0,0.0,0.0,0.0,0.0,0.0,0.0,0.0,0.0,0.0,0.0,0.0,0.0,0.0,0.0,0.0,0.0,0.0,0.0,0.0,0.0,0.0,0.0,0.0,0.0,0.0,0.0,0.0,0.0,0.0,0.0,0.0,0.0,0.0,0.0,0.0,0.0,0.0,0.0,0.0,0.0,0.0,0.0,0.0,0.0,0.0,0.0,0.0,0.0,0.0,0.0,0.0,0.0,1.5996,1.8502,1.9031,1.735,1.4749,1.3087,0.0,0.0,0.0,0.0,0.0,0.0,0.0,0.0,0.0,0.0,0.0,0.0,0.0,0.0,0.0,0.0,0.0,0.0,0.0,0.0,0.0,0.0,0.0,0.0,0.0,0.0,0.0,0.0,0.0,0.0,0.0,0.0,0.0,0.0,0.0,0.0,0.0,0.0,0.0,0.0,0.0,0.0,0.0,0.0,0.0,0.0,0.0,0.0,0.0,0.0,0.0,0.0,0.0,0.0,0.0,0.0,0.0,0.0,0.0,0.0,0.0,0.0,0.0,0.0,0.0,0.0,0.0,0.0,0.0,0.0,0.0,0.0,0.0,0.0,0.0,0.0,0.0,0.0,0.0,0.0,0.0,0.0,0.0,0.0,0.0,0.0,0.0,0.0,0.0,0.0,0.0,0.0,0.0,0.0,0.0,0.0,0.0,0.0,0.0,0.0,0.0,0.0,0.0,0.0,0.0,0.0,0.0,0.0,1.5509,1.7628,2.1302,2.2732,2.1646,1.8259,1.5656,0.0,0.0,0.0,0.0,0.0,0.0,0.0,0.0,0.0,0.0,0.0,0.0,0.0,0.0,0.0,0.0,0.0,0.0,0.0,0.0,0.0,0.0,0.0,0.0,0.0,0.0,0.0,0.0,0.0,0.0,0.0,0.0,0.0,0.0,0.0,0.0,0.0,0.0,0.0,0.0,0.0,0.0,0.0,0.0,0.0,0.0,0.0,0.0,0.0,0.0,0.0,0.0,0.0,0.0,0.0,0.0,0.0,0.0,0.0,0.0,0.0,0.0,0.0,0.0,0.0,0.0,0.0,0.0,0.0,0.0,0.0,0.0,0.0,0.0,0.0,0.0,0.0,0.0,0.0,0.0,0.0,0.0,0.0,0.0,0.0,0.0,0.0,0.0,0.0,0.0,0.0,0.0,0.0,0.0,0.0,0.0,0.0,0.0,0.0,0.0,0.0,0.0,0.0,0.0,0.0,0.0,0.0,0.0,1.7585,1.8834,2.2921,2.5236,2.5396,2.2003,1.8352,0.0,0.0,0.0,0.0,0.0,0.0,0.0,0.0,0.0,0.0,0.0,0.0,0.0,0.0,0.0,0.0,0.0,0.0,0.0,0.0,0.0,0.0,0.0,0.0,0.0,0.0,0.0,0.0,0.0,0.0,0.0,0.0,0.0,0.0,0.0,0.0,0.0,0.0,0.0,0.0,0.0,0.0,0.0,0.0,0.0,0.0,0.0,0.0,0.0,0.0,0.0,0.0,0.0,0.0,0.0,0.0,0.0,0.0,0.0,0.0,0.0,0.0,0.0,0.0,0.0,0.0,0.0,0.0,0.0,0.0,0.0,0.0,0.0,0.0,0.0,0.0,0.0,0.0,0.0,0.0,0.0,0.0,0.0,0.0,0.0,0.0,0.0,0.0,0.0,0.0,0.0,0.0,0.0,0.0,0.0,0.0,0.0,0.0,0.0,0.0,0.0,0.0,0.0,0.0,0.0,0.0,0.0,0.0,1.824,2.082,2.3686,2.5311,2.5548,2.1579,1.8697,0.0,0.0,0.0,0.0,0.0,0.0,0.0,0.0,0.0,0.0,0.0,0.0,0.0,0.0,0.0,0.0,0.0,0.0,0.0,0.0,0.0,0.0,0.0,0.0,0.0,0.0,0.0,0.0,0.0,0.0,0.0,0.0,0.0,0.0,0.0,0.0,0.0,0.0,0.0,0.0,0.0,0.0,0.0,0.0,0.0,0.0,0.0,0.0,0.8713,0.0,0.0,0.0,0.0,0.0,0.0,0.0,0.0,0.0,0.0,0.0,0.0,0.0,0.0,0.0,0.0,0.0,0.0,0.0,0.0,0.0,0.0,0.0,0.0,0.0,0.0,0.0,0.0,0.0,0.0,0.0,0.0,0.0,0.0,0.0,0.0,0.0,0.0,0.0,0.0,0.0,0.0,0.0,0.0,0.0,0.0,0.0,0.0,0.0,0.0,0.0,0.0,0.0,0.0,0.0,0.0,0.0,0.0,0.0,1.8856,2.1994,2.423,2.5457,2.5463,2.2656,2.0106,0.0,0.0,0.0,0.0,0.0,0.0,0.0,0.0,0.0,0.0,0.0,0.0,0.0,0.0,0.0,0.0,0.0,0.0,0.0,0.0,0.0,0.0,0.0,0.0,0.0,0.0,0.0,0.0,0.0,0.0,0.0,0.0,0.0,0.0,0.0,0.0,0.0,0.0,0.0,0.0,0.0,0.0,0.0,0.0,0.0,0.0,0.0,0.0,0.0,0.0,0.0,0.0,0.0,0.0,0.0,0.0,0.0,0.0,0.0,0.0,0.0,0.0,0.0,0.0,0.0,0.0,0.0,0.0,0.0,0.0,0.0,0.0,0.0,0.0,0.0,0.0,0.0,0.0,0.0,0.0,0.0,0.0,0.0,0.0,0.0,0.0,0.0,0.0,0.0,0.0,0.0,0.0,0.0,0.0,0.0,0.0,0.0,0.0,0.0,0.0,0.0,0.0,0.0,0.0,0.0,0.0,0.0,1.6521,1.945,2.3014,2.4737,2.5576,2.556,2.4023,2.1542,1.8144,0.0,0.0,0.0,0.0,0.0,0.0,0.0,0.0,0.0,0.0,0.0,0.0,0.0,0.0,0.0,0.0,0.0,0.0,0.0,0.0,0.0,0.0,0.0,0.0,0.0,0.0,0.0,0.0,0.0,0.0,0.0,0.0,0.0,0.0,0.0,0.0,0.0,0.0,0.8239,0.9388,0.0,0.0,0.0,0.0,0.0,0.0,0.0,0.0,1.321,0.0,0.0,0.0,0.0,0.0,0.0,0.0,0.0,0.0,0.0,0.0,0.0,0.0,0.0,0.0,0.0,0.0,0.0,0.0,0.0,0.0,0.0,0.0,0.0,0.0,0.0,0.0,0.0,0.0,0.0,0.0,0.0,0.0,0.0,0.0,0.0,0.0,0.0,0.0,0.0,0.0,0.0,0.0,0.0,0.0,0.0,0.0,0.0,0.0,0.0,0.0,0.0,0.0,0.0,0.0,0.0,1.6946,1.7419,2.0024,2.4895,2.5291,2.5467,2.5476,2.3955,2.1484,1.8064,0.0,0.0,0.0,0.0,0.0,0.0,0.0,0.0,0.0,0.0,0.0,0.0,0.0,0.0,0.0,0.0,0.0,0.0,0.0,0.0,0.0,0.0,0.0,0.0,0.0,0.0,0.0,0.0,0.0,0.0,0.0,0.0,0.0,0.0,0.0,0.0,0.0,0.0,0.0,1.0848,1.1017,0.0,0.0,0.0,0.0,0.0,0.0,0.0,0.0,1.5663,0.0,0.0,0.0,0.0,0.0,0.0,0.0,0.0,0.0,0.0,0.0,0.0,0.0,0.0,0.0,0.0,0.0,0.0,0.0,0.0,0.0,0.0,0.0,0.0,0.0,0.0,0.0,0.0,0.0,0.0,0.0,0.0,0.0,0.0,0.0,0.0,0.0,0.0,0.0,0.0,0.0,0.0,0.0,0.0,0.0,0.0,0.0,0.0,0.0,0.0,0.0,0.0,0.0,0.0,0.0,1.741,1.9027,2.1602,2.5286,2.5455,2.5461,2.5454,2.3508,2.1006,0.0,0.0,0.0,0.0,0.0,0.0,0.0,0.0,0.0,0.0,0.0,0.0,0.0,0.0,0.0,0.0,0.0,0.0,0.0,0.0,0.0,0.0,0.0,0.0,0.0,0.0,0.0,0.0,0.0,0.0,0.0,0.0,0.0,0.0,0.0,0.0,0.0,0.0,0.0,0.0,1.2596,1.2997,1.5519,0.0,0.0,0.0,0.0,0.0,0.0,1.4673,1.4811,0.0,0.0,0.0,0.0,0.0,0.0,0.0,0.0,0.0,0.0,0.0,0.0,0.0,0.0,0.0,0.0,0.0,0.0,0.0,0.0,0.0,0.0,0.0,0.0,0.0,0.0,0.0,0.0,0.0,0.0,0.0,0.0,0.0,0.0,0.0,0.0,0.0,0.0,0.0,0.0,0.0,0.0,0.0,0.0,0.0,0.0,0.0,0.0,0.0,0.0,0.0,0.0,0.0,0.0,0.0,1.7576,2.033,2.2883,2.5265,2.5445,2.5468,2.541,2.2898,2.0368,0.0,0.0,0.0,0.0,0.0,0.0,0.0,0.0,0.0,0.0,0.0,0.0,0.0,0.0,0.0,0.0,0.0,0.0,0.0,0.0,0.0,0.0,0.0,0.0,0.0,0.0,0.0,0.0,0.0,0.0,0.0,0.0,0.0,0.0,0.0,0.0,0.0,0.0,0.0,0.0,0.0,1.4709,1.6869,1.5439,0.0,0.0,0.0,0.0,1.5945,1.5884,0.0,0.0,0.0,0.0,0.0,0.0,0.0,0.0,0.0,0.0,0.0,0.0,0.0,0.0,0.0,0.0,0.0,0.0,0.0,0.0,0.0,0.0,0.0,0.0,0.0,0.0,0.0,0.0,0.0,0.0,0.0,0.0,0.0,0.0,0.0,0.0,0.0,0.0,0.0,0.0,0.0,0.0,0.0,0.0,0.0,0.0,0.0,0.0,0.0,0.0,0.0,0.0,0.0,0.0,0.0,0.0,1.7768,2.0333,2.2853,2.525,2.5359,2.5331,2.5274,2.2243,1.9696,0.0,0.0,0.0,0.0,0.0,0.0,0.0,0.0,0.0,0.0,0.0,0.0,0.0,0.0,0.0,0.0,0.0,0.0,0.0,0.0,0.0,0.0,0.0,0.0,0.0,0.0,0.0,0.0,0.0,0.0,0.0,0.0,0.0,0.0,0.0,0.0,0.0,0.0,0.0,0.0,0.0,1.4283,1.5327,1.5247,1.4346,0.0,0.0,1.578,1.8571,1.8972,0.0,0.0,0.0,0.0,0.0,0.0,0.0,0.0,0.0,0.0,0.0,0.0,0.0,0.0,0.0,0.0,0.0,0.0,0.0,0.0,0.0,0.0,0.0,0.0,0.0,0.0,0.0,0.0,0.0,0.0,0.0,0.0,0.0,0.0,0.0,0.0,0.0,0.0,0.0,0.0,0.0,0.0,0.0,0.0,0.0,0.0,0.0,0.0,0.0,0.0,0.0,0.0,0.0,0.0,0.0,1.5059,1.7864,2.1802,2.4308,2.5303,2.5365,2.5354,2.5339,2.1709,1.9133,0.0,0.0,0.0,0.0,0.0,0.0,0.0,0.0,0.0,0.0,0.0,0.0,0.0,0.0,0.0,0.0,0.0,0.0,0.0,0.0,0.0,0.0,0.0,0.0,0.0,0.0,0.0,0.0,0.0,0.0,0.0,0.0,0.0,0.0,0.0,0.0,0.0,0.0,0.0,0.0,0.0,0.0,1.6154,1.6843,0.0,0.0,0.0,1.6196,1.7442,0.0,0.0,0.0,0.0,0.0,0.0,0.0,0.0,0.0,0.0,0.0,0.0,0.0,0.0,0.0,0.0,0.0,0.0,0.0,0.0,0.0,0.0,0.0,0.0,0.0,0.0,0.0,0.0,0.0,0.0,0.0,0.0,0.0,0.0,0.0,0.0,0.0,0.0,0.0,0.0,0.0,0.0,0.0,0.0,0.0,0.0,0.0,0.0,0.0,0.0,0.0,0.0,0.0,0.0,0.0,0.0,0.0,1.7851,2.2853,2.5411,2.5298,2.5357,2.5364,2.5314,2.1947,0.0,0.0,0.0,0.0,0.0,0.0,0.0,0.0,0.0,0.0,0.0,0.0,0.0,0.0,0.0,0.0,0.0,0.0,0.0,0.0,0.0,0.0,0.0,0.0,0.0,0.0,0.0,0.6152,0.0,0.0,0.0,0.0,0.0,0.0,0.0,0.0,0.0,0.0,0.0,0.0,0.0,0.0,1.7484,1.7154,1.8509,1.9705,0.0,0.0,1.7637,1.7632,2.124,2.186,0.0,0.0,0.0,0.0,0.0,0.0,0.0,0.0,0.0,0.0,0.0,0.0,0.0,0.0,0.0,0.0,0.0,0.0,0.0,0.0,0.0,0.0,0.0,0.0,0.0,0.0,0.0,0.0,0.0,0.0,0.0,0.0,0.0,0.0,0.0,0.0,0.0,0.0,0.0,0.0,0.0,0.0,0.0,0.0,0.0,0.0,0.0,0.0,0.0,0.0,0.0,0.0,0.0,0.0,0.0,1.7917,2.2821,2.5375,2.5293,2.5293,2.5298,2.5265,2.3574,2.112,0.0,0.0,0.0,0.0,0.0,0.0,0.0,0.0,0.0,0.0,0.0,0.0,0.0,0.0,0.0,0.0,0.0,0.0,0.0,0.0,0.0,0.0,0.0,0.0,0.0,0.0,0.0,0.0,0.0,0.0,0.0,0.0,0.0,0.0,0.0,0.0,0.0,0.0,0.0,0.0,0.0,1.7486,1.7624,1.9604,2.0739,0.0,0.0,2.0887,2.1425,2.2721,2.2133,1.7507,0.0,0.0,0.0,0.0,0.0,0.0,0.0,0.0,0.0,0.0,0.0,0.0,0.0,0.0,0.0,0.0,0.0,0.0,0.0,0.0,0.0,0.0,0.0,0.0,0.0,0.0,0.0,0.0,0.0,0.0,0.0,0.0,0.0,0.0,0.0,0.0,0.0,0.0,0.0,0.0,0.0,0.0,0.0,0.0,0.0,0.0,0.0,0.0,0.0,0.0,0.0,0.0,0.0,1.6048,1.7647,2.2643,2.5188,2.5122,2.5152,2.5235,2.5367,2.3793,2.1351,0.0,0.0,0.0,0.0,0.0,0.0,0.0,0.0,0.0,0.0,0.0,0.0,0.0,0.0,0.0,0.0,0.0,0.0,0.0,0.0,0.0,0.0,0.0,0.0,0.0,0.0,0.0,0.0,1.3125,1.3418,1.1328,0.0,0.0,0.0,0.0,0.0,0.0,0.0,0.0,0.0,0.0,1.8431,1.8872,2.0679,0.0,0.0,2.118,2.1269,2.1656,2.1843,2.0743,1.7147,1.6128,0.0,0.0,0.0,0.0,0.0,0.0,0.0,0.0,0.0,0.0,0.0,0.0,0.0,0.0,0.0,0.0,0.0,0.0,0.0,0.0,0.0,0.0,0.0,0.0,0.0,0.0,0.0,0.0,0.0,0.0,0.0,0.0,0.0,0.0,0.0,0.0,0.0,0.0,0.0,0.0,0.0,0.0,0.0,0.0,0.0,0.0,0.0,0.0,0.0,0.0,0.0,0.0,1.6187,1.7458,2.243,2.4969,2.4937,2.5028,2.513,2.5256,2.4256,2.2228,0.0,0.0,0.0,0.0,0.0,0.0,0.0,0.0,0.0,0.0,0.0,0.0,0.0,0.0,0.0,0.0,0.0,0.0,0.0,0.0,0.0,0.0,0.0,0.0,0.0,0.0,0.0,0.0,1.455,1.4491,1.1849,0.0,0.0,0.0,0.0,0.0,0.0,0.0,0.0,0.0,0.0,1.953,1.9748,2.123,2.2287,2.2121,2.1511,2.1197,2.1495,2.1161,1.9993,1.7382,0.0,0.0,0.0,0.0,0.0,0.0,0.0,0.0,0.0,0.0,0.0,0.0,0.0,0.0,0.0,0.0,0.0,0.0,0.0,0.0,0.0,0.0,0.0,0.0,0.0,0.0,0.0,0.0,0.0,0.0,0.7306,0.0,0.0,0.0,0.0,0.0,0.0,0.0,0.0,0.0,0.0,0.0,0.0,0.0,0.0,0.0,0.0,0.0,0.0,0.0,0.0,0.0,0.0,0.0,1.7449,2.2281,2.4792,2.4792,2.4949,2.4997,2.5009,2.5156,2.4075,2.1531,0.0,0.0,0.0,0.0,0.0,0.0,0.0,0.0,0.0,0.0,0.0,0.0,0.0,0.0,0.0,0.0,0.0,0.0,0.0,0.0,0.0,0.0,0.0,0.0,0.0,0.0,0.8334,1.0933,1.2567,0.0,0.0,0.0,0.0,0.0,0.0,0.0,0.0,0.0,0.0,1.8856,2.0709,2.0066,2.1132,2.2033,2.1892,2.1285,2.0973,2.137,2.1097,2.0349,0.0,0.0,0.0,0.0,0.0,0.0,0.0,0.0,0.0,0.0,0.0,0.0,0.0,0.0,0.0,0.0,0.0,0.0,0.0,0.0,0.0,0.0,0.0,0.0,0.0,0.0,0.0,1.0445,0.9867,0.0,0.0,0.0,0.0,0.0,0.0,0.0,0.0,0.0,0.0,0.0,1.6561,1.7371,0.0,0.0,0.0,0.0,0.0,0.0,0.0,0.0,0.0,0.0,0.0,0.0,1.6459,1.7337,2.2065,2.4591,2.4599,2.4759,2.491,2.4985,2.5203,2.4143,2.1659,0.0,0.0,0.0,0.0,0.0,0.0,0.0,0.0,0.0,0.0,0.0,0.0,0.0,0.0,0.0,0.0,0.0,0.0,0.0,0.0,0.0,0.0,0.0,0.0,0.0,1.1302,0.0,0.0,0.0,0.0,0.0,0.0,0.0,0.0,0.0,0.0,0.0,1.672,1.8251,1.9382,2.0725,2.2497,2.2797,2.2886,0.0,0.0,0.0,0.0,0.0,0.0,0.0,0.0,0.0,0.0,0.0,0.0,0.0,0.0,1.2651,1.0339,1.045,1.0755,1.0235,0.0,0.0,0.0,0.0,0.0,0.0,0.0,0.0,0.0,0.0,0.0,0.0,0.0,0.0,1.4003,0.0,1.2925,0.0,0.0,0.0,0.0,0.0,0.0,0.0,0.0,1.7937,1.8982,1.8793,1.9507,1.9386,0.0,1.8604,1.6521,0.0,0.0,0.0,0.0,0.0,0.0,0.0,0.0,1.6739,1.7532,2.2004,2.4401,2.441,2.4662,2.4842,2.4924,2.5176,2.4533,2.294,1.9917,1.7639,0.0,0.0,0.0,0.0,0.0,0.0,0.0,0.0,0.0,0.0,0.0,0.0,0.0,0.0,0.0,0.0,0.0,0.0,0.0,0.0,0.0,0.0,0.0,1.2941,0.0,0.0,0.0,0.0,0.0,0.0,0.0,0.0,0.0,1.7608,1.8273,1.9054,2.0293,2.0938,2.1813,2.3213,0.0,0.0,0.0,0.0,0.0,0.0,0.0,1.9538,1.8944,1.8124,1.745,1.7205,1.5895,1.5286,1.6474,0.0,0.0,1.2766,1.2275,1.2441,1.3162,1.3013,1.2459,1.1551,1.1703,1.1517,0.0,0.0,0.0,0.0,0.0,0.0,0.0,0.0,1.7808,1.7732,0.0,1.7706,0.0,0.0,0.0,0.0,0.0,1.7396,0.0,0.0,2.223,2.331,2.1797,2.2089,2.1902,2.1189,2.1272,1.9989,1.7515,1.6573,0.0,0.0,0.0,0.0,0.0,0.0,1.7445,1.828,2.2161,2.4199,2.4218,2.4583,2.4797,2.4811,2.5096,2.5254,2.5168,2.2919,2.1251,2.0306,1.564,0.0,0.0,0.0,0.0,0.0,0.0,0.0,0.0,0.0,0.0,0.0,0.0,0.0,0.0,0.0,0.0,0.0,0.0,0.0,0.0,1.2858,0.0,0.0,0.0,0.0,0.0,0.0,0.0,0.0,0.0,0.0,1.8173,1.9774,2.1258,2.1832,0.0,0.0,0.0,0.0,2.2221,2.147,2.1062,2.0639,1.9972,1.9807,1.9777,1.9855,0.0,0.0,1.8561,1.8006,1.7179,1.5837,1.6042,1.6367,1.6053,1.3796,1.2975,1.5605,1.4611,1.2997,1.194,1.2301,1.252,2.0776,0.0,0.0,0.0,0.0,1.8185,1.9095,2.0391,2.043,2.0098,1.955,1.9418,0.0,0.0,0.0,0.0,0.0,0.0,1.8569,1.9389,2.1142,2.2233,2.2754,2.2892,2.2825,2.26,2.2629,2.2258,2.1525,2.124,1.8275,1.285,0.0,0.0,0.0,0.0,1.9026,1.9924,2.2721,2.4199,2.4199,2.4462,2.4654,2.4804,2.4902,2.4974,2.5063,2.4411,2.3156,2.129,1.9252,0.0,0.0,0.0,0.0,0.0,0.0,0.0,0.0,0.0,0.0,0.0,0.0,0.0,0.0,0.0,0.0,0.0,0.0,0.0,1.2149,1.4592,1.5481,0.0,0.0,0.0,0.0,0.0,0.0,0.0,0.0,0.0,1.9261,2.0787,2.2072,0.0,0.0,2.1978,2.2363,2.2265,2.2072,2.1897,0.0,0.0,0.0,2.0021,1.9358,1.9582,1.9057,1.8644,1.8743,1.8336,1.773,1.6888,1.5934,1.5437,1.6195,1.576,1.5164,1.5207,1.4885,1.4348,1.3433,1.3368,1.3303,2.3563,2.0736,2.0459,2.0393,2.0505,2.0845,2.1692,2.2829,2.2848,2.2567,2.2105,2.1997,2.0935,1.9149,1.8219,0.0,0.0,0.0,1.984,2.1104,2.1498,2.2066,2.2745,2.2635,2.2556,2.257,2.2699,2.278,2.2845,2.2776,2.0251,1.5567,0.0,0.0,1.4951,1.7892,1.9874,2.0852,2.292,2.4056,2.4208,2.4401,2.4591,2.4797,2.4804,2.4835,2.4904,2.4911,2.4295,2.2918,2.1407,1.9241,0.0,0.0,0.0,0.0,0.0,0.0,0.0,0.0,0.0,0.0,0.0,0.9329,0.0,0.0,0.0,0.0,1.1964,1.6084,1.5156,1.6295,0.0,0.0,0.0,0.0,0.0,0.0,0.0,1.5058,1.8004,2.0079,2.0017,2.1037,2.2077,2.2834,2.2253,2.1981,2.2627,0.0,2.1988,2.1828,2.1738,2.1534,2.1134,2.0093,1.9217,1.8976,1.8299,1.7993,1.8458,1.7973,1.7374,1.6951,1.6126,1.5478,1.5756,1.58,1.5589,1.4835,1.4502,1.4212,1.3826,1.3792,1.3624,2.528,2.5276,2.4511,2.3667,2.296,2.3669,2.4316,2.4879,2.485,2.484,2.484,2.4819,2.3699,2.1796,1.9875,0.0,2.1089,2.1068,2.1715,2.3015,2.2703,2.2374,2.1995,2.1698,2.1536,2.1567,2.1871,2.2091,2.2215,2.2044,2.108,1.9406,1.966,1.8985,1.7559,1.8994,2.0334,2.144,2.2942,2.3876,2.419,2.4375,2.4551,2.4738,2.4753,2.476,2.4775,2.4775,2.4782,2.474,2.2573,2.2514,2.483,0.0,0.0,0.0,0.0,0.0,0.0,0.0,0.0,0.0,0.0,0.0,0.0,0.0,0.0,0.0,1.3554,0.0,1.9308,1.7891,0.0,0.0,0.0,1.5262,1.562,1.7295,1.7948,1.6655,0.0,0.0,2.038,0.0,2.1486,2.285,2.3028,2.2991,2.2928,2.2337,2.1751,2.1117,2.0943,2.0764,2.0514,1.9753,1.8894,1.8182,1.7585,1.7456,1.7867,1.725,1.6595,1.6543,1.6436,1.6086,1.5028,1.4915,1.4663,1.4548,1.3681,1.3104,1.3552,1.3661,1.3505,2.4895,2.4692,2.4446,2.4423,2.4535,2.4577,2.4677,2.4789,2.4556,2.4433,2.4411,2.4003,2.347,2.2822,2.2041,2.1727,2.1832,2.1502,2.1428,2.1516,2.1442,2.1367,2.1275,2.1165,2.1134,2.1134,2.1228,2.1429,2.1748,2.1723,2.1628,2.1569,2.1632,2.0778,1.9159,2.0632,2.1868,2.2742,2.3368,2.3847,2.418,2.4256,2.4294,2.4339,2.4358,2.4419,2.4559,2.4559,2.4639,2.4771,2.4216,2.4221,2.4808,1.8761,0.0,0.0,0.0,0.0,0.0,0.0,0.0,0.0,0.0,1.1407,0.8152,0.0,1.3924,0.0,1.289,1.7533,1.9345,1.9174,0.0,0.0,1.7099,1.6822,1.8528,1.8809,1.893,1.9084,2.0193,2.0703,1.9972,2.0524,2.1118,2.1471,2.1516,2.1893,2.2875,2.168,2.0225,1.9218,1.9181,1.9465,1.9702,1.8377,1.7347,1.7483,1.7055,1.6866,1.7381,1.6951,1.6513,1.6436,1.5722,1.5421,1.5876,1.5354,1.4387,1.3573,1.3089,1.2929,1.3104,1.3138,1.3089,2.4451,2.4155,2.3846,2.3882,2.4142,2.4193,2.4165,2.4072,2.3894,2.3817,2.3777,2.3145,2.2726,2.2413,2.206,2.1792,2.1591,2.138,2.118,2.0991,2.1007,2.0894,2.0682,2.0698,2.0698,2.0682,2.0682,2.0926,2.1322,2.1337,2.1477,2.1721,2.1721,2.1306,2.0564,2.1591,2.2414,2.2954,2.3294,2.3566,2.3753,2.3746,2.3472,2.2928,2.3129,2.293,2.2226,2.2466,2.2358,2.186,2.1819,2.2645,2.4302,1.8651,1.3469,0.0,0.0,0.0,0.0,0.0,0.0,0.0,0.0,0.0,0.0,0.0,1.6544,1.17,1.5844,1.8866,1.9034,1.9124,1.9264,1.9482,1.8624,1.8542,1.9894,1.9726,1.9605,1.9852,1.9952,1.9751,1.9118,1.9423,1.9715,1.97,1.9715,2.0325,2.1713,2.0894,1.933,1.772,1.8143,1.8684,1.8784,1.7517,1.6595,1.6858,1.6701,1.6616,1.6888,1.6689,1.6392,1.601,1.5276,1.4835,1.531,1.5085,1.4317,1.3296,1.2915,1.2915,1.2915,1.2915,1.2915,2.3888,2.3531,2.2952,2.2691,2.2685,2.3034,2.3117,2.3034,2.2986,2.2949,2.2875,2.2245,2.1766,2.1408,2.107,2.091,2.0894,2.0862,2.0829,2.0829,2.0845,2.06,2.0229,2.0212,2.0229,2.0229,2.0229,2.0466,2.0926,2.091,2.0958,2.1007,2.1007,2.1166,2.1521,2.1928,2.2326,2.2695,2.2979,2.3153,2.3189,2.3112,2.2534,2.1464,2.1658,2.1054,1.9478,1.9883,1.9612,1.8429,1.8316,1.9896,2.3152,1.7858,1.387,0.0,1.1441,0.0,0.0,0.0,0.0,0.0,0.0,0.0,0.0,1.7268,1.74,1.6479,1.9881,2.1221,1.9011,1.8872,1.9408,2.0633,2.0243,1.9923,2.007,2.0014,1.9823,1.9533,1.9037,1.8522,1.7993,1.7993,1.8112,1.823,1.8269,1.8839,2.0099,1.9786,1.856,1.6731,1.7524,1.8013,1.7585,1.693,1.6522,1.6522,1.6534,1.6513,1.6522,1.6522,1.6259,1.5534,1.4835,1.4376,1.412,1.4329,1.4084,1.3089,1.2915,1.2915,1.2881,1.2774,1.2774,2.2728,2.2374,2.195,2.1611,2.1362,2.1438,2.174,2.2119,2.1911,2.1676,2.1411,2.1274,2.1165,2.1055,2.0633,2.0416,2.0416,2.0087,1.9927,1.9945,1.9945,1.9892,1.9818,1.9818,1.9803,1.9818,1.9818,2.0035,2.0416,2.0417,2.0632,2.0975,2.1007,2.1039,2.1102,0.0,0.0,0.0,2.2772,2.2935,2.3171,2.2621,2.2183,2.1918,2.0878,0.0,1.9819,1.9898,1.9845,1.9586,1.956,0.0,0.0,0.0,0.0,0.0,0.0,0.0,0.0,0.0,0.0,0.0,1.6501,1.6378,1.6168,1.7441,1.8343,1.8531,2.0196,2.1187,2.1026,2.0727,2.0478,2.0335,1.9933,1.9524,1.9145,1.8764,1.8468,1.8405,1.8274,1.7874,1.7055,1.7544,1.8052,1.8033,1.8092,1.8131,1.8241,1.8045,1.7429,1.6667,1.685,1.69,1.6731,1.6573,1.6392,1.6513,1.6513,1.6479,1.6436,1.65,1.6293,1.5577,1.4294,1.3478,1.3967,1.3658,1.3258,1.2929,1.2915,1.2915,1.2891,1.2427,1.1956,2.2827,0.0,2.2083,2.1779,0.0,2.1439,2.152,2.1789,2.1763,2.1536,2.1153,2.1152,2.0861,2.033,2.0104,2.0,2.0,1.98,1.9723,1.9723,1.9723,1.9723,1.9723,1.9723,1.9723,1.9723,1.9723,1.98,2.0,2.0015,2.0106,2.0345,2.0362,2.0448,2.0649,2.0878,2.1398,2.2144,2.2388,2.2563,2.273,2.2383,2.1885,2.1243,0.0,0.0,0.0,0.0,0.0,0.0,0.0,0.0,0.0,0.0,0.0,1.7407,1.6909,1.6749,1.7059,1.7446,1.8177,1.9283,1.919,1.872,1.7894,1.9361,2.0241,2.0069,2.0644,2.1071,2.126,2.0699,2.0215,1.9911,1.9284,1.8741,1.8459,1.8019,1.7747,1.7787,1.7544,1.7076,1.6573,1.693,1.7291,1.7312,1.7312,1.7271,1.7105,1.7209,1.7118,1.6595,1.6513,1.6513,1.6457,1.5932,1.5744,1.5942,1.581,1.5634,1.5611,1.6107,1.6151,1.496,1.3695,1.3065,1.3358,1.3152,1.2915,1.2915,1.2915,1.2749,1.2452,1.2055,1.1789,2.3077,2.283,2.2243,2.2014,2.1976,2.155,2.1438,2.1543,0.0,0.0,0.0,2.1253,2.0719,1.9887,1.9887,1.9813,1.9723,1.9723,1.9723,1.9723,1.9723,1.9723,1.9723,1.9723,1.9723,1.9723,1.9723,1.9723,1.9723,1.9723,1.9723,1.9723,1.9723,1.9874,2.021,2.0649,2.1055,2.1367,2.184,2.2094,2.2063,2.2017,2.1454,2.0364,2.0633,2.0065,1.8565,1.8834,1.8539,1.7472,1.7318,1.6884,1.6044,1.6453,1.7363,1.8688,1.8237,1.8398,1.9598,1.9696,2.0201,2.1409,2.1181,2.0696,1.9975,2.1239,2.1781,2.1055,2.0862,2.0764,2.0732,2.0008,1.939,1.9225,1.8454,1.7913,1.7807,1.7456,1.7209,1.7312,1.69,1.6513,1.6522,1.6522,1.6513,1.6522,1.6607,1.6423,1.6411,1.6782,1.6888,1.6337,1.6349,1.6423,1.5998,1.5399,1.4949,1.5343,1.5062,1.4721,1.4858,1.5511,1.5488,1.4249,1.3348,1.3002,1.2915,1.2929,1.2856,1.2749,1.2676,1.2437,1.1823,1.1516,1.1391,2.2431,2.23,2.1336,2.0915,2.0889,2.0295,2.04,2.0907,2.0909,2.1173,2.1609,2.1037,2.07,2.0554,2.0572,2.0243,1.9723,1.9723,1.9723,0.0,1.9723,1.9723,1.9723,1.9723,1.9723,1.9723,1.9723,1.9723,1.9723,1.9723,1.9723,1.9723,1.9723,1.9729,1.9818,2.0193,2.0433,2.05,2.0959,2.1182,2.1197,2.0916,2.0676,2.0456,1.9672,1.9121,1.884,1.8593,1.8339,1.8153,1.7773,1.8038,1.9124,1.8698,1.9103,2.0478,2.051,2.0557,2.075,2.0781,2.0862,2.107,2.1023,2.0942,2.0845,2.1037,2.1134,2.0975,2.0278,1.9859,1.9763,1.9292,1.8636,1.78,1.7524,1.725,1.6837,1.671,1.668,1.6701,1.6573,1.6513,1.6513,1.6513,1.65,1.65,1.6349,1.6281,1.593,1.6225,1.6259,1.5756,1.6076,1.5854,1.4994,1.4652,1.4629,1.4789,1.4721,1.4571,1.4548,1.4744,1.4698,1.4143,1.3382,1.2978,1.2915,1.2915,1.2666,1.2212,1.194,1.1609,1.104,1.0542,1.0141,2.196,2.1931,2.1429,2.1243,2.1221,2.0941,2.1001,2.1236,2.0905,2.0918,2.1169,2.0888,2.0549,2.0261,2.0558,2.0348,1.9733,2.0079,2.0034,1.9723,1.9723,1.9723,1.9723,1.9723,1.9723,1.9723,1.9723,1.9723,1.9723,1.9723,1.9723,1.9723,1.9723,1.9723,1.9726,1.9892,1.9965,1.9982,2.0649,2.1007,2.0991,2.0843,2.0774,2.0773,2.027,2.0045,2.0045,1.9876,1.9775,1.9759,1.9551,1.9763,2.0416,2.0036,2.002,2.0553,2.043,2.0263,2.0232,2.0232,2.0114,1.9886,2.0141,2.0176,1.9869,2.0567,2.0682,1.9954,1.9218,1.8822,1.876,1.8347,1.7847,1.7374,1.7055,1.6774,1.6565,1.6513,1.6513,1.6513,1.6513,1.6513,1.6513,1.6513,1.6337,1.6073,1.5766,1.5421,1.5163,1.5332,1.5399,1.5085,1.5276,1.5197,1.4514,1.3944,1.3897,1.4154,1.3944,1.3766,1.3729,1.3729,1.3658,1.3501,1.3138,1.2954,1.2915,1.2915,1.2584,1.1996,1.1649,1.125,1.0474,0.9736,0.9309,2.1697,2.1697,2.153,2.1424,2.1266,2.1266,2.1266,2.1232,2.0769,2.0556,2.06,2.0724,2.0512,2.0089,2.0527,2.0358,1.9845,2.0108,2.0,1.9549,1.9391,1.9317,1.9369,1.946,1.9515,1.9548,1.9654,1.9723,1.9723,1.9723,1.9723,1.9723,1.9723,1.9723,1.9723,1.9723,1.9723,1.9744,2.0362,2.0714,2.0698,2.0797,2.083,2.0845,2.0943,2.1007,2.1007,2.091,2.0797,2.0699,2.0567,2.0484,2.0352,2.0213,2.0056,1.9798,1.9594,1.9394,1.9262,1.9277,1.9111,1.8765,1.908,1.9169,1.8859,1.9695,1.9906,1.8864,1.8151,1.7787,1.7887,1.7585,1.7271,1.7139,1.6765,1.6543,1.65,1.6513,1.6513,1.65,1.638,1.6293,1.6281,1.6173,1.5876,1.5421,1.4994,1.4686,1.4537,1.4491,1.4468,1.4387,1.4502,1.4548,1.434,1.3573,1.3224,1.3552,1.3238,1.3065,1.3002,1.2954,1.2939,1.2954,1.2929,1.2915,1.2881,1.2725,1.232,1.1665,1.1216,1.0728,0.9788,0.9237,0.8857,2.1673,2.1615,2.1088,2.0522,2.0042,2.0016,2.0016,2.0016,1.9914,1.9876,1.9991,2.0518,2.0734,2.0722,2.0735,2.0417,1.9767,1.9287,1.9065,1.8926,1.8474,1.8249,1.8361,1.8746,1.8968,1.9039,1.9424,1.9636,1.9654,1.969,1.9723,1.9723,1.9723,1.9723,1.9723,1.9723,1.9723,1.9723,1.9797,1.9833,1.9836,2.0176,2.0365,2.0365,2.0764,2.1007,2.0943,2.0583,2.0162,1.9745,1.9365,1.8902,1.8507,1.8655,1.8655,1.8386,1.854,1.8574,1.8288,1.8235,1.823,1.8171,1.8243,1.8269,1.8171,1.8313,1.8352,1.8013,1.7242,1.6951,1.7312,1.7312,1.7084,1.6701,1.6565,1.6513,1.6513,1.6513,1.6513,1.6513,1.6073,1.5676,1.5654,1.53,1.4926,1.4947,1.4705,1.4393,1.4041,1.3947,1.3773,1.3488,1.3954,1.4118,1.344,1.3051,1.2954,1.3017,1.2978,1.2915,1.2915,1.2915,1.2915,1.2915,1.2915,1.2915,1.2774,1.2403,1.1724,1.1141,1.0517,0.9762,0.9106,0.8778,0.8672,2.0557,2.0557,2.0321,2.0055,1.9798,1.9798,1.9798,1.9798,1.9798,1.9798,1.9824,2.0093,2.0204,2.0231,2.0633,2.0432,1.981,1.9593,1.9272,1.8893,1.8348,1.8092,1.8125,1.8308,1.8438,1.8438,1.865,1.8912,1.9225,1.9548,1.9723,1.9723,1.9723,1.9723,1.9723,1.9723,1.9723,1.9723,1.9723,1.9723,1.9726,1.9856,1.9947,1.9965,2.0154,2.0243,2.0208,2.005,1.9874,1.9645,1.9173,1.8817,1.8588,1.8419,1.823,1.8092,1.7894,1.7767,1.7659,1.7626,1.7626,1.7626,1.7913,1.7973,1.7686,1.7913,1.7867,1.7209,1.6752,1.6595,1.6816,1.6837,1.6731,1.6543,1.6513,1.65,1.6513,1.6513,1.638,1.6051,1.6073,1.5798,1.5187,1.4758,1.4661,1.4732,1.4461,1.393,1.367,1.362,1.3411,1.3076,1.3358,1.3406,1.3002,1.2915,1.2915,1.2915,1.2915,1.2915,1.2915,1.2915,1.2915,1.2915,1.2915,1.2915,1.2915,1.2295,1.1582,1.0813,0.984,0.9001,0.8295,0.8049,0.7996,1.9936,1.9811,1.9798,1.9798,1.9798,1.9798,1.9798,1.9798,1.9798,1.9798,1.9798,1.9798,1.9798,1.9875,2.0295,2.0238,1.9822,1.9704,1.9391,1.8891,1.8371,1.8042,1.7936,1.8086,1.8031,1.7921,1.8066,1.8308,1.8722,1.924,1.9493,1.9479,1.9621,1.9723,1.9723,1.9723,1.9723,1.9723,1.9723,1.9723,1.9723,1.9723,1.9621,1.9497,1.9479,1.9493,1.9479,1.946,1.9406,1.9244,1.876,1.84,1.823,1.7867,1.7666,1.7626,1.7312,1.7097,1.7063,1.7097,1.7063,1.7105,1.7463,1.7504,1.725,1.7442,1.7312,1.668,1.6513,1.65,1.6513,1.6513,1.6513,1.6513,1.6513,1.6457,1.6281,1.6272,1.5986,1.5499,1.5521,1.5516,1.4639,1.4258,1.4261,1.4563,1.416,1.3682,1.3656,1.3672,1.359,1.3271,1.3267,1.315,1.2983,1.2915,1.2915,1.2915,1.2915,1.2915,1.2915,1.2915,1.2915,1.2915,1.2915,1.27,1.2437,1.1922,1.1157,1.033,0.9347,0.8401,0.791,0.7423,0.7047,2.0327,1.9836,1.9798,1.9798,1.9798,1.9798,1.9798,1.9798,1.9798,1.9798,1.9798,1.9798,1.9798,1.9798,1.9901,1.9837,1.9749,1.9295,1.9078,1.8952,1.8447,1.792,1.7485,1.7922,1.7901,1.7466,1.776,1.8013,1.8151,1.8703,1.8949,1.8968,1.946,1.9723,1.9723,1.9723,1.9723,1.9723,1.9723,1.969,1.9672,1.9672,1.9387,1.8949,1.8949,1.8968,1.8949,1.893,1.8727,1.819,1.7727,1.7222,1.6731,1.6659,1.6637,1.6629,1.6586,1.6565,1.6573,1.6573,1.6586,1.6552,1.6659,1.6595,1.6637,1.668,1.6659,1.6534,1.6513,1.6513,1.6414,1.6457,1.6479,1.6436,1.6466,1.6204,1.5698,1.5644,1.5365,1.4835,1.4546,1.4313,1.3865,1.3635,1.3903,1.4181,1.4141,1.4075,1.4085,1.4085,1.4036,1.3997,1.3929,1.3782,1.3105,1.3013,1.2983,1.2915,1.2915,1.2915,1.2915,1.2915,1.2915,1.2915,1.2915,1.2618,1.1981,1.1191,1.0338,0.947,0.8613,0.7863,0.7503,0.6627,0.6167,2.0365,1.9811,1.9798,1.9798,1.9798,1.9798,1.9798,1.9798,1.9798,1.9798,1.9798,1.9798,1.9798,1.9798,1.9798,1.9798,1.9748,1.9246,1.9008,1.8945,1.8444,1.8103,1.7913,1.7801,1.7609,1.7388,1.7187,1.725,1.7686,1.8477,1.8893,1.8987,1.9442,1.9723,1.9723,1.9723,1.9723,1.9723,1.9723,1.9548,1.9188,1.8855,1.8433,1.7967,1.8554,1.8727,1.84,1.838,1.8283,1.8092,1.7598,1.7222,1.7013,1.6667,1.6513,1.6513,1.6513,1.6513,1.6513,1.6513,1.6513,1.6513,1.6513,1.6513,1.6513,1.6513,1.6513,1.6513,1.6513,1.6315,1.5954,1.6185,1.6337,1.6008,1.5908,1.5688,1.5186,1.5005,1.4824,1.4395,1.4056,1.3861,1.4021,1.418,1.4492,1.4806,1.4717,1.457,1.4551,1.4561,1.4473,1.425,1.4346,1.4287,1.3529,1.335,1.3232,1.3013,1.2915,1.2915,1.2915,1.2915,1.2915,1.2725,1.2774,1.2353,1.1625,1.0695,0.9788,0.8988,0.8103,0.7429,0.7101,0.6167,0.5546,2.0352,1.9836,1.9798,1.9798,1.9798,1.9798,1.9798,1.9798,1.9798,1.9798,1.9798,1.9798,1.9798,1.9798,1.9798,1.9798,1.9773,1.9409,1.9259,1.9221,1.8882,1.8631,1.843,1.8078,1.7838,1.7599,1.7074,1.699,1.7366,1.8043,1.8361,1.8419,1.9062,1.9457,1.946,1.9603,1.9723,1.969,1.953,1.9258,1.8874,1.8394,1.7847,1.7497,1.8013,1.8224,1.7867,1.7834,1.7847,1.7767,1.7333,1.7034,1.6993,1.6689,1.6513,1.6513,1.6513,1.6513,1.6513,1.6513,1.6513,1.6513,1.6513,1.6513,1.6513,1.6513,1.6513,1.6457,1.6051,1.5678,1.55,1.5678,1.5732,1.5387,1.5298,1.505,1.4491,1.4399,1.4167,1.3836,1.3832,1.4011,1.4426,1.4658,1.4941,1.5352,1.5146,1.5,1.498,1.498,1.4912,1.4611,1.4786,1.4785,1.4394,1.418,1.349,1.3174,1.2974,1.2944,1.2915,1.2915,1.2808,1.2618,1.227,1.1857,1.1149,1.0218,0.938,0.8613,0.775,0.6966,0.6394,0.5683,0.514,2.0365,1.9874,1.9798,1.9798,1.9798,1.9798,1.9798,1.9798,1.9798,1.9798,1.9798,1.9798,1.9798,1.9798,1.9798,1.9798,1.9786,1.9736,1.971,1.971,1.9698,1.9422,1.9008,1.8882,1.8556,1.8116,1.7662,1.7385,1.7397,1.752,1.7536,1.7592,1.8438,1.8893,1.8893,1.9314,1.9603,1.9479,1.9114,1.8874,1.8817,1.8283,1.7767,1.7312,1.7333,1.7353,1.7305,1.7291,1.7291,1.725,1.6837,1.6522,1.6586,1.6534,1.6513,1.6513,1.6513,1.6513,1.6513,1.6513,1.6513,1.6513,1.6513,1.6513,1.6513,1.6513,1.6513,1.6371,1.5589,1.4915,1.5051,1.4926,1.4766,1.4686,1.4743,1.451,1.401,1.3823,1.3607,1.3312,1.3721,1.4455,1.5049,1.5078,1.5049,1.5293,1.5371,1.5332,1.5303,1.5312,1.5371,1.5342,1.5273,1.5137,1.5107,1.5,1.4065,1.3289,1.3125,1.2988,1.2935,1.2915,1.2725,1.2486,1.1543,1.1099,1.0669,0.9736,0.8856,0.8082,0.7241,0.6534,0.59,0.53,0.4811,2.0591,2.0377,1.9962,1.9798,1.9798,1.9798,1.9798,1.9798,1.9798,1.9798,1.9798,1.9798,1.9798,1.9798,1.9798,1.9798,1.9798,1.9798,1.9798,1.9798,1.9798,1.971,1.9522,1.9171,1.8707,1.8267,1.8053,1.7752,1.7539,1.7748,1.7739,1.7536,1.7987,1.8308,1.8361,1.8516,1.8593,1.8574,1.8438,1.8171,1.7827,1.7626,1.7291,1.6816,1.6731,1.6731,1.6731,1.6731,1.6765,1.6752,1.6595,1.6513,1.6513,1.6513,1.6513,1.6513,1.6513,1.6513,1.6513,1.6513,1.6513,1.6513,1.6513,1.6513,1.6513,1.6513,1.6513,1.6436,1.5645,1.4835,1.3941,1.3954,1.4082,1.4097,1.4328,1.4254,1.379,1.3716,1.3739,1.3861,1.4492,1.5098,1.5312,1.5234,1.5254,1.5361,1.542,1.542,1.542,1.542,1.541,1.541,1.542,1.5323,1.51,1.4667,1.3877,1.3231,1.3006,1.2736,1.2697,1.2652,1.252,1.1875,1.0956,1.0346,0.9909,0.9373,0.8553,0.7756,0.7079,0.6367,0.5597,0.4941,0.4315,2.1182,2.0943,2.0351,2.0151,2.0087,1.9911,1.9798,1.9798,1.9798,1.9798,1.9798,1.9798,1.9798,1.9798,1.9798,1.9798,1.9798,1.9798,1.9798,1.9798,1.9798,1.9798,1.9761,1.9459,1.9171,1.8819,1.8606,1.8329,1.8001,1.7913,1.77,1.7462,1.7665,1.7807,1.7847,1.8013,1.8092,1.8072,1.7894,1.7646,1.7333,1.7118,1.6837,1.6565,1.6513,1.6513,1.6513,1.6513,1.6513,1.6513,1.6513,1.6513,1.6513,1.6513,1.6513,1.6513,1.6513,1.6513,1.6513,1.6513,1.6513,1.6513,1.6513,1.6513,1.6513,1.6513,1.6513,1.6414,1.5478,1.4317,1.3282,1.336,1.3668,1.3679,1.3904,1.3942,1.3753,1.3938,1.4062,1.427,1.4825,1.5303,1.542,1.542,1.542,1.542,1.542,1.542,1.542,1.542,1.5381,1.5381,1.542,1.5225,1.4884,1.4308,1.3645,1.3173,1.2806,1.2455,1.2193,1.2134,1.1999,1.0838,0.9847,0.9647,0.9263,0.9106,0.8533,0.775,0.6891,0.6122,0.5328,0.4223,0.3677,2.1995,2.1509,2.093,2.0654,2.0578,2.0037,1.9798,1.9798,1.9798,1.9798,1.9798,1.9798,1.9798,1.9798,1.9798,1.9798,1.9798,1.9798,1.9798,1.9798,1.9798,1.9798,1.9773,1.9723,1.966,1.9597,1.9233,1.8995,1.8757,1.8111,1.7473,1.751,1.745,1.7316,1.7438,1.7808,1.7874,1.7787,1.7463,1.7229,1.7201,1.6795,1.6543,1.6513,1.6513,1.6513,1.6513,1.6513,1.6513,1.6513,1.6513,1.6513,1.6513,1.6513,1.6513,1.6513,1.6513,1.6513,1.6513,1.6513,1.6513,1.6513,1.6513,1.6513,1.6513,1.6402,1.6315,1.6228,1.5017,1.3844,1.3253,1.3282,1.3508,1.3533,1.3717,1.3893,1.4163,1.458,1.4629,1.4465,1.4894,1.542,1.542,1.542,1.542,1.542,1.542,1.542,1.5352,1.5323,1.5294,1.5108,1.4815,1.4599,1.4136,1.3575,1.2932,1.2664,1.2338,1.1988,1.1704,1.1609,1.1141,0.9976,0.9218,0.8989,0.8804,0.8692,0.8235,0.7402,0.6588,0.5882,0.4862,0.3702,0.3121,2.2234,2.1995,2.1094,2.0691,2.0616,2.0049,1.9798,1.9798,1.9798,1.9798,1.9798,1.9798,1.9798,1.9798,1.9798,1.9798,1.9798,1.9798,1.9798,1.9798,1.9798,1.9798,1.9798,1.9798,1.9798,1.9761,1.9623,1.9384,1.9008,1.8657,1.8342,1.7978,1.7596,1.739,1.7386,1.7119,1.6921,1.6909,1.6837,1.6744,1.6723,1.6616,1.65,1.6513,1.6513,1.6513,1.6513,1.6513,1.6513,1.6513,1.6513,1.6513,1.6513,1.6513,1.6513,1.6513,1.6513,1.6513,1.6513,1.6513,1.6513,1.6513,1.6513,1.6513,1.65,1.6073,1.581,1.5478,1.4525,1.3786,1.3555,1.35,1.3544,1.3635,1.4012,1.4478,1.4809,1.5156,1.5186,1.5108,1.5254,1.5255,1.5391,1.5352,1.5381,1.5381,1.542,1.5323,1.5177,1.4874,1.4658,1.3906,1.3515,1.3485,1.3243,1.2718,1.2265,1.2027,1.176,1.145,1.1237,1.1122,1.0322,0.9263,0.9061,0.8857,0.8586,0.8395,0.7696,0.702,0.6394,0.5628,0.4223,0.3007,0.2621,2.2619,2.2531,2.1468,2.1043,2.0918,2.0162,1.9798,1.9798,1.9798,1.9798,1.9798,1.9798,1.9798,1.9798,1.9798,1.9798,1.9798,1.9798,1.9798,1.9798,1.9798,1.9798,1.9798,1.9798,1.9798,1.9798,1.9798,1.9648,1.9334,1.9121,1.882,1.8505,1.8003,1.7626,1.7383,1.7087,1.6748,1.6584,1.6513,1.6513,1.6513,1.6513,1.6513,1.6513,1.6513,1.6513,1.6513,1.6513,1.6513,1.6513,1.6513,1.6513,1.6513,1.6513,1.6513,1.6513,1.6513,1.6513,1.6513,1.6513,1.6513,1.6513,1.6513,1.6513,1.6402,1.5952,1.5488,1.4801,1.4305,1.3978,1.3797,1.387,1.3965,1.3956,1.4285,1.4503,1.4433,1.4305,1.4746,1.4991,1.4844,1.4717,1.5206,1.5118,1.5138,1.5294,1.542,1.5108,1.4746,1.4332,1.3786,1.3,1.2696,1.2818,1.2634,1.2143,1.171,1.1465,1.1259,1.0931,1.0857,1.0668,0.9828,0.911,0.8917,0.8752,0.856,0.815,0.7343,0.6691,0.6118,0.5378,0.4113,0.2926,0.2482,2.3095,2.3007,2.1958,2.1481,2.1292,2.0313,1.9798,1.9798,1.9798,1.9798,1.9798,1.9798,1.9798,1.9798,1.9798,1.9798,1.9798,1.9798,1.9798,1.9798,1.9798,1.9798,1.9798,1.9798,1.9798,1.9798,1.9798,1.9786,1.9635,1.9309,1.9121,1.897,1.8555,1.8091,1.779,1.7551,1.7187,1.6886,1.6748,1.6722,1.6672,1.6609,1.6513,1.6513,1.6513,1.6513,1.6513,1.6513,1.6513,1.6513,1.6513,1.6513,1.6513,1.6513,1.6513,1.6513,1.6513,1.6513,1.6513,1.6513,1.6513,1.6513,1.6513,1.6513,1.638,1.593,1.5288,1.4599,1.4365,1.4184,1.4087,1.4453,1.4497,1.4255,1.4207,1.3807,1.313,1.2948,1.3575,1.4805,1.3795,1.3936,1.4421,1.4717,1.4501,1.5264,1.5294,1.4932,1.4382,1.3837,1.3053,1.2074,1.205,1.2297,1.2027,1.1624,1.1257,1.0923,1.0729,1.0537,1.0545,1.0226,0.9493,0.9045,0.94,0.921,0.8752,0.8103,0.7375,0.647,0.5955,0.5355,0.4563,0.337,0.2649,2.3095,2.302,2.1958,2.1481,2.1305,2.03,1.9811,1.9798,1.9798,1.9798,1.9798,1.9798,1.9798,1.9798,1.9798,1.9798,1.9798,1.9798,1.9798,1.9798,1.9798,1.9798,1.9798,1.9798,1.9798,1.9798,1.9798,1.9798,1.9736,1.9673,1.9623,1.9535,1.9083,1.877,1.8581,1.8179,1.799,1.7777,1.7413,1.72,1.7087,1.676,1.6538,1.6513,1.6513,1.6513,1.6513,1.6513,1.6513,1.6513,1.6513,1.6513,1.6513,1.6513,1.6513,1.6513,1.6513,1.6513,1.6513,1.6513,1.6513,1.6513,1.6513,1.6513,1.6457,1.5942,1.5462,1.5028,1.4679,1.4456,1.4562,1.498,1.483,1.4394,1.4154,1.3666,1.2543,1.2634,1.3152,1.3334,1.3282,1.3161,1.3575,1.4204,1.4451,1.5089,1.505,1.4726,1.4055,1.3326,1.2412,1.1406,1.1351,1.1538,1.1445,1.117,1.0982,1.0713,1.0542,1.0392,1.0391,1.0236,0.9701,0.9771,1.0168,0.9851,0.9457,0.8917,0.8359,0.7112,0.5923,0.5324,0.4639,0.3616,0.2845,2.3095,2.3007,2.2234,2.1719,2.1395,2.0589,2.0049,1.9836,1.9798,1.9798,1.9798,1.9798,1.9798,1.9798,1.9798,1.9798,1.9798,1.9798,1.9798,1.9798,1.9798,1.9798,1.9798,1.9798,1.9798,1.9798,1.9798,1.9798,1.9798,1.9798,1.9773,1.9798,1.9497,1.9196,1.9033,1.8707,1.8442,1.8179,1.794,1.7777,1.7689,1.7225,1.6735,1.655,1.6513,1.6513,1.6513,1.6513,1.6513,1.6513,1.6513,1.6513,1.6513,1.6513,1.6513,1.6513,1.6513,1.6513,1.6513,1.6513,1.6513,1.6513,1.6513,1.6697,1.657,1.6058,1.5682,1.5545,1.5124,1.4627,1.5027,1.5225,1.4972,1.4421,1.4183,1.3636,1.2687,1.2443,1.2504,1.2535,1.2535,1.3205,1.3717,1.4085,1.4145,1.4658,1.4599,1.4273,1.3226,1.2473,1.1803,1.1069,1.08,1.0744,1.0744,1.0713,1.0744,1.0618,1.0591,1.0519,1.0523,1.0336,1.0104,1.045,1.0793,1.0863,1.0455,0.9897,0.9251,0.8141,0.7009,0.5833,0.4906,0.4326,0.3533,2.3095,2.3045,2.2431,2.1907,2.143,2.0805,2.0239,1.9849,1.9798,1.9798,1.9798,1.9798,1.9798,1.9798,1.9798,1.9798,1.9798,1.9798,1.9798,1.9798,1.9798,1.9798,1.9798,1.9798,1.9798,1.9798,1.9798,1.9798,1.9798,1.9798,1.9798,1.9798,1.9798,1.956,1.9208,1.9108,1.8982,1.8643,1.843,1.8329,1.8242,1.779,1.7262,1.6835,1.6726,1.6626,1.655,1.6513,1.6513,1.6513,1.6513,1.6513,1.6513,1.6513,1.6513,1.6513,1.6513,1.6513,1.6513,1.6513,1.6538,1.6588,1.6672,1.686,1.6932,1.6493,1.6115,1.5766,1.5416,1.4918,1.5342,1.54,1.5021,1.4421,1.4183,1.3825,1.3092,1.2389,1.2328,1.2166,1.2289,1.2801,1.3807,1.4481,1.4293,1.4115,1.4055,1.3687,1.2657,1.1772,1.1195,1.0895,1.0681,1.0586,1.0586,1.0586,1.0586,1.0586,1.0586,1.0586,1.0681,1.0933,1.0925,1.1065,1.1299,1.1499,1.1557,1.1193,1.0367,0.9245,0.8129,0.7004,0.605,0.5198,0.4412,2.3095,2.302,2.2046,2.1568,2.1343,2.0401,1.9936,1.9811,1.9798,1.9798,1.9798,1.9798,1.9798,1.9798,1.9798,1.9798,1.9798,1.9798,1.9798,1.9798,1.9798,1.9798,1.9798,1.9798,1.9798,1.9798,1.9798,1.9798,1.9798,1.9798,1.9798,1.9798,1.9798,1.9698,1.966,1.966,1.956,1.9309,1.9033,1.887,1.8744,1.8355,1.7802,1.73,1.7237,1.7036,1.6663,1.655,1.6513,1.6513,1.6513,1.6525,1.655,1.655,1.66,1.6513,1.6513,1.6513,1.6609,1.655,1.6776,1.7087,1.7237,1.7156,1.7228,1.7061,1.6476,1.5933,1.5594,1.5303,1.5391,1.542,1.4991,1.4451,1.4124,1.3855,1.3191,1.2826,1.2604,1.2465,1.2381,1.2588,1.3927,1.4599,1.4213,1.3876,1.3606,1.3213,1.242,1.1562,1.0832,1.0681,1.0618,1.0586,1.0586,1.0586,1.0586,1.0586,1.0586,1.0586,1.0863,1.1555,1.182,1.1859,1.2194,1.2662,1.2591,1.2304,1.1379,1.018,0.9148,0.8156,0.7165,0.6257,0.5887,2.3095,2.302,2.2246,2.1757,2.1368,2.0641,2.0075,1.9823,1.9798,1.9798,1.9798,1.9798,1.9798,1.9798,1.9798,1.9798,1.9798,1.9798,1.9798,1.9798,1.9798,1.9798,1.9798,1.9798,1.9798,1.9798,1.9798,1.9798,1.9798,1.9798,1.9798,1.9798,1.9798,1.9798,1.9798,1.9773,1.9798,1.9723,1.956,1.9384,1.9384,1.887,1.8367,1.7965,1.7815,1.7652,1.7488,1.7365,1.7378,1.7403,1.7378,1.7039,1.6851,1.6964,1.7089,1.6701,1.6541,1.6676,1.6898,1.6974,1.7225,1.7702,1.7779,1.771,1.7422,1.7042,1.646,1.5838,1.5525,1.542,1.542,1.5352,1.5021,1.4421,1.4154,1.3734,1.3252,1.3039,1.294,1.2893,1.3144,1.3657,1.4619,1.4805,1.4154,1.3674,1.3243,1.2673,1.2035,1.1358,1.0586,1.0586,1.0586,1.0586,1.0586,1.0586,1.0586,1.0586,1.0586,1.0586,1.0769,1.1344,1.205,1.2472,1.3,1.3554,1.3411,1.3048,1.2079,1.1182,1.027,0.9306,0.8224,0.7427,0.7031,2.3095,2.3058,2.2506,2.2046,2.1606,2.1094,2.0616,2.02,2.0188,2.02,2.0125,2.0049,2.0012,1.9949,1.9861,1.9798,1.9798,1.9798,1.9798,1.9798,1.9798,1.9798,1.9798,1.9798,1.9798,1.9798,1.9798,1.9798,1.9798,1.9798,1.9798,1.9798,1.9798,1.9798,1.9798,1.9798,1.9798,1.9798,1.9798,1.9798,1.9685,1.9397,1.8932,1.8442,1.8367,1.8293,1.8091,1.8053,1.8066,1.8078,1.8017,1.7754,1.7165,1.7691,1.7829,1.7242,1.6853,1.6923,1.7159,1.7297,1.7344,1.7642,1.8006,1.7907,1.7384,1.6563,1.5789,1.5445,1.4932,1.4932,1.4962,1.4962,1.4442,1.3837,1.3537,1.3455,1.2909,1.2726,1.3061,1.3295,1.3816,1.4332,1.4894,1.4076,1.3205,1.3243,1.2848,1.2027,1.1452,1.1115,1.0586,1.0586,1.0586,1.0586,1.0586,1.0586,1.0586,1.0586,1.0586,1.0586,1.0744,1.1014,1.1748,1.2543,1.3606,1.4037,1.3915,1.3798,1.3205,1.2428,1.149,1.0389,0.9169,0.8495,0.8131,2.3095,2.307,2.2506,2.2272,2.2121,2.1594,2.1343,2.1242,2.1192,2.128,2.1117,2.0805,2.0578,2.044,2.0024,1.9849,1.9798,1.9798,1.9798,1.9798,1.9798,1.9798,1.9798,1.9798,1.9798,1.9798,1.9798,1.9798,1.9798,1.9798,1.9798,1.9798,1.9798,1.9798,1.9798,1.9798,1.9798,1.9798,1.9798,1.9798,1.9786,1.9698,1.9359,1.9058,1.8882,1.8732,1.8468,1.8417,1.8356,1.8329,1.8267,1.8154,1.8041,1.8078,1.8744,1.8672,1.8118,1.7075,1.7267,1.7207,1.725,1.7449,1.768,1.7428,1.6896,1.614,1.549,1.5351,1.4273,1.3876,1.4243,1.3765,1.3031,1.2596,1.2443,1.2289,1.195,1.1965,1.2358,1.2665,1.2879,1.3756,1.454,1.3326,1.2297,1.242,1.2358,1.1569,1.0989,1.0713,1.0586,1.0586,1.0586,1.0586,1.0586,1.0586,1.0586,1.0586,1.0586,1.0586,1.0713,1.0958,1.1524,1.2412,1.3416,1.4106,1.4025,1.3962,1.412,1.3382,1.2068,1.0986,0.9994,0.951,0.8896,2.3095,2.3045,2.2506,2.2322,2.2246,2.1732,2.1481,2.1481,2.1481,2.1481,2.1455,2.1295,2.0993,2.0704,2.0402,2.0112,1.9874,1.9798,1.9798,1.9798,1.9798,1.9798,1.9798,1.9798,1.9798,1.9798,1.9798,1.9798,1.9798,1.9798,1.9798,1.9798,1.9798,1.9798,1.9798,1.9798,1.9798,1.9798,1.9798,1.9798,1.9798,1.9786,1.9698,1.9472,1.9434,1.9284,1.9145,1.9108,1.9108,1.9108,1.9095,1.9108,1.9108,1.9133,1.9346,1.9546,1.8723,1.8133,1.8092,1.7408,1.7281,1.7576,1.7737,1.742,1.6694,1.594,1.541,1.5381,1.3944,1.3485,1.3786,1.3433,1.2665,1.2081,1.1686,1.1445,1.1288,1.1163,1.1296,1.16,1.1934,1.2665,1.3326,1.287,1.2081,1.2074,1.202,1.1469,1.0958,1.0681,1.0586,1.0586,1.0586,1.0586,1.0586,1.0586,1.0586,1.0586,1.0586,1.0618,1.0649,1.0958,1.1375,1.1406,1.1686,1.2496,1.3502,1.4025,1.4053,1.3338,1.2499,1.1354,1.0215,0.9351,0.8778,2.3095,2.307,2.2656,2.2481,2.2456,2.2071,2.192,2.1907,2.1945,2.192,2.1857,2.1757,2.1421,2.0943,2.0729,2.0427,2.0049,1.9874,1.9811,1.9798,1.9798,1.9798,1.9798,1.9798,1.9798,1.9811,1.9798,1.9798,1.9798,1.9798,1.9798,1.9798,1.9798,1.9798,1.9798,1.9798,1.9798,1.9798,1.9798,1.9798,1.9798,1.9798,1.9798,1.9786,1.9798,1.9798,1.9798,1.9748,1.9748,1.9723,1.9685,1.9648,1.966,1.9648,1.9673,1.9657,1.8965,1.8778,1.8561,1.8064,1.7581,1.7449,1.7484,1.6701,1.6451,1.5748,1.5196,1.505,1.3876,1.3364,1.3304,1.2787,1.2058,1.1569,1.1413,1.1045,1.0807,1.0807,1.08,1.1021,1.117,1.0958,1.1569,1.2027,1.1927,1.1795,1.1555,1.1226,1.0951,1.0618,1.0586,1.0586,1.0586,1.0586,1.0586,1.0586,1.0586,1.0586,1.0586,1.0586,1.0649,1.0649,1.0832,1.0713,1.0586,1.1076,1.2158,1.3114,1.3873,1.2744,1.1742,1.1217,1.0327,0.9417,0.8725,2.3095,2.3095,2.3045,2.3007,2.302,2.3007,2.2957,2.2844,2.2907,2.2882,2.2769,2.2472,2.1958,2.1483,2.1056,2.0767,2.0578,2.0037,1.9874,1.9823,1.9811,1.9899,1.9949,1.9974,1.9911,1.9874,1.9924,1.9911,1.9798,1.9798,1.9798,1.9798,1.9798,1.9798,1.9798,1.9798,1.9798,1.9798,1.9798,1.9798,1.9798,1.9798,1.9798,1.9798,1.9798,1.9798,1.9798,1.9798,1.9798,1.9798,1.9798,1.9798,1.9798,1.9798,1.9798,1.9657,1.9254,1.9077,1.8849,1.8112,1.7003,1.612,1.5719,1.5835,1.5777,1.5584,1.5108,1.4382,1.3304,1.2604,1.205,1.1358,1.1115,1.1021,1.0982,1.0863,1.0681,1.0649,1.0649,1.0618,1.0586,1.0586,1.0586,1.1233,1.1507,1.1375,1.1195,1.0895,1.0832,1.0586,1.0586,1.0586,1.0586,1.0586,1.0586,1.0586,1.0586,1.0586,1.0586,1.0586,1.0586,1.0586,1.0586,1.0586,1.0586,1.0688,1.0863,1.1943,1.2427,1.1696,1.1049,1.0719,1.0172,0.9269,0.8732,2.3095,2.3095,2.3095,2.3095,2.3095,2.3095,2.3095,2.3095,2.3095,2.3095,2.3095,2.2857,2.2481,2.2046,2.1794,2.1295,2.0742,2.049,2.015,2.0037,2.01,2.0327,2.044,2.0564,2.069,2.0402,2.0339,2.0113,1.9823,1.9669,1.9798,1.9798,1.9695,1.9798,1.9798,1.9798,1.9798,1.9798,1.9798,1.9798,1.9798,1.9798,1.9798,1.9798,1.9798,1.9798,1.9798,1.9798,1.9798,1.9798,1.9798,1.9798,1.9798,1.9798,1.9798,1.9798,1.9449,1.915,1.8555,1.7934,1.7135,1.6312,1.5758,1.542,1.542,1.542,1.4991,1.4025,1.2604,1.1655,1.1834,1.1139,1.0681,1.0618,1.0618,1.0681,1.0769,1.0863,1.0649,1.0649,1.0618,1.0586,1.0586,1.0649,1.0832,1.0919,1.0737,1.0586,1.0586,1.0586,1.0586,1.0586,1.0586,1.0586,1.0586,1.0586,1.0586,1.0586,1.0586,1.0586,1.0586,1.0586,1.0586,1.0586,1.0586,1.0649,1.0839,1.1178,1.1217,1.0982,1.0758,1.0475,0.9837,0.9063,0.8468,2.3095,2.3095,2.3095,2.3095,2.3095,2.3095,2.3095,2.3095,2.3095,2.3095,2.3095,2.3083,2.2907,2.2581,2.2309,2.182,2.1094,2.0729,2.0453,2.0377,2.0465,2.0767,2.1018,2.1144,2.1106,2.079,2.0387,2.0046,1.9798,1.9371,1.9228,1.9254,1.9281,1.9254,1.9798,1.9798,1.9798,1.9798,1.9798,1.9798,1.9798,1.9798,1.9798,1.9798,1.9798,1.9798,1.9798,1.9798,1.9798,1.9798,1.9798,1.9798,1.9798,1.9798,1.9798,1.9798,1.9669,1.915,1.8221,1.7152,1.6782,1.6007,1.57,1.5439,1.542,1.5381,1.5021,1.4115,1.2174,1.0951,1.1679,1.1101,1.0926,1.0989,1.1108,1.1195,1.1413,1.15,1.1052,1.0751,1.0807,1.0951,1.06,1.0606,1.0697,1.0803,1.0681,1.0586,1.0586,1.0586,1.0586,1.0586,1.0586,1.0586,1.0586,1.0586,1.0586,1.0586,1.0586,1.0586,1.0586,1.0586,1.0586,1.0586,1.0586,1.0586,1.0713,1.0933,1.0839,1.0661,1.0304,0.9906,0.9414,0.8624,0.7767,2.3058,2.3095,2.3083,2.307,2.3095,2.3095,2.3095,2.3095,2.3095,2.3095,2.3095,2.3095,2.3095,2.292,2.2598,2.2071,2.1531,2.1056,2.0767,2.0767,2.0891,2.1106,2.1395,2.1556,2.1472,2.069,2.0287,2.0031,1.9653,1.8696,1.8445,1.8432,1.8367,1.8447,1.9631,1.9773,1.9798,1.9773,1.9669,1.9798,1.9669,1.9721,1.9798,1.9798,1.9798,1.9798,1.9798,1.9798,1.9798,1.9798,1.9798,1.9798,1.9798,1.9798,1.9773,1.9695,1.9669,1.9281,1.8543,1.6631,1.5835,1.5719,1.5613,1.542,1.542,1.5323,1.5059,1.4154,1.2504,1.1538,1.1382,1.132,1.1445,1.1569,1.1748,1.1865,1.2112,1.2328,1.1965,1.1311,1.1426,1.15,1.0972,1.0633,1.0673,1.0692,1.0606,1.0593,1.0606,1.0593,1.0593,1.0586,1.0586,1.0586,1.0586,1.0586,1.0586,1.0586,1.0586,1.0586,1.0586,1.0586,1.0586,1.0586,1.0586,1.0586,1.0593,1.0593,0.9977,0.9358,0.946,0.9145,0.8689,0.8201,0.7377,2.223,2.2569,2.2556,2.2769,2.307,2.3095,2.3095,2.3095,2.3095,2.3095,2.3095,2.3095,2.3095,2.302,2.2895,2.2493,2.2046,2.1933,2.1669,2.1267,2.1493,2.1807,2.2071,2.2189,2.1882,2.1086,2.0515,1.9666,1.8765,1.7997,1.789,1.7915,1.7633,1.7907,1.8367,1.8661,1.8874,1.8635,1.9097,1.9605,1.9214,1.9527,1.9798,1.9798,1.9798,1.9798,1.9798,1.9798,1.9798,1.9798,1.9798,1.9773,1.9773,1.9747,1.9553,1.9214,1.8951,1.8325,1.7385,1.6093,1.5748,1.5748,1.5661,1.5439,1.542,1.542,1.4962,1.4606,1.3955,1.3241,1.2757,1.2489,1.2497,1.2612,1.2726,1.2787,1.297,1.3213,1.3094,1.2195,1.1918,1.1589,1.1118,1.096,1.0975,1.0908,1.0868,1.072,1.0693,1.0633,1.0606,1.0593,1.0586,1.0586,1.0606,1.0727,1.0707,1.0667,1.0626,1.0586,1.0586,1.0586,1.0586,1.0586,1.0586,1.0586,1.0263,0.9779,0.8549,0.7934,0.8032,0.8291,0.8142,0.7703,0.7131,2.182,2.2309,2.2322,2.2594,2.3058,2.3095,2.3095,2.3095,2.3095,2.3095,2.3095,2.3095,2.3095,2.3095,2.3058,2.2794,2.2359,2.2297,2.2234,2.1832,2.2096,2.233,2.2619,2.2755,2.2112,2.1266,2.0439,1.9615,1.8367,1.76,1.7106,1.6825,1.6894,1.6978,1.7413,1.8015,1.8581,1.8581,1.9176,1.9643,1.9423,1.9527,1.9798,1.9798,1.9798,1.9798,1.9798,1.9798,1.9798,1.9798,1.9773,1.9682,1.9604,1.9566,1.9228,1.862,1.8017,1.7484,1.6658,1.6124,1.5889,1.5902,1.5613,1.5439,1.542,1.542,1.5167,1.5039,1.5407,1.4754,1.383,1.3557,1.3403,1.3503,1.3614,1.3675,1.3994,1.4252,1.3816,1.2957,1.2437,1.1978,1.1348,1.1337,1.1303,1.1209,1.1109,1.0969,1.0874,1.0834,1.0807,1.0801,1.076,1.076,1.0828,1.0969,1.0902,1.0767,1.074,1.0734,1.0586,1.0586,1.0586,1.0586,1.0593,1.0396,0.9741,0.8967,0.7702,0.6892,0.6629,0.6953,0.7405,0.7079,0.6527,2.1757,2.2234,2.2284,2.2543,2.302,2.307,2.3095,2.3095,2.3095,2.3095,2.3095,2.3095,2.3095,2.3095,2.3095,2.2844,2.2481,2.2406,2.2397,2.2359,2.2418,2.2694,2.2835,2.2882,2.2056,2.0959,1.9938,1.8999,1.8053,1.6738,1.5847,1.5613,1.5806,1.614,1.6894,1.7743,1.8328,1.8528,1.9202,1.954,1.9423,1.9657,1.9798,1.9798,1.9798,1.9798,1.9798,1.9798,1.9798,1.9798,1.9798,1.937,1.9239,1.9384,1.8661,1.7962,1.7365,1.695,1.6616,1.6217,1.6008,1.596,1.5674,1.5508,1.542,1.543,1.5342,1.5554,1.5925,1.5338,1.4702,1.4426,1.4165,1.4307,1.446,1.4731,1.5089,1.4997,1.4425,1.385,1.3437,1.2845,1.1778,1.1523,1.1657,1.1637,1.157,1.1543,1.1403,1.1223,1.1189,1.1149,1.1082,1.1002,1.1076,1.1289,1.1229,1.1089,1.1009,1.0969,1.0814,1.0653,1.0653,1.0653,1.0613,1.0136,0.9026,0.7957,0.6887,0.6268,0.5914,0.6013,0.6597,0.6239,0.5752,2.0654,2.1194,2.1584,2.2046,2.2543,2.2945,2.3095,2.3095,2.3095,2.3095,2.3095,2.3095,2.3095,2.3095,2.3095,2.2982,2.292,2.2869,2.2869,2.2844,2.2782,2.2945,2.2864,2.2512,2.1673,2.062,1.9478,1.8309,1.7206,1.5869,1.5469,1.5449,1.5478,1.5914,1.6624,1.7468,1.7863,1.8467,1.9393,1.9536,1.9548,1.9703,1.9846,1.9949,1.9962,1.9974,1.9962,1.9885,1.9846,1.9822,1.981,1.9508,1.9328,1.8635,1.7723,1.7153,1.6878,1.6775,1.6674,1.6558,1.6414,1.6278,1.6239,1.5878,1.5664,1.5478,1.5586,1.5977,1.6455,1.6093,1.5835,1.5564,1.5363,1.5417,1.5451,1.5491,1.5744,1.5317,1.4724,1.386,1.3516,1.2886,1.1861,1.1884,1.1997,1.2031,1.2024,1.1984,1.1904,1.1697,1.159,1.1509,1.1483,1.1376,1.149,1.169,1.1577,1.1422,1.1356,1.1249,1.1109,1.0955,1.0827,1.0649,1.0487,0.9338,0.7854,0.7046,0.6658,0.5947,0.5557,0.5624,0.5624,0.5491,0.5395,2.015,2.0704,2.1043,2.1594,2.2347,2.2869,2.3095,2.3095,2.3095,2.3095,2.3095,2.3095,2.3095,2.3095,2.3095,2.3083,2.3083,2.3045,2.3045,2.3045,2.3065,2.3083,2.2811,2.2218,2.1467,2.0411,1.9286,1.8153,1.6987,1.6357,1.5928,1.5693,1.5703,1.6207,1.6864,1.7506,1.8192,1.8922,1.9609,1.9756,1.9885,2.0074,2.0359,2.0413,2.0426,2.0387,2.0307,2.0188,1.9947,1.9824,1.9743,1.919,1.8757,1.7799,1.7566,1.714,1.7105,1.6948,1.675,1.6917,1.6833,1.6765,1.6726,1.6424,1.5995,1.5732,1.5947,1.626,1.6797,1.7106,1.695,1.6814,1.6724,1.6665,1.6446,1.6205,1.5909,1.5562,1.4732,1.3738,1.3093,1.248,1.2184,1.2265,1.2291,1.2231,1.2198,1.2191,1.2138,1.2031,1.1951,1.1917,1.187,1.1817,1.1944,1.1977,1.1864,1.1744,1.165,1.1536,1.1423,1.1236,1.1029,1.0692,1.0322,0.9104,0.7902,0.7307,0.685,0.6075,0.5458,0.5458,0.5524,0.5458,0.5395,2.0126,2.0616,2.0706,2.133,2.228,2.2807,2.3032,2.3095,2.3095,2.3095,2.3095,2.3095,2.3095,2.3095,2.3095,2.3095,2.3095,2.3095,2.3095,2.3065,2.2854,2.2823,2.2598,2.2063,2.091,2.0124,1.9148,1.7861,1.7362,1.6758,1.6318,1.6153,1.6326,1.6873,1.7698,1.8131,1.8982,2.0204,2.0625,2.0796,2.0851,2.1142,2.1481,2.1377,2.1284,2.12,2.1004,2.0633,2.0099,1.9785,1.9381,1.8624,1.8112,1.7489,1.7543,1.7586,1.7539,1.7344,1.7155,1.7295,1.7217,1.7028,1.6804,1.6872,1.6648,1.6143,1.626,1.6709,1.7246,1.7451,1.7353,1.7334,1.7272,1.7204,1.7048,1.6398,1.5646,1.5027,1.4022,1.3237,1.2817,1.2281,1.2251,1.2305,1.2305,1.2305,1.2305,1.2305,1.2285,1.2225,1.2198,1.2178,1.2124,1.2078,1.2144,1.2158,1.2104,1.2011,1.1917,1.185,1.175,1.1516,1.1243,1.0857,1.0405,0.9482,0.8474,0.7837,0.7111,0.6174,0.5686,0.5458,0.5395,0.5425,0.5395,1.9874,2.0049,2.0503,2.1333,2.2259,2.2418,2.2732,2.3095,2.3095,2.3095,2.3095,2.3095,2.3095,2.3095,2.3095,2.3095,2.3095,2.3095,2.3095,2.2914,2.2628,2.2445,2.1939,2.1037,2.0063,1.9283,1.8392,1.7568,1.7174,1.6843,1.6728,1.6645,1.6989,1.774,1.8561,1.9023,1.9988,2.1249,2.1431,2.1444,2.1356,2.1352,2.1481,2.1294,2.1136,2.0716,2.0374,1.979,1.9361,1.9078,1.9048,1.881,1.8641,1.7976,1.7792,1.7939,1.7881,1.7715,1.7666,1.7695,1.7656,1.7695,1.7637,1.7642,1.7408,1.6765,1.6689,1.7207,1.7529,1.7656,1.7711,1.7773,1.7773,1.7695,1.7551,1.6505,1.5429,1.4336,1.3317,1.2859,1.2512,1.2378,1.2305,1.2305,1.2305,1.2305,1.2305,1.2305,1.2305,1.2271,1.2265,1.2251,1.2265,1.2258,1.2305,1.2291,1.2218,1.2211,1.2138,1.2098,1.2058,1.177,1.1443,1.0989,1.0425,0.9685,0.8998,0.8328,0.754,0.6629,0.5947,0.5752,0.5557,0.5491,0.5458,1.9798,1.9886,2.0453,2.1182,2.1907,2.2167,2.2594,2.3032,2.3095,2.3095,2.3095,2.3095,2.3095,2.3095,2.3095,2.3095,2.3095,2.3095,2.3095,2.2914,2.2567,2.2322,2.1459,2.0398,1.9879,1.9138,1.8241,1.7539,1.7233,1.7262,1.7305,1.7125,1.7652,1.8237,1.9033,1.9708,2.062,2.1772,2.1836,2.1702,2.1562,2.1624,2.166,2.1425,2.0944,2.047,2.0099,1.9576,1.9204,1.8901,1.8733,1.8489,1.8326,1.8062,1.7964,1.7998,1.7988,1.8008,1.8008,1.8008,1.8008,1.8008,1.8008,1.7881,1.7857,1.7311,1.7324,1.7754,1.7783,1.7891,1.7891,1.791,1.792,1.7861,1.7639,1.6999,1.5408,1.382,1.3055,1.2565,1.2342,1.2342,1.2305,1.2305,1.2305,1.2305,1.2305,1.2305,1.2305,1.2305,1.2305,1.2305,1.2305,1.2305,1.2305,1.2305,1.2285,1.2298,1.2305,1.2251,1.2151,1.1924,1.1623,1.1369,1.0929,1.0225,0.9553,0.8923,0.8269,0.747,0.6724,0.6075,0.5848,0.5653,0.5524,1.9798,1.9886,2.0365,2.0955,2.1506,2.1983,2.2548,2.3032,2.3095,2.3095,2.3095,2.3095,2.3095,2.3095,2.3095,2.3095,2.3095,2.3095,2.3095,2.3005,2.2659,2.2218,2.1522,2.0611,1.965,1.8944,1.8267,1.7997,1.7852,1.7832,1.7686,1.7533,1.7788,1.814,1.8877,1.9599,2.0528,2.1332,2.1584,2.1473,2.1559,2.1741,2.1603,2.1346,2.0942,2.0494,2.016,1.9705,1.9212,1.8882,1.8445,1.8258,1.8124,1.8065,1.8051,1.8008,1.8008,1.8008,1.8008,1.8008,1.8008,1.8008,1.8008,1.8008,1.7964,1.7988,1.7969,1.7969,1.7998,1.8008,1.8008,1.8008,1.8008,1.7759,1.751,1.6975,1.5084,1.3411,1.2806,1.2305,1.2305,1.2305,1.2305,1.2305,1.2305,1.2305,1.2305,1.2305,1.2305,1.2305,1.2305,1.2305,1.2305,1.2305,1.2305,1.2305,1.2305,1.2305,1.2305,1.2305,1.2265,1.2084,1.1997,1.2017,1.1508,1.0878,1.0213,0.9539,0.8897,0.8279,0.7535,0.6789,0.6334,0.6071,0.5686,1.9798,1.9811,1.9924,2.0539,2.1418,2.1591,2.2209,2.3007,2.3095,2.3095,2.3095,2.3095,2.3095,2.3095,2.3095,2.3095,2.3078,2.3035,2.3065,2.3035,2.2082,2.1784,2.1239,2.0107,1.8744,1.8269,1.8134,1.8076,1.8008,1.8008,1.7988,1.7852,1.8634,1.9001,1.9328,2.0076,2.0877,2.1264,2.1307,2.1237,2.0765,2.0814,2.0846,2.0494,2.0009,1.9683,1.9299,1.8687,1.8361,1.8168,1.8144,1.8042,1.8008,1.8008,1.8008,1.8008,1.8008,1.8008,1.8008,1.8008,1.8008,1.8008,1.8008,1.8008,1.8008,1.8008,1.7988,1.7988,1.8008,1.8008,1.8008,1.8008,1.7974,1.7295,1.6906,1.5693,1.4127,1.3164,1.2445,1.2305,1.2305,1.2305,1.2305,1.2305,1.2305,1.2305,1.2305,1.2305,1.2305,1.2305,1.2305,1.2305,1.2305,1.2305,1.2305,1.2305,1.2305,1.2305,1.2305,1.2305,1.2298,1.2291,1.2245,1.2204,1.2104,1.1664,1.0962,1.0201,0.9715,0.9114,0.8317,0.7637,0.7046,0.6461,0.6009]}]]